     2.11           OBSERVATION DATA    G (GPS)             RINEX VERSION / TYPE
teqc 2010Oct21 OPUS Account 20111025 19:19:43UTC            PGM / RUN BY / DATE
W 1521                                                      MARKER NAME
1152                                                        MARKER NUMBER
CSMIDDLETON NGS                                             OBSERVER / AGENCY
4619K01307 TRIMBLE NETR5 4.41                               REC # / TYPE / VERS
12668873 TRM41249.00 NONE                                   ANT # / TYPE
  -739449.7000 -5474108.7896  3178360.2839                  APPROX POSITION XYZ
        1.9990        0.0000        0.0000                  ANTENNA: DELTA H/E/N
     1     1                                                WAVELENGTH FACT L1/2
     5    L1    L2    C1    P1    P2                        # / TYPES OF OBSERV
    15                                                      LEAP SECONDS
  2011     7    27     0     0    0.0000000     GPS         TIME OF FIRST OBS
                                                            END OF HEADER
 11  7 27  0  0  0.0000000  0  8G04G09G10G17G28G02G20G27
 104820635.559 8  81678547.60946  19946682.883                    19946691.707
 116829629.648 7  91036106.99345  22231931.633                    22231940.996
 124679269.317 6  97152796.70443  23725684.188                    23725695.258
 112060360.932 8                  21324355.008
 114203154.166 8  88989561.76645  21732128.961                    21732136.465
 118126343.193 7  92046603.26645  22478682.273                    22478689.965
 126932178.521 6  98908119.40843  24154358.953                    24154367.836
 117919268.017 7  91885232.45945  22439297.125                    22439306.152
 11  7 27  0  0 30.0000000  0  8G04G09G10G17G28G02G20G27
 104800618.253 8  81662949.72546  19942873.758                    19942882.527
 116796235.779 7  91010085.81045  22225577.070                    22225586.680
 124585120.675 7  97079434.21944  23707768.055                    23707779.043
 112090560.299 8                  21330101.258
 114250408.949 8  89026383.63945  21741121.188                    21741129.176
 118043927.306 7  91982383.17345  22462998.641                    22463006.293
 126962200.555 6  98931513.18643  24160071.125                    24160080.895
 117904302.268 7  91873570.84345  22436449.227                    22436458.594
 11  7 27  0  1  0.0000000  0  8G04G09G10G17G28G02G20G27
 104781174.990 8  81647799.14146  19939173.906                    19939182.773
 116763469.019 7  90984553.27445  22219341.750                    22219351.457
 124490987.176 6  97006083.53743  23689854.094                    23689866.207
 112120857.971 8                  21335867.063
 114298034.559 8  89063494.47645  21750184.313                    21750192.375
 117961788.623 7  91918379.08045  22447368.047                    22447375.781
 126992722.052 6  98955296.18843  24165879.836                    24165888.703
 117889828.077 7  91862292.25145  22433695.180                    22433704.547
 11  7 27  0  1 30.0000000  0  8G04G09G10G17G28G02G20G27
 104762305.999 8  81633096.04746  19935583.164                    19935591.828
 116731330.660 7  90959510.40145  22213226.242                    22213235.527
 124396872.150 6  96932747.28944  23671944.633                    23671957.211
 112151253.775 8                  21341651.359
 114346031.221 8  89100894.44545  21759317.625                    21759325.883
 117879929.181 7  91854592.58445  22431790.516                    22431798.156
 127023742.625 6  98979468.06143  24171783.055                    24171791.938
 117875845.615 7  91851396.81945  22431034.344                    22431043.641
 11  7 27  0  2  0.0000000  0  8G04G09G10G17G28G02G20G27
 104744011.261 8  81618840.42946  19932101.648                    19932110.582
 116699821.555 7  90934957.86345  22207230.063                    22207239.406
 124302778.548 6  96859427.75343  23654039.266                    23654051.469
 112181747.116 8                  21347453.938
 114394399.157 8  89138583.71845  21768521.602                    21768529.629
 117798350.087 7  91791024.53345  22416266.570                    22416274.379
 127055262.087 6  99004028.67843  24177780.813                    24177790.051
 117862355.094 7  91840884.73545  22428466.945                    22428476.234
 11  7 27  0  2 30.0000000  0  8G04G09G10G17G28G02G20G27
 104726290.785 8  81605032.27846  19928729.797                    19928738.184
 116668942.816 7  90910896.51044  22201354.305                    22201363.398
 124208709.461 6  96786127.35343  23636138.266                    23636149.844
 112212338.330 8                  21353275.211
 114443138.618 8  89176562.47845  21777796.398                    21777804.859
 117717052.666 8  91727675.96245  22400796.031                    22400803.691
 127087280.021 6  99028977.69243  24183873.469                    24183882.023
 117849356.702 7  91830756.12145  22425993.656                    22426002.609
 11  7 27  0  3  0.0000000  0  8G04G09G10G17G28G02G20G27
 104709144.563 8  81591671.59746  19925466.969                    19925475.648
 116638695.241 7  90887326.97444  22195597.500                    22195607.164
 124114668.026 7  96712848.38543  23618242.820                    23618254.477
 112243026.363 8                  21359115.109
 114492250.078 8  89214831.11945  21787142.047                    21787150.164
 117636038.475 8  91664548.09945  22385379.641                    22385387.613
 127119795.838 6  99054314.68143  24190060.898                    24190069.992
 117836850.624 7  91821011.12645  22423613.578                    22423622.840
 11  7 27  0  3 30.0000000  0  8G04G09G10G17G28G02G20G27
 104692572.074 8  81578757.98846  19922313.453                    19922322.125
 116609079.332 7  90864249.65245  22189962.188                    22189971.434
 124020657.219 7  96639593.29144  23600353.555                    23600363.941
 112273810.839 8                  21364972.992
 114541733.235 8  89253389.39645  21796558.859                    21796566.469
 117555308.746 7  91601641.88845  22370017.445                    22370024.539
 127152808.959 6  99080039.18343  24196343.234                    24196352.293
 117824836.579 7  91811649.52245  22421327.547                    22421336.934
 11  7 27  0  4  0.0000000  0  8G04G09G10G17G28G02G20G27
 104676573.429 8  81566291.51846  19919268.766                    19919277.840
 116580096.023 7  90841665.25744  22184446.883                    22184455.875
 123926680.279 7  96566364.59644  23582469.766                    23582481.059
 112304691.814 8                  21370849.438
 114591588.233 8  89292237.41445  21806045.727                    21806053.703
 117474865.325 8  91538958.76845  22354709.438                    22354716.832
 127186318.950 6  99106150.86143  24202720.711                    24202728.742
 117813314.989 7  91802671.64945  22419134.422                    22419144.207
 11  7 27  0  4 30.0000000  0  8G04G09G10G17G28G02G20G27
 104661148.129 8  81554271.81546  19916333.633                    19916342.047
 116551745.969 7  90819574.30844  22179051.992                    22179060.973
 123832740.198 6  96493164.66243  23564592.930                    23564605.301
 112335668.396 8                  21376744.258
 114641815.188 8  89331375.27745  21815603.625                    21815611.781
 117394709.264 7  91476499.57245  22339456.391                    22339463.770
 127220324.922 6  99132649.01943  24209191.188                    24209199.859
 117802285.618 8  91794077.33045  22417036.164                    22417045.359
 11  7 27  0  5  0.0000000  0  8G04G09G10G17G28G02G20G27
 104646296.244 8  81542698.92346  19913507.477                    19913516.215
 116524029.846 7  90797977.33744  22173777.758                    22173786.688
 123738840.171 6  96419995.96544  23546724.906                    23546736.305
 112366740.320 8                  21382656.750
 114692414.071 8  89370802.93745  21825232.234                    21825240.266
 117314842.271 8  91414265.61245  22324257.398                    22324265.262
 127254826.703 6  99159533.49343  24215757.477                    24215765.453
 117791748.823 7  91785866.83645  22415030.828                    22415040.086
 11  7 27  0  5 30.0000000  0  8G04G09G10G17G28G02G20G27
 104632017.228 8  81531572.42046  19910790.266                    19910798.629
 116496948.475 7  90776874.97145  22168624.578                    22168633.227
 123644983.299 7  96346860.86044  23528864.492                    23528876.211
 112397907.472 8                  21388587.781
 114743384.991 8  89410520.51345  21834931.156                    21834939.730
 117235265.124 8  91352257.51245  22309114.547                    22309121.824
 127289823.375 6  99186803.62443  24222416.953                    24222425.445
 117781704.203 7  91778039.85545  22413119.828                    22413129.145
 11  7 27  0  6  0.0000000  0  8G04G09G10G17G28G02G20G27
 104618311.174 8  81520892.39046  19908182.109                    19908190.613
 116470502.537 7  90756267.74445  22163592.164                    22163601.371
 123551172.874 7  96273761.94344  23511013.094                    23511024.422
 112429169.190 8                  21394536.813
 114794728.037 8  89450528.04545  21844702.063                    21844710.406
 117155979.608 8  91290476.64245  22294027.188                    22294034.531
 127325314.383 6  99214458.95043  24229170.023                    24229179.141
 117772151.907 7  91770596.49645  22411301.781                    22411311.316
 11  7 27  0  6 30.0000000  0  8G04G09G10G17G28G02G20G27
 104605177.185 8  81510658.12446  19905682.570                    19905691.254
 116444692.306 7  90736155.88045  22158680.703                    22158689.980
 123457411.923 7  96200701.54744  23493170.938                    23493181.750
 112460525.220 8                  21400503.844
 114846443.300 8  89490825.61945  21854542.406                    21854551.172
 117076987.062 8  91228924.07745  22278994.930                    22279003.035
 127361298.820 6  99242498.73543  24236017.531                    24236026.703
 117763091.777 8  91763536.64345  22409577.898                    22409587.531
 11  7 27  0  7  0.0000000  0  8G04G09G10G17G28G02G20G27
 104592615.549 8  81500869.83646  19903292.031                    19903300.570
 116419518.540 7  90716539.97045  22153889.922                    22153899.383
 123363703.712 7  96127682.22143  23475338.938                    23475349.262
 112491975.410 8                  21406488.883
 114898530.837 8  89531413.27745  21864454.805                    21864462.574
 116998288.460 8  91167600.54245  22264019.609                    22264026.859
 127397776.620 6  99270922.98843  24242958.813                    24242968.473
 117754523.853 7  91756860.31945  22407947.359                    22407956.973
 11  7 27  0  7 30.0000000  0  8G04G09G10G17G28G02G20G27
 104580625.813 8  81491527.19046  19901010.789                    19901019.180
 116394981.723 7  90697420.38345  22149220.586                    22149230.359
 123270051.494 6  96054706.51843  23457516.602                    23457527.852
 112523519.389 8                  21412490.945
 114950990.411 8  89572290.82345  21874437.586                    21874445.605
 116919885.469 8  91106507.36245  22249099.695                    22249107.309
 127434746.883 6  99299730.97943  24249995.016                    24250003.797
 117746447.891 7  91750567.34945  22406410.469                    22406419.898
 11  7 27  0  8  0.0000000  0  8G04G09G10G17G28G02G20G27
 104569207.316 8  81482629.67046  19898837.469                    19898846.242
 116371082.595 7  90678797.70445  22144672.789                    22144682.418
 123176458.073 6  95981776.72044  23439706.633                    23439718.176
 112555156.766 8                  21418511.242
 115003822.162 8  89613458.37945  21884491.258                    21884499.102
 116841779.323 8  91045645.48945  22234236.727                    22234244.000
 127472208.591 6  99328921.91643  24257122.789                    24257131.781
 117738863.746 8  91744657.61345  22404967.258                    22404976.934
 11  7 27  0  8 30.0000000  0  8G04G09G10G17G28G02G20G27
 104558359.850 8  81474177.10546  19896773.500                    19896782.219
 116347821.653 7  90660672.31145  22140246.352                    22140256.262
 123082926.791 7  95908895.29644  23421908.648                    23421919.320
 112586887.107 8                  21424549.516
 115057026.170 8  89654916.01945  21894615.602                    21894623.844
 116763971.419 8  90985016.00445  22219430.500                    22219437.801
 127510161.152 6  99358495.29743  24264344.695                    24264354.227
 117731771.335 7  91739131.05245  22403617.781                    22403626.777
 11  7 27  0  9  0.0000000  0  8G04G09G10G17G28G02G20G27
 104548082.414 8  81466168.72246  19894817.773                    19894826.527
 116325199.016 7  90643044.28745  22135941.430                    22135951.504
 122989460.576 7  95836064.55044  23404122.883                    23404133.586
 112618709.910 8                  21430605.344
 115110601.719 7  89696663.15345  21904810.617                    21904819.203
 116686462.710 8  90924619.66745  22204680.844                    22204688.395
 127548603.798 6  99388450.58643  24271659.875                    24271670.371
 117725170.238 7  91733987.33245  22402361.391                    22402370.918
 11  7 27  0  9 30.0000000  0  8G04G09G10G17G28G02G20G27
 104538375.152 8  81458604.63446  19892970.789                    19892979.598
 116303215.213 7  90625914.07845  22131757.914                    22131768.008
 122896062.906 6  95763287.25244  23386349.141                    23386360.195
 112650624.986 8                  21436678.711
 115164549.133 7  89738700.07045  21915076.453                    21915084.871
 116609254.700 8  90864457.63645  22189988.516                    22189995.871
 127587535.853 6  99418787.17543  24279068.555                    24279078.215
 117719060.487 7  91729226.46945  22401199.242                    22401208.430
 11  7 27  0 10  0.0000000  0  8G04G09G10G17G28G02G20G27
 104529237.805 8  81451484.62746  19891231.641                    19891240.914
 116281870.813 7  90609282.08945  22127696.414                    22127705.496
 122802737.283 6  95690566.05343  23368589.641                    23368600.508
 112682632.253 8                  21442769.281
 115218868.858 7  89781027.08345  21925413.094                    21925421.180
 116532348.768 8  90804530.99245  22175353.992                    22175361.344
 127626956.474 6  99449504.55143  24286570.375                    24286579.297
 117713441.823 7  91724848.27645  22400129.820                    22400138.902
 11  7 27  0 10 30.0000000  0  8G04G09G10G17G28G02G20G27
 104520669.539 8  81444808.06546  19889601.133                    19889610.137
 116261166.274 7  90593148.69445  22123756.609                    22123765.895
 122709486.305 6  95617903.04343  23350844.195                    23350854.922
 112714731.698 8                  21448877.781
 115273560.344 7  89823643.79345  21935820.500                    21935829.352
 116455746.164 8  90744840.71545  22160776.766                    22160784.188
 127666864.987 6  99480602.08843  24294164.727                    24294173.969
 117708314.072 7  91720852.61745  22399153.953                    22399163.230
 11  7 27  0 11  0.0000000  0  8G04G09G10G17G28G02G20G27
 104512670.060 8  81438574.71546  19888079.023                    19888087.820
 116241101.831 7  90577514.06345  22119938.453                    22119947.754
 122616313.607 6  95545301.04544  23333114.430                    23333125.309
 112746922.879 8                  21455003.594
 115328623.592 7  89866550.19445  21946298.938                    21946307.266
 116379448.199 8  90685387.81745  22146258.156                    22146265.516
 127707260.537 5  99512079.05842  24301851.930                    24301861.109
 117703677.192 7  91717239.45645  22398271.922                    22398280.688
 11  7 27  0 11 30.0000000  0  8G04G09G10G17G28G02G20G27
 104505238.679 8  81432784.03446  19886664.867                    19886673.730
 116221677.807 7  90562378.45545  22116242.656                    22116251.402
 122523222.263 7  95472762.42144  23315399.648                    23315410.965
 112779205.459 8                  21461146.758
 115384058.465 7  89909746.16245  21956848.391                    21956856.180
 116303455.947 8  90626173.12945  22131796.781                    22131804.273
 127748142.011 6  99543934.78942  24309631.375                    24309640.633
 117699530.794 7  91714008.48145  22397483.109                    22397492.332
 11  7 27  0 12  0.0000000  0  8G04G09G10G17G28G02G20G27
 104498374.547 8  81427435.37346  19885358.664                    19885366.813
 116202894.391 7  90547742.03045  22112667.938                    22112676.617
 122430215.145 7  95400289.43344  23297700.688                    23297711.828
 112811578.580 8                  21467307.102
 115439864.392 7  89953231.27245  21967467.359                    21967475.699
 116227770.553 8  90567197.55845  22117394.109                    22117401.746
 127789508.686 6  99576168.55042  24317502.844                    24317512.289
 117695874.199 7  91711159.18345  22396787.133                    22396796.332
 11  7 27  0 12 30.0000000  0  8G04G09G10G17G28G02G20G27
 104492077.312 8  81422528.45146  19884160.164                    19884168.715
 116184751.940 7  90533605.04245  22109215.883                    22109224.148
 122337295.658 6  95327884.74244  23280019.063                    23280029.945
 112844042.607 8                  21473484.680
 115496041.823 7  89997005.84545  21978157.680                    21978165.840
 116152393.445 8  90508462.21545  22103050.531                    22103058.043
 127831359.721 6  99608779.71942  24325467.023                    24325475.758
 117692707.306 7  91708691.47845  22396184.109                    22396193.590
 11  7 27  0 13  0.0000000  0  8G04G09G10G17G28G02G20G27
 104486346.609 8  81418062.97846  19883069.875                    19883078.547
 116167250.703 7  90519967.71145  22105885.391                    22105894.031
 122244467.145 6  95255550.94644  23262353.938                    23262364.883
 112876597.233 8                  21479679.563
 115552590.608 7  90041069.80645  21988918.914                    21988926.836
 116077325.900 8  90449968.07745  22088765.188                    22088772.672
 127873694.279 6  99641767.70242  24333522.617                    24333532.004
 117690029.710 7  91706605.03245  22395674.758                    22395683.996
 11  7 27  0 13 30.0000000  0  8G04G09G10G17G28G02G20G27
 104481181.507 8  81414038.23446  19882086.648                    19882095.441
 116150390.905 7  90506830.20745  22102676.828                    22102685.695
 122151732.800 7  95183290.50044  23244706.977                    23244717.879
 112909242.342 7                  21485891.930
 115609510.329 7  90085422.81245  21999749.742                    21999758.043
 116002568.892 8  90391715.91945  22074539.453                    22074547.004
 127916511.092 6  99675131.39442  24341670.945                    24341680.250
 117687841.241 7  91704899.72445  22395258.000                    22395267.355
 11  7 27  0 14  0.0000000  0  8G04G09G10G17G28G02G20G27
 104476581.514 8  81410453.83346  19881211.438                    19881220.059
 116134172.487 7  90494192.47545  22099590.703                    22099599.984
 122059095.876 7  95111105.94044  23227079.094                    23227089.930
 112941977.457 8                  21492121.266
 115666800.673 7  90130064.58445  22010652.781                    22010660.281
 115928123.621 8  90333706.66445  22060373.336                    22060380.387
 127959809.478 6  99708870.40042  24349910.805                    24349919.379
 117686141.423 7  91703575.19145  22394934.586                    22394944.215
 11  7 27  0 14 30.0000000  0  8G04G09G10G17G28G02G20G27
 104472545.767 8  81407309.10946  19880443.602                    19880452.199
 116118595.709 7  90482054.71145  22096626.367                    22096635.375
 121966559.724 7  95038999.93744  23209470.078                    23209480.820
 112974802.735 8                  21498367.891
 115724461.352 7  90174994.95545  22021624.766                    22021633.012
 115853991.521 8  90275941.44345  22046266.375                    22046273.668
 128003588.262 6  99742983.67242  24358240.734                    24358250.176
 117684929.835 7  91702631.08445  22394703.961                    22394713.371
 11  7 27  0 15  0.0000000  0  8G04G09G10G17G28G02G20G27
 104469073.806 8  81404603.69746  19879782.570                    19879791.426
 116103660.535 7  90470416.91845  22093784.297                    22093793.551
 121874127.570 6  94966974.97544  23191880.594                    23191891.648
 113007717.384 8                  21504631.047
 115782492.272 7  90220213.82545  22032667.344                    22032676.301
 115780173.755 8  90218421.15845  22032219.273                    22032226.406
 128047846.517 6  99777470.62942  24366662.883                    24366671.945
 117684206.204 7  91702067.21045  22394566.609                    22394575.637
 11  7 27  0 15 30.0000000  0  8G04G09G10G17G28G02G20G27
 104466164.582 8  81402336.78346  19879229.305                    19879237.836
 116089367.163 7  90459279.22245  22091064.227                    22091073.707
 121781802.359 7  94895033.35644  23174311.688                    23174323.238
 113040721.560 7                  21510911.539
 115840893.324 7  90265721.09545  22043780.570                    22043789.508
 115706671.001 8  90161146.33345  22018231.719                    22018239.492
 128092583.349 6  99812330.45242  24375176.219                    24375185.504
 117683969.795 7  91701882.99245  22394521.516                    22394530.262
 11  7 27  0 16  0.0000000  0  8G04G09G10G17G28G02G20G27
 104463817.769 8  81400508.10346  19878782.555                    19878791.285
 116075715.657 7  90448641.68545  22088466.742                    22088475.723
 121689587.498 7  94823177.72444  23156763.852                    23156774.566
 113073815.134 8                  21517209.172
 115899664.402 7  90311516.69545  22054964.742                    22054973.039
 115633484.988 8  90104118.32045  22004305.422                    22004312.426
 128137797.738 6  99847562.48842  24383780.758                    24383789.316
 117684220.476 7  91702078.33245  22394569.367                    22394578.586
 11  7 27  0 16 30.0000000  0  8G04G09G10G17G28G02G20G27
 104462032.425 8  81399116.93946  19878442.758                    19878451.516
 116062706.148 7  90438504.41445  22085990.539                    22086000.418
 121597486.415 7  94751410.70344  23139236.930                    23139247.938
 113106997.773 8                  21523523.602
 115958805.005 7  90357600.24445  22066218.813                    22066227.293
 115560616.648 8  90047337.84145  21990438.711                    21990446.223
 128183488.496 6  99883165.65242  24392475.391                    24392484.086
 117684957.521 7  91702652.64545  22394709.914                    22394718.648
 11  7 27  0 17  0.0000000  0  9G04G12G09G10G17G28G02G20G27
 104460807.986 8  81398162.84446  19878209.906                    19878218.707
 129515817.29116                  24646046.352
 116050338.674 7  90428867.40845  22083637.109                    22083646.957
 121505502.437 6  94679734.92144  23121733.555                    23121744.273
 113140269.698 7                  21529854.883
 116018315.258 7  90403971.84245  22077543.188                    22077552.047
 115488067.430 8  89990806.02245  21976633.313                    21976640.035
 128229654.829 6  99919139.36642  24401260.031                    24401269.055
 117686180.788 7  91703605.84545  22394942.359                    22394951.500
 11  7 27  0 17 30.0000000  0  9G04G12G09G10G17G28G02G20G27
 104460143.645 8  81397645.19146  19878083.516                    19878092.066
 129418948.027 6                  24627611.977
 116038613.277 7  90419730.73645  22081406.398                    22081415.676
 121413639.312 6  94608153.35644  23104252.008                    23104263.207
 113173630.441 7                  21536203.188
 116078194.590 7  90450630.99445  22088938.367                    22088946.180
 115415838.281 8  89934523.61146  21962888.211                    21962895.594
 128276295.857 6  99955483.03242  24410136.688                    24410144.840
 117687889.759 7  91704937.51145  22395267.836                    22395276.395
 11  7 27  0 18  0.0000000  0  9G04G12G09G10G17G28G02G20G27
 104460038.460 8  81397563.23846  19878063.563                    19878071.770
 129322057.387 6                  24609174.422
 116027529.790 7  90411094.24645  22079297.344                    22079307.105
 121321899.676 6  94536668.02244  23086794.227                    23086805.957
 113207079.690 8                  21542568.570
 116138442.482 7  90497577.37045  22100402.773                    22100411.344
 115343930.153 8  89878491.35745  21949204.734                    21949211.898
 128323409.969 6  99992195.30943  24419101.773                    24419110.523
 117690083.568 7  91706646.96145  22395684.773                    22395694.066
 11  7 27  0 18 30.0000000  0  9G04G12G09G10G17G28G02G20G27
 104460490.949 8  81397915.83646  19878149.555                    19878158.070
 129225146.730 6                  24590733.883
 116017087.672 7  90402957.53445  22077309.727                    22077319.523
 121230286.531 6  94465281.22044  23069361.680                    23069372.609
 113240616.984 7                  21548950.633
 116199058.249 7  90544810.39845  22111937.445                    22111946.063
 115272344.032 8  89822710.00646  21935582.195                    21935589.594
 128370995.778 6 100029275.13443  24428156.891                    24428166.000
 117692761.332 7  91708733.51245  22396194.734                    22396203.930
 11  7 27  0 19  0.0000000  0  9G04G12G09G10G17G28G02G20G27
 104461500.480 8  81398702.50146  19878341.664                    19878349.938
 129128217.872 6                  24572288.500
 116007286.806 7  90395320.48845  22075445.055                    22075454.691
 121138803.182 6  94393995.57444  23051952.297                    23051963.570
 113274243.120 7                  21555349.328
 116260042.372 7  90592330.43845  22123542.602                    22123550.863
 115201080.685 8  89767180.17345  21922021.297                    21922028.633
 128419052.436 6 100066721.83943  24437301.797                    24437310.992
 117695922.544 7  91711196.79045  22396796.438                    22396805.289
 11  7 27  0 19 30.0000000  0  9G04G12G09G10G17G28G02G20G27
 104463066.521 8  81399922.80046  19878639.734                    19878648.277
 129031272.716 6                  24553840.758
 115998127.009 7  90388182.98145  22073701.523                    22073711.367
 121047453.168 6  94322813.77244  23034569.172                    23034579.305
 113307957.124 7                  21561764.609
 116321393.945 7  90640136.81245  22135217.344                    22135225.535
 115130141.454 8  89711902.90045  21908522.023                    21908529.094
 128467578.737 6 100104534.53243  24446535.930                    24446544.535
 117699566.948 7  91714036.56645  22397489.602                    22397498.820
 11  7 27  0 20  0.0000000  0  9G04G12G09G10G17G28G02G20G27
 104465187.771 8  81401575.73046  19879043.383                    19879052.109
 128934312.539 6                  24535389.438
 115989608.102 7  90381544.86645  22072080.984                    22072090.484
 120956239.611 6  94251738.33444  23017211.820                    23017222.258
 113341758.749 7                  21568197.094
 116383112.508 7  90688229.15045  22146962.258                    22146970.602
 115059527.467 8  89656879.05545  21895084.539                    21895091.703
 128516573.349 6 100142712.15943  24455859.461                    24455867.832
 117703693.605 7  91717252.12845  22398274.906                    22398284.344
 11  7 27  0 20 30.0000000  0  9G04G12G09G10G17G28G02G20G27
 104467863.353 8  81403660.61246  19879552.609                    19879560.742
 128837339.074 6                  24516936.000
 115981730.180 7  90375406.21445  22070581.758                    22070591.527
 120865165.691 7  94180771.71944  22999881.367                    22999891.531
 113375647.900 7                  21574645.977
 116445197.755 7  90736607.21945  22158776.633                    22158785.023
 114989239.783 8  89602109.48845  21881708.781                    21881716.387
 128566035.073 6 100181253.73043  24465271.391                    24465281.039
 117708301.904 7  91720842.99645  22399152.250                    22399161.504
 11  7 27  0 21  0.0000000  0  9G04G12G09G10G17G28G02G20G27
 104471092.450 8  81406176.80546  19880166.844                    19880175.484
 128740354.369 6                  24498480.375
 115974492.569 7  90369766.52145  22069204.867                    22069214.008
 120774235.084 7  94109916.76444  22982577.992                    22982588.492
 113409624.778 7                  21581111.320
 116507649.299 7  90785270.71545  22170660.703                    22170668.953
 114919279.308 8  89547594.87746  21868396.031                    21868403.270
 128615962.731 6 100220158.37043  24474773.109                    24474781.895
 117713391.093 7  91724808.58745  22400120.281                    22400129.504
 11  7 27  0 21 30.0000000  0  9G04G12G09G10G17G28G02G20G27
 104474873.629 8  81409123.18646  19880886.289                    19880895.059
 128643359.961 6                  24480023.234
 115967894.757 7  90364625.36445  22067949.398                    22067958.371
 120683450.684 7  94039175.73644  22965301.797                    22965312.051
 113443689.074 7                  21587594.102
 116570466.355 7  90834219.04145  22182614.578                    22182622.664
 114849646.976 8  89493335.95846  21855145.570                    21855152.672
 128666354.900 6 100259424.98743  24484362.469                    24484370.992
 117718960.257 7  91729148.17445  22401180.289                    22401189.461
 11  7 27  0 22  0.0000000  0  9G04G12G09G10G17G28G02G20G27
 104479206.413 8  81412499.38646  19881710.977                    19881719.625
 128546357.424 6                  24461563.891
 115961936.824 7  90359982.81345  22066815.398                    22066824.816
 120592816.125 7  93968551.49144  22948054.313                    22948065.012
 113477840.773 7                  21594092.383
 116633649.178 7  90883452.36045  22194638.109                    22194646.820
 114780344.168 8  89439333.82246  21841957.477                    21841964.469
 128717210.532 6 100299052.74143  24494039.648                    24494048.754
 117725009.014 7  91733861.47945  22402331.328                    22402340.586
 11  7 27  0 22 30.0000000  0  9G04G12G09G10G17G28G02G20G27
 104484089.398 8  81416304.31646  19882639.977                    19882648.660
 128449348.226 7                  24443103.602
 115956618.478 7  90355838.64345  22065803.484                    22065812.602
 120502334.469 7  93898046.35644  22930836.633                    22930846.570
 113512079.502 7                  21600607.641
 116697196.763 7  90932969.90545  22206731.078                    22206739.383
 114711371.541 8  89385588.97346  21828832.484                    21828839.707
 128768528.366 6 100339040.67743  24503805.039                    24503814.320
 117731536.475 7  91738947.79145  22403573.516                    22403582.875
 11  7 27  0 23  0.0000000  0  9G04G12G09G10G17G28G02G20G27
 104489521.816 8  81420537.37346  19883673.820                    19883682.500
 128352334.598 7                  24424642.906
 115951939.521 7  90352192.69445  22064913.172                    22064922.227
 120412009.241 7  93827663.16544  22913648.242                    22913658.148
 113546406.067 8                  21607140.328
 116761109.062 7  90982771.66445  22218892.891                    22218901.125
 114642730.156 8  89332102.21645  21815770.219                    21815777.555
 128820307.088 6 100379387.68843  24513657.109                    24513667.152
 117738542.251 7  91744406.81445  22404907.000                    22404916.492
 11  7 27  0 23 30.0000000  0  9G04G12G09G10G17G28G02G20G27
 104495502.475 8  81425197.63846  19884812.094                    19884820.566
 128255318.052 7                  24406181.359
 115947899.138 7  90349044.34445  22064144.180                    22064153.426
 120321843.606 7  93757404.27644  22896490.109                    22896500.223
 113580819.679 7                  21613688.953
 116825385.496 7  91032857.16645  22231124.469                    22231132.469
 114574421.112 8  89278874.43846  21802771.352                    21802778.598
 128872545.141 6 100420092.67343  24523598.461                    24523607.738
 117746025.386 7  91750237.81345  22406330.820                    22406340.328
 11  7 27  0 24  0.0000000  0  9G04G12G09G10G17G28G02G20G27
 104502030.094 8  81430284.09646  19886054.125                    19886062.781
 128158300.309 7                  24387718.930
 115944496.759 7  90346393.13845  22063496.766                    22063505.742
 120231840.906 7  93687272.41044  22879363.000                    22879373.844
 113615320.117 7                  21620254.016
 116890025.076 7  91083225.61345  22243425.078                    22243433.234
 114506445.172 8  89225906.21746  21789836.258                    21789843.570
 128925241.320 6 100461154.58443  24533626.672                    24533636.188
 117753984.867 7  91756439.99145  22407845.117                    22407854.672
 11  7 27  0 24 30.0000000  0  9G04G12G09G10G17G28G02G20G27
 104509103.862 8  81435796.13346  19887400.055                    19887408.680
 128061283.203 6                  24369257.289
 115941732.225 7  90344238.95445  22062970.172                    22062979.492
 120142004.455 7  93617270.06544  22862267.781                    22862278.555
 113649907.485 7                  21626835.578
 116955027.954 7  91133877.16845  22255794.680                    22255803.051
 114438803.520 8  89173198.49246  21776963.781                    21776971.691
 128978394.443 6 100502572.57943  24543740.906                    24543750.637
 117762419.955 7  91763012.76545  22409450.148                    22409460.051
 11  7 27  0 25  0.0000000  0  9G04G12G09G10G17G28G02G20G27
 104516722.539 8  81441732.76846  19888850.047                    19888858.305
 127964268.569 7                  24350795.852
 115939604.901 7  90342581.30045  22062565.547                    22062574.625
 120052337.391 7  93547399.71044  22845204.320                    22845214.918
 113684581.743 7                  21633434.055
 117020393.322 7  91184811.17945  22268233.477                    22268242.074
 114371497.043 8  89120751.93046  21764156.430                    21764163.434
 129032003.284 6 100544345.67343  24553942.430                    24553951.766
 117771329.940 7  91769955.59945  22411145.930                    22411155.535
 11  7 27  0 25 30.0000000  0  9G04G12G09G10G17G28G02G20G27
 104524885.295 8  81448093.36146  19890403.313                    19890411.707
 127867258.234 7                  24332335.492
 115938114.682 7  90341420.10045  22062282.016                    22062290.770
 119962843.601 7  93477664.37044  22828174.297                    22828184.566
 113719343.432 7                  21640048.836
 117086120.701 7  91236027.28645  22280740.563                    22280749.406
 114304526.809 8  89068567.37246  21751412.383                    21751419.672
 129086066.294 6 100586472.70043  24564230.680                    24564239.840
 117780714.032 7  91777267.86345  22412932.063                    22412941.039
 11  7 27  0 26  0.0000000  0  9G04G12G09G10G17G28G02G20G27
 104533590.692 8  81454876.79046  19892059.852                    19892068.207
 127770253.863 6                  24313876.141
 115937260.370 7  90340754.39445  22062119.734                    22062128.250
 119873526.025 7  93408066.32144  22811177.961                    22811187.793
 113754191.976 8                  21646680.656
 117152209.748 7  91287525.20145  22293317.211                    22293325.746
 114237893.697 8  89016645.50946  21738732.383                    21738739.613
 129140581.951 6 100628952.40143  24574604.297                    24574613.668
 117790571.263 7  91784948.79945  22414807.523                    22414817.031
 11  7 27  0 26 30.0000000  0  8G04G12G09G10G17G28G02G27
 104542839.040 8  81462083.29946  19893819.586                    19893828.355
 127673258.720 6                  24295418.188
 115937043.048 7  90340585.06145  22062078.602                    22062087.449
 119784389.419 7  93338609.30344  22794215.477                    22794226.289
 113789128.511 8                  21653329.039
 117218661.064 7  91339305.40845  22305962.000                    22305971.063
 114171599.875 8  88964988.02246  21726117.188                    21726124.426
 117800902.148 7  91792998.83745  22416773.234                    22416783.117
 11  7 27  0 27  0.0000000  0  8G04G12G09G10G17G28G02G27
 104552627.613 8  81469710.76546  19895682.680                    19895690.879
 127576273.200 6                  24276961.992
 115937460.591 7  90340910.41445  22062157.688                    22062166.930
 119695435.705 7  93269294.80244  22777288.156                    22777298.434
 113824151.720 8                  21659993.438
 117285472.514 7  91391366.23545  22318675.648                    22318684.977
 114105644.848 8  88913594.54546  21713566.133                    21713573.098
 117811704.204 7  91801416.01945  22418828.625                    22418838.211
 11  7 27  0 27 30.0000000  0  8G04G12G09G10G17G28G02G27
 104562954.726 8  81477757.87246  19897647.609                    19897656.176
 127479298.980 6                  24258508.930
 115938511.826 7  90341729.56545  22062357.844                    22062366.371
 119606668.018 7  93200125.25144  22760396.180                    22760406.559
 113859261.355 8                  21666674.734
 117352643.388 7  91443707.12445  22331458.352                    22331467.051
 114040029.202 8  88862465.51546  21701079.883                    21701087.074
 117822976.214 7  91810199.38845  22420973.828                    22420983.445
 11  7 27  0 28  0.0000000  0  8G04G12G09G10G17G28G02G27
 104573819.364 8  81486223.83046  19899715.281                    19899723.813
 127382337.775 6                  24240057.063
 115940196.539 7  90343042.32345  22062678.492                    22062687.441
 119518089.707 7  93131103.25644  22743540.320                    22743550.426
 113894457.551 8                  21673372.219
 117420173.288 7  91496327.77845  22344308.680                    22344317.770
 113974754.093 8  88811601.84446  21688658.477                    21688665.680
 117834717.493 7  91819348.41745  22423207.984                    22423217.297
 11  7 27  0 28 30.0000000  0  8G04G12G09G10G17G28G02G27
 104585220.363 8  81495107.72746  19901884.602                    19901893.121
 127285391.490 7                  24221609.438
 115942513.753 7  90344847.93745  22063119.078                    22063128.242
 119429704.157 7  93062231.46444  22726720.586                    22726730.871
 113929740.506 7                  21680086.320
 117488061.420 7  91549227.57145  22357227.563                    22357236.121
 113909820.164 8  88761004.02446  21676301.930                    21676308.637
 117846926.997 7  91828862.30445  22425531.508                    22425540.781
 11  7 27  0 29  0.0000000  0  8G04G12G09G10G17G28G02G27
 104597155.950 8  81504408.19146  19904155.922                    19904164.359
 127188461.789 6                  24203164.594
 115945462.635 7  90347145.75645  22063680.984                    22063689.543
 119341514.712 7  92993512.49644  22709938.781                    22709949.160
 113965109.841 8                  21686816.938
 117556306.696 7  91602405.65245  22370214.148                    22370222.797
 113845228.097 8  88710672.59446  21664010.492                    21664017.539
 117859603.510 7  91838740.10145  22427943.625                    22427952.988
 11  7 27  0 29 30.0000000  0  8G04G12G09G10G17G28G02G27
 104609625.193 8  81514124.49346  19906529.063                    19906537.586
 127091550.519 6                  24184722.547
 115949042.622 7  90349935.34945  22064361.953                    22064370.488
 119253524.639 7  92924948.86844  22693195.211                    22693205.105
 114000565.922 8                  21693564.242
 117624908.966 7  91655861.91945  22383268.523                    22383277.492
 113780978.688 8  88660608.16246  21651784.164                    21651791.199
 117872746.092 7  91848981.05645  22430444.313                    22430453.965
 11  7 27  0 30  0.0000000  0  8G04G12G09G10G17G28G02G27
 104622627.259 8  81524255.97546  19909003.063                    19909011.582
 126994660.066 7                  24166285.328
 115953253.122 7  90353216.23745  22065163.281                    22065171.867
 119165737.686 7  92856543.52844  22676489.922                    22676499.910
 114036108.612 7                  21700327.664
 117693867.765 7  91709595.98844  22396391.664                    22396400.508
 113717073.507 8  88610811.96146  21639623.516                    21639630.648
 117886353.967 7  91859584.58145  22433034.023                    22433043.656
 11  7 27  0 30 30.0000000  0  8G04G12G09G10G17G28G02G27
 104636160.096 8  81534801.04846  19911578.195                    19911586.586
 126897791.831 7                  24147851.969
 115958093.108 7  90356987.64145  22066084.430                    22066092.449
 119078156.651 7  92788298.63844  22659823.547                    22659833.828
 114071737.988 8                  21707107.250
 117763182.241 7  91763607.19845  22409581.000                    22409590.188
 113653512.849 8  88561284.23146  21627528.344                    21627535.031
 117900425.697 7  91870549.55545  22435712.195                    22435720.887
 11  7 27  0 31  0.0000000  0  8G04G12G09G10G17G28G02G27
 104650222.951 8  81545759.12246  19914254.039                    19914262.855
 126800948.044 7                  24129423.352
 115963561.870 7  90361249.00845  22067124.898                    22067133.734
 118990785.260 7  92720217.09544  22643196.953                    22643206.746
 114107453.980 8                  21713904.398
 117832851.650 7  91817895.01044  22422839.406                    22422848.117
 113590297.950 8  88512025.90746  21615498.992                    21615505.660
 117914960.466 7  91881875.33245  22438477.391                    22438487.063
 11  7 27  0 31 30.0000000  0  8G04G12G09G10G17G28G02G27
 104664813.878 8  81557128.67846  19917030.766                    19917039.363
 126704130.524 7                  24110999.789
 115969658.136 7  90365999.32045  22068284.953                    22068293.863
 118903626.615 7  92652301.32744  22626611.242                    22626621.531
 114143256.603 8                  21720717.188
 117902875.184 7  91872458.75444  22436163.758                    22436173.066
 113527429.141 8  88463037.27446  21603535.109                    21603541.746
 117929956.979 7  91893560.92045  22441331.531                    22441340.941
 11  7 27  0 32  0.0000000  0  8G04G12G09G10G17G28G02G27
 104679931.909 8  81568908.97146  19919907.445                    19919916.352
 126607341.351 7                  24092581.008
 115976381.155 7  90371238.01645  22069564.125                    22069572.988
 118816684.153 7  92584554.00644  22610066.711                    22610076.887
 114179145.955 8                  21727546.992
 117973252.310 7  91927298.03144  22449556.563                    22449565.441
 113464907.224 8  88414318.95046  21591637.531                    21591644.445
 117945414.331 7  91905605.59745  22444273.195                    22444282.625
 11  7 27  0 32 30.0000000  0  8G04G12G09G10G17G28G02G27
 104695575.250 8  81581098.58446  19922884.734                    19922893.199
 126510582.153 7                  24074168.133
 115983729.728 7  90376964.15745  22070962.695                    22070971.117
 118729961.122 7  92516977.68944  22593563.813                    22593573.789
 114215122.179 8                  21734392.875
 118043982.087 7  91982412.08945  22463016.180                    22463025.063
 113402732.980 8  88365871.52946  21579806.250                    21579813.164
 117961331.301 7  91918008.41145  22447302.109                    22447311.590
 11  7 27  0 33  0.0000000  0  8G04G12G09G10G17G28G02G27
 104711742.523 8  81593696.46446  19925961.211                    19925969.965
 126413854.808 7                  24055761.391
 115991703.072 7  90383177.13945  22072479.641                    22072488.602
 118643460.980 7  92449575.02844  22577102.984                    22577113.254
 114251185.289 7                  21741255.219
 118115063.838 7  92037800.43344  22476541.648                    22476551.145
 113340907.044 8  88317695.52346  21568040.945                    21568047.770
 117977706.634 8  91930768.39445  22450418.203                    22450427.785
 11  7 27  0 33 30.0000000  0  8G04G12G09G10G17G28G02G27
 104728432.290 8  81606701.48146  19929137.148                    19929145.754
 126317161.439 7                  24037361.117
 116000300.242 7  90389876.21845  22074116.125                    22074124.559
 118557186.990 7  92382348.60844  22560686.383                    22560695.980
 114287335.201 8                  21748134.766
 118186496.773 7  92093462.42545  22490135.875                    22490144.516
 113279430.413 8  88269791.69646  21556342.297                    21556349.418
 117994539.129 7  91943884.61145  22453621.305                    22453630.977
 11  7 27  0 34  0.0000000  0  8G04G12G09G10G17G28G02G27
 104745643.247 8  81620112.61846  19932412.172                    19932420.801
 126220503.844 7                  24018968.258
 116009520.318 7  90397060.67645  22075870.313                    22075879.598
 118471142.735 7  92315301.18944  22544311.852                    22544321.840
 114323572.251 8                  21755030.094
 118258280.074 7  92149397.40844  22503796.289                    22503804.090
 113218303.722 8  88222160.54946  21544710.547                    21544717.809
 118011827.577 8  91957356.10445  22456911.102                    22456921.230
 11  7 27  0 34 30.0000000  0  8G04G12G09G10G17G28G02G27
 104763373.939 8  81633928.74346  19935785.984                    19935794.738
 126123884.067 6                  24000581.477
 116019361.772 7  90404729.33745  22077743.070                    22077751.906
 118385331.562 7  92248435.39244  22527982.805                    22527992.621
 114359896.611 8                  21761942.289
 118330413.065 7  92205604.91344  22517521.867                    22517530.367
 113157527.786 8  88174802.71646  21533145.039                    21533151.859
 118029570.875 7  91971182.01945  22460287.563                    22460297.277
 11  7 27  0 35  0.0000000  0  8G04G12G09G10G17G28G02G27
 104781622.973 8  81648148.77046  19939258.672                    19939267.383
 126027304.207 7                  23982202.891
 116029823.975 7  90412881.68945  22079733.891                    22079742.984
 118299756.698 7  92181753.74044  22511698.523                    22511708.402
 114396308.195 8                  21768871.352
 118402894.983 7  92262084.29444  22531314.359                    22531323.648
 113097103.505 8  88127718.89446  21521646.680                    21521653.633
 118047768.016 7  91985361.59945  22463750.414                    22463760.637
 11  7 27  0 35 30.0000000  0  8G04G12G09G10G17G28G02G27
 104800388.020 8  81662770.87946  19942829.406                    19942838.063
 125930765.994 7                  23963832.883
 116040905.200 7  90421516.39945  22081842.570                    22081851.324
 118214421.003 7  92115258.46544  22495459.555                    22495469.590
 114432806.431 8                  21775816.781
 118475724.600 7  92318834.59144  22545174.172                    22545182.961
 113037030.579 8  88080908.85646  21510215.344                    21510222.270
 118066417.106 7  91999893.34745  22467298.844                    22467308.777
 11  7 27  0 36  0.0000000  0  8G04G12G09G10G17G28G02G27
 104819668.170 8  81677794.37546  19946498.539                    19946507.367
 125834271.517 7                  23945470.031
 116052604.842 7  90430632.99145  22084068.891                    22084077.586
 118129328.352 7  92048952.56344  22479266.789                    22479276.563
 114469392.165 8                  21782779.078
 118548901.161 7  92375855.24944  22559099.203                    22559108.184
 112977310.414 8  88034373.70046  21498850.500                    21498857.563
 118085517.243 7  92014776.54245  22470933.891                    22470943.797
 11  7 27  0 36 30.0000000  0  8G04G12G09G10G17G28G02G27
 104839461.605 8  81693217.82546  19950265.195                    19950273.824
 125737822.798 6                  23927116.547
 116064921.459 7  90440230.34345  22086412.828                    22086421.730
 118044481.726 7  91982838.36745  22463121.195                    22463131.059
 114506065.296 8                  21789757.516
 118622423.852 7  92433145.59544  22573090.133                    22573098.875
 112917943.692 8  87988113.94846  21487553.547                    21487560.699
 118105066.918 7  92030010.03145  22474653.641                    22474663.488
 11  7 27  0 37  0.0000000  0  8G04G12G09G10G17G28G02G27
 104859767.408 8  81709040.53446  19954129.070                    19954137.824
 125641421.880 6                  23908771.805
 116077854.114 7  90450307.73045  22088873.797                    22088882.691
 117959884.952 7  91916918.87645  22447022.688                    22447032.992
 114542826.358 8                  21796752.875
 118696292.294 7  92490705.38344  22587146.617                    22587155.965
 112858931.409 8  87942130.38146  21476324.063                    21476330.863
 118125065.425 7  92045593.25945  22478459.719                    22478469.449
 11  7 27  0 37 30.0000000  0  8G04G12G09G10G17G28G02G27
 104880583.418 8  81725260.79846  19958090.328                    19958099.219
 125545070.586 6                  23890437.133
 116091401.295 8  90460863.96145  22091451.852                    22091460.547
 117875541.206 7  91851196.53545  22430972.094                    22430982.684
 114579675.172 8                  21803764.859
 118770505.174 7  92548533.50744  22601269.320                    22601277.734
 112800273.675 8  87896423.08846  21465161.828                    21465168.473
 118145511.143 7  92061524.98145  22482350.164                    22482359.969
 11  7 27  0 38  0.0000000  0  8G04G12G09G10G17G28G02G27
 104901908.035 8  81741877.38746  19962148.406                    19962157.023
 125448771.413 7                  23872111.938
 116105561.321 8  90471897.74745  22094146.656                    22094155.113
 117791453.547 7  91785673.75345  22414971.367                    22414981.316
 114616611.954 8                  21810793.859
 118845061.274 7  92606629.14244  22615456.070                    22615465.656
 112741971.118 8  87850992.54546  21454067.172                    21454074.031
 118166402.528 7  92077803.96645  22486326.023                    22486335.246
 11  7 27  0 38 30.0000000  0  8G04G12G09G10G17G28G02G27
 104923739.427 8  81758888.85446  19966302.602                    19966311.316
 125352525.872 7                  23853797.148
 116120333.083 7  90483408.21545  22096957.688                    22096966.137
 117707625.430 7  91720353.19945  22399019.133                    22399029.035
 114653636.159 8                  21817839.211
 118919960.002 7  92664991.69444  22629709.813                    22629718.273
 112684024.464 8  87805839.32746  21443039.945                    21443046.855
 118187738.159 7  92094429.12445  22490386.516                    22490395.434
 11  7 27  0 39  0.0000000  0  8G04G12G09G10G17G28G02G27
 104946076.542 8  81776294.40446  19970553.242                    19970561.680
 125256336.231 6                  23835492.625
 116135715.736 8  90495394.68945  22099884.789                    22099893.516
 117624060.517 7  91655237.74645  22383117.266                    22383127.230
 114690748.757 8                  21824901.648
 118995200.431 7  92723620.57044  22644027.055                    22644036.613
 112626434.665 8  87760964.18646  21432081.188                    21432087.770
 118209516.866 7  92111399.52745  22494530.492                    22494539.438
 11  7 27  0 39 30.0000000  0  8G04G12G09G10G17G28G02G27
 104968917.495 8  81794092.54046  19974899.469                    19974908.723
 125160204.578 7                  23817198.711
 116151707.560 7  90507855.83845  22102928.383                    22102936.465
 117540761.852 7  91590329.74945  22367266.016                    22367275.871
 114727949.363 8                  21831980.820
 119070781.617 7  92782514.89744  22658410.531                    22658419.500
 112569201.904 8  87716367.25246  21421190.336                    21421197.457
 118231737.050 7  92128713.94045  22498758.438                    22498768.293
 11  7 27  0 40  0.0000000  0  8G04G12G09G10G17G28G02G27
 104992260.262 8  81812281.70846  19979341.953                    19979350.133
 125064132.686 7                  23798917.453
 116168307.126 8  90520790.56545  22106087.102                    22106095.719
 117457732.721 7  91525631.78845  22351465.875                    22351476.375
 114765238.378 7                  21839076.305
 119146702.560 7  92841674.03644  22672856.828                    22672866.586
 112512326.501 8  87672048.77246  21410367.070                    21410374.227
 118254397.180 7  92146371.16645  22503070.773                    22503080.828
 11  7 27  0 40 30.0000000  0  8G04G12G09G10G17G28G02G27
 105016103.041 8  81830860.49846  19983878.977                    19983887.191
 124968122.622 7                  23780647.914
 116185512.597 7  90534197.41845  22109360.992                    22109370.246
 117374976.264 7  91461146.28845  22335717.891                    22335728.375
 114802615.766 7                  21846189.617
 119222962.119 7  92901096.96944  22687369.289                    22687378.410
 112455808.950 8  87628009.14446  21399612.039                    21399619.180
 118277495.654 7  92164369.93945  22507466.117                    22507476.102
 11  7 27  0 41  0.0000000  0  8G04G12G09G10G17G28G02G27
 105040444.234 8  81849827.65946  19988510.766                    19988519.602
 124872176.852 7                  23762389.539
 116203322.768 7  90548075.46945  22112749.477                    22112758.867
 117292495.458 7  91396875.59345  22320022.539                    22320032.598
 114840081.419 8                  21853319.031
 119299559.303 7  92960783.04344  22701945.367                    22701954.391
 112399650.126 8  87584249.04646  21388925.188                    21388932.098
 118301031.042 7  92182709.18145  22511945.289                    22511954.855
 11  7 27  0 41 30.0000000  0  8G04G12G09G10G17G28G02G27
 105065282.801 8  81869182.38246  19993237.320                    19993245.805
 124776297.023 6                  23744143.703
 116221736.983 7  90562424.19945  22116254.273                    22116263.285
 117210294.530 7  91332822.96945  22304380.070                    22304389.871
 114877636.319 7                  21860465.383
 119376493.592 7  93020731.76144  22716585.711                    22716594.402
 112343851.044 8  87540769.26646  21378307.070                    21378314.250
 118325002.785 7  92201388.41945  22516506.648                    22516516.793
 11  7 27  0 42  0.0000000  0  8G04G12G09G10G17G28G02G27
 105090616.769 8  81888923.13146  19998058.172                    19998067.117
 124680485.598 6                  23725911.180
 116240753.112 7  90577241.96145  22119872.867                    22119881.961
 117128376.531 7  91268990.82144  22288791.039                    22288801.059
 114915280.236 8                  21867628.492
 119453763.624 7  93080942.11744  22731289.578                    22731298.570
 112288411.530 8  87497569.66346  21367757.539                    21367764.105
 118349408.847 7  92220406.10045  22521150.906                    22521160.723
 11  7 27  0 42 30.0000000  0  8G04G12G09G10G17G28G02G27
 105116443.960 8  81909048.21446  20002973.234                    20002981.941
 124584744.583 7                  23707692.648
 116260369.216 7  90592527.23045  22123605.680                    22123614.816
 117046744.759 7  91205381.69445  22273257.742                    22273267.707
 114953013.172 8                  21874808.961
 119531368.228 7  93141413.17444  22746056.758                    22746066.316
 112233332.268 8  87454650.78546  21357276.383                    21357283.086
 118374247.348 7  92239760.74445  22525877.578                    22525887.699
 11  7 27  0 43  0.0000000  0  8G04G12G09G10G17G28G02G27
 105142762.472 8  81929556.14546  20007981.297                    20007989.969
 124489075.935 7                  23689487.945
 116280583.974 7  90608278.97045  22127451.945                    22127461.445
 116965402.033 7  91141997.81245  22257778.102                    22257788.293
 114990835.406 7                  21882005.977
 119609306.378 7  93202144.14044  22760888.547                    22760896.801
 112178613.557 8  87412012.85046  21346863.109                    21346870.180
 118399516.692 7  92259451.12045  22530686.563                    22530696.348
 11  7 27  0 43 30.0000000  0  8G04G12G09G10G17G28G02G27
 105169571.116 8  81950446.00346  20013082.820                    20013091.547
 124393481.997 6                  23671296.078
 116301396.108 7  90624496.21345  22131412.375                    22131421.719
 116884352.087 7  91078842.05945  22242355.016                    22242364.621
 115028747.410 8                  21889221.180
 119687577.134 7  93263134.28144  22775783.063                    22775791.680
 112124256.374 8  87369656.62846  21336519.703                    21336526.762
 118425215.784 7  92279476.36245  22535576.422                    22535585.945
 11  7 27  0 44  0.0000000  0  8G04G12G09G10G17G28G02G27
 105196867.607 8  81971715.99846  20018277.070                    20018285.867
 124297964.579 6                  23653119.711
 116322803.741 7  90641177.46945  22135485.906                    22135495.598
 116803598.123 7  91015916.93345  22226988.172                    22226997.984
 115066749.253 7                  21896451.922
 119766179.279 7  93324382.66744  22790739.453                    22790749.293
 112070260.684 8  87327582.08646  21326244.461                    21326251.383
 118451342.806 7  92299835.05345  22540549.000                    22540558.301
 11  7 27  0 44 30.0000000  0  8G04G12G09G10G17G28G02G27
 105224650.770 8  81993365.21146  20023564.469                    20023572.910
 124202526.379 7                  23634959.203
 116344805.448 7  90658321.63045  22139672.867                    22139682.891
 116723143.631 7  90953225.18245  22211677.859                    22211687.547
 115104840.830 7                  21903701.180
 119845112.004 7  93385888.63544  22805759.938                    22805769.496
 112016627.272 8  87285789.84546  21316038.375                    21316045.336
 118477896.391 7  92320526.15045  22545601.578                    22545610.613
 11  7 27  0 45  0.0000000  0  8G04G12G09G10G17G28G02G27
 105252918.036 8  82015391.65446  20028943.070                    20028951.711
 124107169.023 7                  23616813.195
 116367399.157 7  90675927.09845  22143972.531                    22143981.949
 116642991.691 7  90890769.18245  22196425.086                    22196435.203
 115143022.508 8                  21910966.688
 119924373.835 7  93447651.01844  22820843.766                    22820853.191
 111963356.587 8  87244280.24946  21305901.305                    21305908.105
 118504874.507 7  92341548.05145  22550735.289                    22550744.285
 11  7 27  0 45 30.0000000  0  8G04G12G09G10G17G28G02G27
 105281667.748 8  82037794.02446  20034414.172                    20034422.570
 124011894.706 7                  23598683.500
 116390583.447 7  90693992.77045  22148383.828                    22148393.637
 116563145.442 7  90828551.36545  22181231.227                    22181241.238
 115181294.464 7                  21918249.703
 120003963.694 7  93509669.05144  22835988.805                    22835998.262
 111910448.664 8  87203053.32446  21295832.969                    21295839.887
 118532275.767 7  92362899.66345  22555949.641                    22555959.152
 11  7 27  0 46  0.0000000  0  8G04G12G09G10G17G28G02G27
 105310898.226 8  82060571.01846  20039976.664                    20039985.512
 123916705.708 7                  23580568.031
 116414356.654 7  90712517.32745  22152907.703                    22152917.711
 116483608.194 7  90766574.35545  22166095.797                    22166105.191
 115219657.029 8                  21925549.633
 120083880.608 7  93571941.90344  22851196.766                    22851205.609
 111857904.190 8  87162109.61346  21285834.352                    21285841.211
 118560098.464 7  92384579.66745  22561244.336                    22561253.793
 11  7 27  0 46 30.0000000  0  8G04G12G09G10G17G28G02G27
 105340607.763 8  82083721.30146  20045630.023                    20045638.531
 123821604.325 7                  23562471.867
 116438716.939 7  90731499.34845  22157543.250                    22157553.074
 116404383.655 7  90704841.00245  22151020.602                    22151029.961
 115258110.390 8                  21932867.336
 120164123.532 7  93634468.79744  22866466.609                    22866475.645
 111805723.711 8  87121449.52446  21275905.063                    21275911.969
 118588340.825 7  92406586.68245  22566618.328                    22566628.543
 11  7 27  0 47  0.0000000  0  8G04G12G09G10G17G28G02G27
 105370793.942 8  82107242.99746  20051374.164                    20051382.973
 123726592.409 7                  23544392.656
 116463662.124 7  90750937.12645  22162290.648                    22162300.016
 116325474.591 7  90643353.47345  22136003.711                    22136013.590
 115296654.603 8                  21940201.820
 120244691.221 7  93697248.75444  22881798.094                    22881807.883
 111753907.236 8  87081073.08746  21266044.148                    21266051.441
 118617000.856 7  92428919.14745  22572072.445                    22572082.508
 11  7 27  0 47 30.0000000  0  8G04G12G09G10G17G28G02G27
 105401454.992 8  82131134.72646  20057209.156                    20057217.406
 123631672.042 7                  23526329.258
 116489190.748 7  90770829.54145  22167148.258                    22167158.410
 116246884.441 7  90582114.45345  22121048.656                    22121058.824
 115335289.938 7                  21947554.109
 120325582.548 7  93760280.87544  22897191.273                    22897201.047
 111702455.185 8  87040980.60746  21256253.367                    21256260.168
 118646077.059 7  92451575.91045  22577605.586                    22577615.195
 11  7 27  0 48  0.0000000  0  8G04G12G09G10G17G28G02G27
 105432589.233 8  82155395.16946  20063133.391                    20063141.996
 123536845.766 7                  23508283.563
 116515301.229 7  90791175.34445  22172116.945                    22172127.188
 116168616.519 7  90521126.51645  22106154.836                    22106164.379
 115374016.978 8                  21954923.695
 120406795.988 7  93823564.01744  22912646.156                    22912655.605
 111651368.322 8  87001172.69546  21246531.922                    21246538.660
 118675568.264 7  92474556.05245  22583217.758                    22583227.316
 11  7 27  0 48 30.0000000  0  8G04G12G09G10G17G28G02G27
 105464195.081 8  82180023.10246  20069148.031                    20069156.598
 123442115.995 7                  23490257.367
 116541991.503 7  90811972.93345  22177196.141                    22177205.711
 116090674.157 7  90460392.26145  22091322.664                    22091332.543
 115412835.899 8                  21962310.727
 120488330.833 7  93887097.61744  22928160.945                    22928170.871
 111600647.074 8  86961649.67046  21236880.234                    21236886.707
 118705472.781 7  92497858.25845  22588908.438                    22588918.344
 11  7 27  0 49  0.0000000  0  8G04G12G09G10G17G28G02G27
 105496269.867 8  82205016.43846  20075251.336                    20075260.410
 123347484.651 7                  23472250.625
 116569259.305 7  90833220.55245  22182385.422                    22182394.828
 116013060.452 7  90399914.09445  22076553.258                    22076563.195
 115451746.419 8                  21969714.609
 120570185.249 7  93950880.20144  22943738.141                    22943747.430
 111550291.069 8  86922411.26146  21227297.766                    21227303.973
 118735788.370 7  92521480.76945  22594676.984                    22594686.727
 11  7 27  0 49 30.0000000  0  8G04G12G09G10G17G28G02G27
 105528812.056 8  82230373.99146  20081444.227                    20081452.844
 123252953.814 7                  23454261.547
 116597103.037 7  90854916.95345  22187683.664                    22187693.367
 115935778.928 7  90339694.78145  22061847.125                    22061856.387
 115490749.375 7                  21977137.023
 120652358.538 7  94014911.28344  22959375.172                    22959384.559
 111500301.201 8  86883458.13946  21217784.602                    21217791.527
 118766513.432 7  92545422.36345  22600523.828                    22600533.832
 11  7 27  0 50  0.0000000  0  8G04G12G09G10G17G28G02G27
 105561819.602 8  82256094.15346  20087725.617                    20087733.934
 123158525.601 6                  23436290.859
 116625520.865 7  90877060.68245  22193090.945                    22193100.934
 115858832.692 7  90279736.72345  22047204.625                    22047214.438
 115529844.864 7                  21984576.305
 120734849.299 7  94079189.74344  22975072.703                    22975082.234
 111450677.454 8  86844790.31846  21208341.602                    21208348.453
 118797646.013 7  92569681.50444  22606447.875                    22606457.469
 11  7 27  0 50 30.0000000  0  8G04G12G09G10G17G28G02G27
 105595290.350 8  82282175.25646  20094094.617                    20094103.086
 123064202.425 7                  23418342.852
 116654510.728 7  90899650.17245  22198608.195                    22198617.445
 115782224.462 7  90220042.03745  22032626.844                    22032636.320
 115569033.090 7                  21992033.805
 120817656.095 7  94143714.45044  22990830.055                    22990839.871
 111401419.980 8  86806407.89946  21198968.281                    21198974.719
 118829184.364 7  92594256.83744  22612449.477                    22612458.840
 11  7 27  0 51  0.0000000  0  8G04G12G09G10G17G28G02G27
 105629222.248 8  82308615.69246  20100551.883                    20100560.223
 122969986.915 7                  23400414.484
 116684070.188 7  90922683.50145  22204233.031                    22204242.313
 115705957.744 7  90160613.47345  22018113.547                    22018123.418
 115608313.954 7                  21999509.289
 120900777.583 7  94208484.40244  23006648.461                    23006657.168
 111352529.162 8  86768311.18046  21189664.258                    21189671.215
 118861126.462 7  92619146.76645  22618527.578                    22618537.078
 11  7 27  0 51 30.0000000  0  8G04G12G09G10G17G28G02G27
 105663613.787 8  82335414.29846  20107096.055                    20107104.859
 122875880.802 7                  23382506.039
 116714197.803 7  90946159.54945  22209966.352                    22209975.414
 115630035.907 7  90101453.64445  22003666.063                    22003675.641
 115647688.540 7                  22007001.563
 120984213.038 7  94273499.00444  23022525.078                    23022534.410
 111304005.672 8  86730500.69746  21180430.695                    21180437.094
 118893470.947 7  92644350.23245  22624682.867                    22624692.457
 11  7 27  0 52  0.0000000  0  8G04G12G09G10G17G28G02G27
 105698462.985 8  82362569.51246  20113727.461                    20113736.168
 122781886.639 6                  23364619.313
 116744891.380 7  90970076.62245  22215806.984                    22215815.711
 115554462.519 7  90042565.34745  21989284.617                    21989294.707
 115687156.994 7                  22014511.969
 121067960.961 7  94338757.07744  23038461.602                    23038471.430
 111255849.756 8  86692976.63746  21171267.055                    21171273.410
 118926215.921 7  92669865.76945  22630914.320                    22630923.492
 11  7 27  0 52 30.0000000  0  9G04G12G09G10G17G05G28G02G27
 105733767.502 8  82390079.53046  20120446.188                    20120454.457
 122688006.444 7                  23346754.930
 116776149.132 7  90994433.30745  22221755.195                    22221763.973
 115479240.191 7  89983950.58545  21974970.250                    21974979.945
 115726719.047 7                  22022040.492
 129658478.04316                  24673190.398
 121152019.899 7  94404257.46344  23054458.500                    23054467.051
 111208061.468 8  86655739.03746  21162173.477                    21162180.141
 118959359.304 7  92695691.75745  22637221.227                    22637230.434
 11  7 27  0 53  0.0000000  0  9G04G12G09G10G17G05G28G02G27
 105769524.868 8  82417942.41146  20127250.297                    20127259.094
 122594242.335 7                  23328912.164
 116807968.215 7  91019227.39045  22227810.547                    22227819.207
 115404371.814 7  89925611.63945  21960723.195                    21960733.121
 115766374.743 7                  22029586.867
 129553608.130 6                  24653234.031
 121236388.188 7  94469998.91444  23070512.711                    23070522.055
 111160640.328 8  86618787.52446  21153149.266                    21153155.645
 118992898.636 7  92721826.25845  22643603.461                    22643613.324
 11  7 27  0 53 30.0000000  0  9G04G12G09G10G17G05G28G02G27
 105805733.400 8  82446156.84946  20134140.672                    20134149.473
 122500596.881 6                  23311091.844
 116840347.069 7  91044457.66645  22233972.023                    22233980.809
 115329861.366 7  89867551.59245  21946544.586                    21946554.465
 115806124.979 7                  22037151.008
 129448653.030 6                  24633261.477
 121321064.804 7  94535980.67744  23086626.117                    23086635.273
 111113587.366 8  86582122.90246  21144195.430                    21144202.059
 119026832.702 7  92748268.35645  22650060.805                    22650070.891
 11  7 27  0 54  0.0000000  0  9G04G12G09G10G17G05G28G02G27
 105842391.767 8  82474721.80446  20141116.148                    20141124.828
 122407072.521 7                  23293294.711
 116873283.599 7  91070122.48045  22240239.758                    22240248.191
 115255712.040 7  89809772.95445  21932434.531                    21932443.988
 115845970.381 7                  22044733.469
 129343615.182 7                  24613273.688
 121406048.731 7  94602201.88144  23102797.672                    23102806.898
 111066902.719 8  86545745.27546  21135311.438                    21135318.375
 119061159.831 7  92775016.73145  22656593.086                    22656603.012
 11  7 27  0 54 30.0000000  0  9G04G12G09G10G17G05G28G02G27
 105879497.307 8  82503635.21146  20148177.375                    20148185.809
 122313671.475 7                  23275521.203
 116906775.750 7  91096220.25445  22246612.891                    22246621.789
 115181926.553 7  89752277.82845  21918393.250                    21918403.035
 115885910.931 8                  22052333.922
 129238496.916 7                  24593270.344
 121491338.642 7  94668661.48943  23119027.125                    23119037.449
 111020586.834 8  86509655.00046  21126497.703                    21126504.641
 119095877.789 7  92802069.64045  22663199.906                    22663209.941
 11  7 27  0 55  0.0000000  0  9G04G12G09G10G17G05G28G02G27
 105917047.959 8  82532895.45646  20155323.094                    20155331.660
 122220396.087 7                  23257771.969
 116940821.272 7  91122749.22145  22253091.156                    22253100.266
 115108508.287 7  89695068.83645  21904422.352                    21904431.785
 115925946.926 8                  22059952.563
 129133300.850 6                  24573251.406
 121576932.725 7  94735358.09243  23135316.250                    23135325.672
 110974639.552 8  86473851.94846  21117754.406                    21117761.004
 119130984.622 7  92829425.56145  22669880.523                    22669890.125
 11  7 27  0 55 30.0000000  0  9G04G12G09G10G17G05G28G02G27
 105955041.638 8  82562500.91346  20162552.875                    20162561.410
 122127248.567 7                  23240045.813
 116975417.584 7  91149707.35845  22259674.656                    22259684.168
 115035460.245 7  89638148.32645  21890521.242                    21890530.977
 115966078.590 8                  22067589.297
 129028029.598 6                  24553218.516
 121662829.718 7  94802290.72944  23151662.203                    23151671.230
 110929060.890 8  86438336.12446  21109080.852                    21109087.656
 119166478.536 7  92857083.11445  22676635.125                    22676644.531
 11  7 27  0 56  0.0000000  0  9G04G12G09G10G17G05G28G02G27
 105993476.447 8  82592450.11046  20169866.836                    20169875.492
 122034231.201 7                  23222345.211
 117010562.957 7  91177093.35345  22266362.234                    22266372.547
 114962785.699 7  89581518.86645  21876691.953                    21876701.609
 116006306.427 8                  22075244.352
 128922686.115 6                  24533171.445
 121749028.279 7  94869458.42843  23168065.180                    23168074.180
 110883851.132 8  86403107.76546  21100477.914                    21100484.848
 119202357.539 7  92885040.73545  22683462.336                    22683472.082
 11  7 27  0 56 30.0000000  0  9G04G12G09G10G17G05G28G02G27
 106032350.358 8  82622741.46546  20177264.195                    20177272.738
 121941346.402 7                  23204670.141
 117046255.144 7  91204905.41845  22273154.172                    22273164.313
 114890488.146 7  89525183.13545  21862934.430                    21862943.340
 116046630.918 7                  22082918.016
 128817272.964 6                  24513112.281
 121835527.311 6  94936860.21643  23184524.930                    23184534.188
 110839010.924 8  86368167.36246  21091945.102                    21091951.762
 119238619.892 7  92913297.07745  22690363.063                    22690372.613
 11  7 27  0 57  0.0000000  0  9G04G12G09G10G17G05G28G02G27
 106071660.936 8  82653373.07646  20184744.813                    20184753.797
 121848596.434 7                  23187019.906
 117082491.600 7  91233141.59845  22280050.242                    22280060.090
 114818570.405 7  89469143.38145  21849248.695                    21849258.121
 116087052.417 8                  22090609.938
 128711792.247 6                  24493040.375
 121922324.929 7  95004494.69743  23201041.789                    23201051.820
 110794539.811 8  86333514.56946  21083482.727                    21083489.145
 119275263.060 7  92941850.15745  22697335.867                    22697345.578
 11  7 27  0 57 30.0000000  0  9G04G12G09G10G17G05G28G02G27
 106111406.142 8  82684343.35546  20192308.008                    20192316.680
 121755983.595 7                  23169396.297
 117119270.257 7  91261800.25445  22287049.070                    22287058.391
 114747035.583 7  89413402.01445  21835636.180                    21835645.648
 116127570.837 7                  22098320.797
 128606246.858 6                  24472955.469
 122009420.119 7  95072360.95144  23217616.031                    23217626.074
 110750438.407 8  86299149.86546  21075090.055                    21075097.168
 119312285.314 7  92970698.61345  22704381.117                    22704390.785
 11  7 27  0 58  0.0000000  0  9G04G12G09G10G17G05G28G02G27
 106151583.941 8  82715650.72746  20199953.766                    20199962.379
 121663510.309 7                  23151799.609
 117156588.509 7  91290879.38645  22294150.609                    22294160.352
 114675886.613 7  89357961.29745  21822097.125                    21822106.199
 116168186.602 7                  22106049.742
 128500639.214 6                  24452858.945
 122096811.294 7  95140457.93844  23234245.969                    23234255.988
 110706706.187 8  86265072.83446  21066768.359                    21066775.105
 119349684.414 7  92999840.72345  22711497.867                    22711507.637
 11  7 27  0 58 30.0000000  0  9G04G12G09G10G17G05G28G02G27
 106192192.185 8  82747293.50746  20207681.117                    20207689.898
 121571178.978 7                  23134229.672
 117194444.184 7  91320377.28445  22301354.078                    22301363.730
 114605126.768 7  89302823.78845  21808631.625                    21808641.266
 116208900.189 8                  22113796.695
 128394972.156 6                  24432750.891
 122184496.672 7  95208784.16244  23250931.961                    23250941.176
 110663343.436 8  86231283.71346  21058516.461                    21058523.223
 119387458.483 7  93029275.00844  22718686.031                    22718696.387
 11  7 27  0 59  0.0000000  0  9G04G12G09G10G17G05G28G02G27
 106233228.534 8  82779269.88546  20215490.492                    20215498.859
 121478991.780 7                  23116686.570
 117232834.884 7  91350292.09145  22308659.758                    22308669.613
 114534758.751 7  89247991.60745  21795241.102                    21795250.332
 116249711.861 7                  22121563.508
 128289248.206 6                  24412631.750
 122272474.944 7  95277338.61943  23267673.328                    23267683.008
 110620350.349 8  86197782.63146  21050335.063                    21050341.820
 119425605.270 7  93058999.70845  22725944.719                    22725955.629
 11  7 27  0 59 30.0000000  0  9G04G12G09G10G17G05G28G02G27
 106274690.977 8  82811578.27246  20223380.117                    20223389.012
 121386950.996 7                  23099171.289
 117271758.234 7  91380621.94345  22316067.055                    22316076.461
 114464786.066 7  89193467.48645  21781925.672                    21781934.973
 116290621.891 8                  22129347.984
 128183469.807 6                  24392503.336
 122360744.704 7  95346120.22144  23284470.961                    23284480.227
 110577726.382 8  86164569.17746  21042223.992                    21042230.422
 119464122.797 7  93089013.30545  22733274.750                    22733284.875
 11  7 27  1  0  0.0000000  0  9G04G12G09G10G17G05G28G02G27
 106316577.627 8  82844217.21746  20231350.883                    20231359.648
 121295059.432 7                  23081685.586
 117311212.030 7  91411365.12845  22323574.633                    22323584.074
 114395212.019 7  89139253.97745  21768686.203                    21768695.754
 116331631.193 8                  22137151.953
 128077640.074 6                  24372364.172
 122449304.797 7  95415128.05044  23301323.961                    23301333.336
 110535472.859 8  86131644.38346  21034183.406                    21034190.395
 119503009.174 7  93119314.32144  22740674.898                    22740684.297
 11  7 27  1  0 30.0000000  0  9G04G12G09G10G17G05G28G02G27
 106358885.915 8  82877184.71046  20239402.195                    20239410.641
 121203319.242 7                  23064228.375
 117351193.489 7  91442519.48445  22331182.664                    22331192.422
 114326039.284 7  89085353.18845  21755523.000                    21755532.711
 116372739.412 8                  22144974.711
 127971761.290 7                  24352216.594
 122538153.231 7  95484360.54844  23318230.820                    23318240.746
 110493588.873 8  86099007.53546  21026213.070                    21026219.977
 119542261.895 7  93149900.79444  22748144.391                    22748154.188
 11  7 27  1  1  0.0000000  0  9G04G12G09G10G17G05G28G02G27
 106401613.936 8  82910479.26846  20247532.922                    20247541.563
 121111732.756 7                  23046798.969
 117391700.519 7  91474083.37845  22338890.898                    22338900.262
 114257271.213 7  89031767.72145  21742436.883                    21742446.086
 116413947.455 8                  22152816.281
 127865836.559 6                  24332059.289
 122627288.685 6  95553816.67643  23335192.398                    23335202.398
 110452074.978 8  86066659.07146  21018313.438                    21018319.941
 119581879.276 7  93180771.43444  22755683.406                    22755692.938
 11  7 27  1  1 30.0000000  0  9G04G12G09G10G17G05G28G02G27
 106444759.120 8  82944098.88846  20255743.109                    20255752.027
 121020302.200 7                  23029400.516
 117432730.289 7  91506054.59545  22346698.367                    22346707.516
 114188910.278 7  88978499.51545  21729428.055                    21729437.457
 116455255.472 8                  22160677.031
 127759867.859 6                  24311893.305
 122716709.720 6  95623495.33543  23352208.242                    23352218.137
 110410930.638 8  86034598.57046  21010483.875                    21010490.398
 119621858.834 7  93211924.29844  22763291.445                    22763300.574
 11  7 27  1  2  0.0000000  0  9G04G12G09G10G17G05G28G02G27
 106488319.487 8  82978042.02746  20264032.539                    20264041.375
 120929030.117 7                  23012032.586
 117474280.454 7  91538431.33145  22354605.477                    22354614.406
 114120959.561 7  88925550.94345  21716497.594                    21716507.168
 116496663.606 8                  22168556.891
 127653858.446 6                  24291719.953
 122806414.396 6  95693395.05143  23369279.609                    23369288.949
 110370155.788 8  86002825.99346  21002724.688                    21002731.305
 119662198.456 7  93243357.72644  22770967.766                    22770977.324
 11  7 27  1  2 30.0000000  0  9G04G12G09G10G17G05G28G02G27
 106532293.069 8  83012307.15346  20272400.320                    20272409.125
 120837918.950 7                  22994694.508
 117516348.786 7  91571211.80544  22362610.727                    22362619.902
 114053422.321 7  88872924.56845  21703645.781                    21703655.262
 116538172.754 8                  22176455.719
 127547810.861 6                  24271540.031
 122896401.637 7  95763514.97844  23386403.070                    23386412.430
 110329751.072 8  85971341.82846  20995035.906                    20995042.879
 119702896.390 7  93275070.36644  22778712.672                    22778721.984
 11  7 27  1  3  0.0000000  0  9G04G12G09G10G17G05G28G02G27
 106576677.475 8  83046892.40246  20280846.188                    20280855.195
 120746971.032 7                  22977387.656
 117558932.521 7  91604393.89145  22370714.000                    22370723.371
 113986301.701 7  88820622.83345  21690872.734                    21690882.402
 116579783.139 8                  22184373.828
 127441727.854 6                  24251353.219
 122986669.912 6  95833853.85043  23403580.297                    23403590.633
 110289716.190 8  85940145.84646  20987417.555                    20987424.020
 119743950.271 7  93307060.34444  22786524.234                    22786534.492
 11  7 27  1  3 30.0000000  0  9G04G12G09G10G17G05G28G02G27
 106621470.288 8  83081795.89546  20289370.250                    20289379.000
 120656188.786 7                  22960112.305
 117602028.886 7  91637975.41845  22378915.195                    22378924.871
 113919600.459 7  88768647.88845  21678180.094                    21678189.781
 116621494.996 8                  22192311.297
 127335611.697 6                  24231160.211
 123077217.282 6  95904410.15943  23420810.953                    23420821.543
 110250050.681 8  85909237.68346  20979869.328                    20979876.012
 119785357.625 7  93339325.74745  22794403.820                    22794414.500
 11  7 27  1  4  0.0000000  0  9G04G12G09G10G17G05G28G02G27
 106666669.468 8  83117016.03646  20297971.336                    20297979.938
 120565574.953 7                  22942869.078
 117645635.668 7  91671954.69345  22387213.211                    22387223.160
 113853321.893 7  88717002.30245  21665567.648                    21665576.773
 116663308.543 8                  22200268.070
 127229465.585 6                  24210959.883
 123168042.425 6  95975182.90444  23438094.703                    23438104.922
 110210755.010 8  85878617.71446  20972391.273                    20972398.309
 119827116.543 7  93371865.10244  22802351.125                    22802361.172
 11  7 27  1  4 30.0000000  0  9G04G12G09G10G17G05G28G02G27
 106712273.160 8  83152551.37646  20306649.250                    20306658.164
 120475131.822 7                  22925658.508
 117689750.462 7  91706329.80445  22395607.914                    22395617.887
 113787469.349 7  88665688.68045  21653036.586                    21653046.039
 116705224.915 7                  22208244.570
 127123292.208 6                  24190756.672
 123259143.742 6  96046170.90843  23455431.852                    23455440.609
 110171829.417 8  85848286.09946  20964984.547                    20964990.801
 119869224.924 7  93404676.78444  22810364.000                    22810374.027
 11  7 27  1  5  0.0000000  0  9G04G12G09G10G17G05G28G02G27
 106758278.481 8  83188399.68546  20315403.688                    20315412.719
 120384861.664 7                  22908479.906
 117734370.185 7  91741098.36745  22404099.242                    22404108.945
 113722045.049 7  88614708.75445  21640586.453                    21640595.672
 116747243.878 8                  22216240.523
 127017093.846 6                  24170547.563
 123350519.395 6  96117372.75843  23472818.914                    23472828.113
 110133273.019 8  85818242.18246  20957647.242                    20957653.715
 119911680.190 7  93437758.76745  22818442.852                    22818452.984
 11  7 27  1  5 30.0000000  0  9G04G12G09G10G17G05G28G02G27
 106804683.468 8  83224559.41746  20324234.508                    20324242.949
 120294766.645 7                  22891335.734
 117779492.330 7  91776258.42945  22412685.680                    22412695.465
 113657051.931 7  88564064.82145  21628218.445                    21628227.848
 116789366.134 8                  22224256.250
 126910873.465 6                  24150334.141
 123442168.016 6  96188787.25243  23490258.961                    23490269.012
 110095085.891 8  85788486.00346  20950380.359                    20950386.836
 119954480.214 7  93471109.38244  22826587.320                    22826597.504
 11  7 27  1  6  0.0000000  0  9G04G12G09G10G17G05G28G02G27
 106851485.972 8  83261028.89946  20333140.617                    20333149.820
 120204849.617 7                  22874224.742
 117825114.500 7  91811808.11645  22421367.398                    22421377.133
 113592493.290 7  88513759.43545  21615933.656                    21615943.133
 116831591.809 7                  22232291.500
 126804633.892 6                  24130117.164
 123534088.048 6  96260413.19043  23507751.617                    23507760.965
 110057268.258 8  85759017.73846  20943183.953                    20943190.281
 119997622.934 7  93504727.03944  22834797.180                    22834806.902
 11  7 27  1  6 30.0000000  0  9G04G12G09G10G17G05G28G02G27
 106898683.683 8  83297806.33846  20342122.063                    20342130.617
 120115113.005 7                  22857148.883
 117871233.887 7  91847745.25545  22430143.633                    22430153.691
 113528371.753 7  88463794.64945  21603731.445                    21603740.555
 116873921.346 8                  22240346.195
 126698377.626 6                  24109896.891
 123626277.786 6  96332249.28243  23525294.539                    23525304.578
 110019819.787 8  85729837.12646  20936057.969                    20936064.059
 120041106.241 7  93538610.09544  22843071.695                    22843081.051
 11  7 27  1  7  0.0000000  0  9G04G12G09G10G17G05G28G02G27
 106946274.306 8  83334889.94346  20351178.422                    20351187.359
 120025559.069 7                  22840107.273
 117917847.794 7  91884067.73445  22439013.719                    22439023.574
 113464690.280 7  88414172.77345  21591613.422                    21591622.828
 116916355.380 8                  22248420.852
 126592107.509 6                  24089674.766
 123718735.457 7  96404294.19644  23542888.742                    23542898.875
 109982740.304 8  85700944.04246  20929001.617                    20929008.059
 120084927.531 7  93572756.50444  22851410.180                    22851420.352
 11  7 27  1  7 30.0000000  0  9G04G12G09G10G17G05G28G02G27
 106994255.510 8  83372277.88546  20360308.844                    20360317.449
 119936190.547 7                  22823100.883
 117964953.757 7  91920773.62744  22447977.906                    22447988.145
 113401452.002 7  88364896.23345  21579579.602                    21579588.934
 116958894.501 8                  22256516.141
 126485826.420 7                  24069449.328
 123811459.406 6  96476546.62343  23560533.336                    23560542.824
 109946030.213 8  85672338.79946  20922015.891                    20922022.719
 120129084.731 7  93607164.65644  22859813.156                    22859823.730
 11  7 27  1  8  0.0000000  0  9G04G12G09G10G17G05G28G02G27
 107042625.189 8  83409968.54846  20369513.008                    20369521.816
 119847009.745 7                  22806130.477
 118012548.605 7  91957860.46144  22457034.703                    22457044.590
 113338659.637 7  88315967.16945  21567630.266                    21567639.457
 117001538.885 7                  22264631.063
 126379537.205 7                  24049223.789
 123904447.987 6  96549005.29343  23578228.164                    23578237.902
 109909688.832 8  85644020.86146  20915100.453                    20915106.883
 120173575.371 7  93641832.62644  22868279.375                    22868290.246
 11  7 27  1  8 30.0000000  0  9G04G12G09G10G17G05G28G02G27
 107091381.092 8  83447960.16146  20378791.039                    20378800.176
 119758019.088 7                  22789195.922
 118060629.861 7  91995326.33144  22466184.406                    22466193.688
 113276316.068 7  88267387.81345  21555767.375                    21555776.031
 117044288.858 7                  22272765.852
 126273242.448 7                  24028996.258
 123997699.931 6  96621669.09943  23595973.273                    23595983.438
 109873716.183 8  85615990.24046  20908255.117                    20908261.711
 120218397.390 7  93676758.82244  22876809.477                    22876819.383
 11  7 27  1  9  0.0000000  0  9G04G12G09G10G17G05G28G02G27
 107140520.379 8  83486250.50846  20388141.938                    20388150.672
 119669221.040 7                  22772297.898
 118109194.565 7  92033168.92444  22475425.930                    22475434.668
 113214423.548 7  88219159.91145  21543989.156                    21543998.527
 117087144.808 8                  22280921.102
 126166944.617 7                  24008768.102
 124091212.957 6  96694536.34043  23613769.148                    23613778.633
 109838111.822 8  85588246.60446  20901479.602                    20901486.234
 120263548.202 7  93711941.21344  22885401.773                    22885411.805
 11  7 27  1  9 30.0000000  0  9G04G12G09G10G17G05G28G02G27
 107190041.492 8  83524838.38946  20397565.617                    20397574.410
 119580618.202 7                  22755437.555
 118158240.347 7  92071386.37744  22484758.859                    22484768.449
 113152985.685 7  88171286.29545  21532297.891                    21532306.711
 117130107.383 8                  22289097.125
 126060646.917 6                  23988540.180
 124184985.685 6  96767605.97444  23631613.398                    23631622.996
 109802875.878 8  85560790.03446  20894774.500                    20894781.074
 120309025.610 7  93747378.10844  22894055.500                    22894065.676
 11  7 27  1 10  0.0000000  0  9G04G12G09G10G17G05G28G02G27
 107239942.066 8  83563721.94246  20407061.188                    20407070.082
 119492213.008 7                  22738614.633
 118207764.634 7  92109976.69845  22494183.258                    22494192.656
 113092005.364 7  88123769.20945  21520693.867                    21520702.879
 117173177.317 7                  22297292.719
 125954352.374 7                  23968313.328
 124279016.661 6  96840876.82543  23649506.516                    23649516.645
 109768008.583 8  85533620.72546  20888139.750                    20888145.973
 120354827.632 7  93783067.93644  22902771.125                    22902781.680
 11  7 27  1 10 30.0000000  0  9G04G12G09G10G17G05G28G02G27
 107290219.523 8  83602899.18046  20416629.102                    20416637.852
 119404007.834 7                  22721829.797
 118257763.979 7  92148937.18844  22503698.023                    22503707.574
 113031484.905 7  88076610.45745  21509177.039                    21509186.242
 117216354.830 7                  22305508.836
 125848062.991 7                  23948086.953
 124373303.452 6  96914346.98743  23667449.164                    23667458.918
 109733508.837 8  85506737.82346  20881574.609                    20881581.289
 120400951.388 7  93819008.47244  22911548.164                    22911557.750
 11  7 27  1 11  0.0000000  0  9G04G12G09G10G17G05G28G02G27
 107340871.824 8  83642368.50846  20426267.859                    20426276.625
 119316005.437 7                  22705083.898
 118308235.863 7  92188265.88845  22513302.602                    22513311.961
 112971427.567 7  88029812.57745  21497748.484                    21497757.340
 117259639.986 8                  22313745.875
 125741782.178 7                  23927861.953
 124467844.928 6  96988015.63442  23685438.914                    23685448.898
 109699376.866 8  85480141.50546  20875079.320                    20875085.805
 120447394.773 7  93855198.05944  22920386.008                    22920395.492
 11  7 27  1 11 30.0000000  0  9G04G12G09G10G17G05G28G02G27
 107391896.462 8  83682127.96146  20435977.445                    20435986.234
 119228208.223 7                  22688376.023
 118359177.502 7  92227960.63645  22522996.813                    22523005.992
 112911835.645 7  87983377.36545  21486408.313                    21486417.602
 117303033.541 7                  22322003.523
 125635512.408 6                  23907639.367
 124562639.242 6  97061881.37243  23703478.352                    23703487.398
 109665612.546 8  85453831.67046  20868654.289                    20868660.711
 120494155.311 7  93891634.78144  22929284.281                    22929294.438
 11  7 27  1 12  0.0000000  0  9G04G12G09G10G17G05G28G02G27
 107443291.010 8  83722175.66946  20445757.641                    20445766.316
 119140618.393 7                  22671708.430
 118410585.869 7  92268019.07045  22532779.391                    22532788.895
 112852712.004 7  87937307.04345  21475157.398                    21475166.617
 117346535.983 7                  22330281.602
 125529256.468 6                  23887419.406
 124657684.624 6  97135942.66243  23721564.297                    23721574.355
 109632215.208 8  85427807.79546  20862299.016                    20862305.242
 120541230.447 7  93928316.62444  22938243.367                    22938253.262
 11  7 27  1 12 30.0000000  0  9G04G12G09G10G17G05G28G02G27
 107495053.570 8  83762510.13546  20455607.477                    20455616.113
 119053238.831 7                  22655080.734
 118462458.566 7  92308439.30645  22542650.219                    22542660.227
 112794059.821 7  87891604.08145  21463996.305                    21464005.801
 117390147.811 7                  22338580.805
 125423017.402 6                  23867202.234
 124752979.420 6  97210198.29243  23739698.406                    23739708.750
 109599185.220 8  85402070.16546  20856013.547                    20856020.008
 120588618.147 7  93965242.04144  22947260.578                    22947270.973
 11  7 27  1 13  0.0000000  0  9G04G12G09G10G17G05G28G02G27
 107547181.794 8  83803129.54046  20465527.219                    20465536.000
 118966072.169 7                  22638492.742
 118514792.627 7  92349219.05445  22552608.984                    22552619.383
 112735881.775 7  87846270.59145  21452925.031                    21452934.527
 117433869.443 7                  22346900.695
 125316798.108 7                  23846990.563
 124848521.889 6  97284646.93143  23757880.375                    23757889.543
 109566522.291 8  85376618.55446  20849797.961                    20849804.387
 120636316.315 7  94002409.37044  22956337.023                    22956346.824
 11  7 27  1 13 30.0000000  0  9G04G12G09G10G17G05G28G02G27
 107599672.856 8  83844031.66446  20475515.898                    20475524.621
 118879120.413 7                  22621946.531
 118567584.486 7  92390355.51245  22562655.055                    22562665.082
 112678179.906 7  87801308.15045  21441945.141                    21441954.090
 117477701.206 7                  22355241.555
 125210600.896 7                  23826780.898
 124944309.825 6  97359286.84043  23776107.594                    23776117.602
 109534225.292 8  85351452.08546  20843651.914                    20843658.320
 120684321.719 7  94039816.12644  22965472.008                    22965482.961
 11  7 27  1 14  0.0000000  0  9G04G12G09G10G17G05G28G02G27
 107652524.587 8  83885214.84046  20485573.258                    20485581.699
 118792386.106 7                  22605441.992
 118620831.501 7  92431846.65145  22572787.758                    22572797.082
 112620957.223 8  87756719.09545  21431055.703                    21431065.082
 117521643.542 7                  22363603.961
 125104429.268 6                  23806576.742
 125040341.540 6  97434116.66743  23794382.078                    23794391.750
 109502294.253 8  85326570.77446  20837575.633                    20837582.375
 120732632.256 7  94077460.60444  22974665.109                    22974675.875
 11  7 27  1 14 30.0000000  0  9G04G12G09G10G17G05G28G02G27
 107705735.134 8  83926677.60746  20495698.734                    20495707.438
 118705872.142 7                  22588978.641
 118674531.225 7  92473690.53444  22583006.602                    22583015.953
 112564216.857 7  87712505.87845  21420258.430                    21420267.762
 117565697.243 7                  22371987.398
 124998285.495 6                  23786378.133
 125136615.856 6  97509135.60843  23812702.719                    23812711.898
 109470729.368 8  85301974.78246  20831568.945                    20831575.422
 120781245.760 7  94115341.18544  22983916.195                    22983926.609
 11  7 27  1 15  0.0000000  0  9G04G12G09G10G17G05G28G02G27
 107759301.787 8  83968417.85646  20505892.313                    20505901.125
 118619580.760 7                  22572557.578
 118728680.103 7  92515884.42044  22593310.352                    22593320.184
 112507961.030 7  87668670.21945  21409553.102                    21409562.402
 117609862.719 7                  22380391.617
 124892172.524 6                  23766185.688
 125233130.764 6  97584342.09043  23831068.461                    23831077.293
 109439530.023 8  85277663.62846  20825632.188                    20825638.363
 120830159.255 7  94153455.55544  22993224.375                    22993234.023
 11  7 27  1 15 30.0000000  0  9G04G12G09G10G17G05G28G02G27
 107813222.522 8  84010434.01346  20516153.148                    20516161.375
 118533514.562 7                  22556180.117
 118783275.832 7  92558426.50944  22603700.188                    22603709.551
 112452192.667 7  87625214.40645  21398941.016                    21398949.637
 117654140.463 7                  22388817.234
 124786093.586 7                  23745999.945
 125329884.267 6  97659734.39143  23849480.109                    23849490.242
 109408696.086 8  85253637.21246  20819764.523                    20819770.922
 120879370.905 7  94191802.24344  23002589.180                    23002599.387
 11  7 27  1 16  0.0000000  0  9G04G12G09G10G17G05G28G02G27
 107867494.803 8  84052724.10546  20526480.680                    20526489.480
 118447676.279 7                  22539845.094
 118838314.928 7  92601314.08944  22614173.656                    22614182.938
 112396914.246 8  87582140.36245  21388421.703                    21388430.582
 117698530.682 7                  22397264.516
 124680051.001 7                  23725820.258
 125426874.308 6  97735310.99343  23867936.703                    23867946.578
 109378226.874 8  85229894.99846  20813966.336                    20813972.648
 120928878.076 7  94230379.21044  23012009.828                    23012019.863
 11  7 27  1 16 30.0000000  0  9G04G12G09G10G17G05G28G02G27
 107922116.452 8  84095286.43446  20536875.078                    20536883.563
 118362068.472 7                  22523554.344
 118893794.794 7  92644545.08844  22624730.891                    22624740.082
 112342128.647 7  87539450.33445  21377996.438                    21378005.512
 117743034.196 7                  22405733.117
 124574047.781 6                  23705648.336
 125524099.419 6  97811070.79743  23886438.328                    23886448.520
 109348122.531 8  85206437.09146  20808237.938                    20808244.063
 120978678.472 7  94269184.68444  23021486.828                    23021496.918
 11  7 27  1 17  0.0000000  0  9G04G12G09G10G17G05G28G02G27
 107977084.528 8  84138118.70646  20547334.664                    20547343.688
 118276693.470 7                  22507308.750
 118949711.639 7  92688116.60244  22635371.773                    22635380.785
 112287837.598 8  87497145.66045  21367664.852                    21367674.066
 117787650.938 7                  22414223.438
 124468086.511 6                  23685483.766
 125621557.481 6  97887012.11343  23904983.211                    23904993.477
 109318381.771 8  85183262.50246  20802577.836                    20802584.410
 121028768.943 7  94308216.17144  23031018.352                    23031029.418
 11  7 27  1 17 30.0000000  0  9G04G12G09G10G17G05G28G02G27
 108032397.015 8  84181219.34446  20557860.656                    20557869.648
 118191554.044 7                  22491107.141
 119006063.048 7  92732026.75244  22646095.242                    22646104.492
 112234044.164 8  87455228.74745  21357428.227                    21357437.293
 117832381.479 7                  22422735.508
 124362170.479 7                  23665329.539
 125719246.556 6  97963133.48043  23923574.023                    23923583.156
 109289004.797 8  85160371.37446  20796988.164                    20796994.402
 121079147.193 7  94347471.89444  23040605.086                    23040616.156
 11  7 27  1 18  0.0000000  0  9G04G12G09G10G17G05G28G02G27
 108088052.069 8  84224586.91646  20568451.422                    20568459.781
 118106652.177 7                  22474950.844
 119062846.309 7  92776273.37544  22656900.813                    22656910.914
 112180751.374 8  87413701.94245  21347287.109                    21347296.434
 117877227.180 7                  22431269.008
 124256302.713 7                  23645183.445
 125817165.449 6  98039433.90843  23942206.734                    23942216.832
 109259991.572 8  85137763.69746  20791466.836                    20791473.195
 121129811.288 7  94386950.36744  23050246.219                    23050257.254
 11  7 27  1 18 30.0000000  0  9G04G12G09G10G17G05G28G02G27
 108144046.893 8  84268219.24746  20579107.164                    20579115.672
 118021990.603 7                  22458840.281
 119120057.957 7  92820853.81545  22667787.313                    22667797.789
 112127961.233 8  87372566.80245  21337241.602                    21337250.750
 117922187.801 7                  22439824.820
 124150486.006 7                  23625047.102
 125915311.804 6  98115911.54743  23960883.727                    23960893.105
 109231341.110 8  85115438.68546  20786014.719                    20786021.430
 121180758.230 7  94426649.24044  23059940.914                    23059951.656
 11  7 27  1 19  0.0000000  0  9G04G12G09G10G17G05G28G02G27
 108200379.096 8  84312114.46946  20589826.711                    20589835.234
 117937572.217 7                  22442775.570
 119177695.129 7  92865765.81444  22678755.930                    22678765.672
 112075676.422 8  87331825.43345  21327291.773                    21327300.816
 117967263.755 7                  22448402.461
 124044722.629 7                  23604920.383
 126013683.695 6  98192564.98643  23979602.883                    23979612.281
 109203053.151 8  85093396.13846  20780631.719                    20780637.934
 121231985.666 7  94466566.71044  23069689.781                    23069699.578
 11  7 27  1 19 30.0000000  0  9G04G12G09G10G17G05G28G02G27
 108257046.685 8  84356271.02946  20600609.844                    20600618.551
 117853399.527 7                  22426758.398
 119235754.812 7  92911007.04344  22689803.844                    22689813.770
 112023899.538 8  87291479.85345  21317438.930                    21317448.316
 118012455.864 7                  22457002.328
 123939015.831 7                  23584804.602
 126112279.754 6  98269393.03043  23998365.563                    23998374.941
 109175127.683 8  85071636.05946  20775318.266                    20775324.039
 121283491.358 7  94506701.00944  23079491.219                    23079501.039
 11  7 27  1 20  0.0000000  0  9G04G12G09G10G17G05G28G02G27
 108314047.315 8  84400687.10146  20611456.906                    20611465.855
 117769475.286 7                  22410787.945
 119294233.750 7  92956574.97344  22700932.273                    22700941.918
 111972633.020 8  87251531.95745  21307683.352                    21307692.523
 118057764.473 7                  22465624.164
 123833368.658 7                  23564700.906
 126211097.732 6  98346394.03043  24017169.555                    24017179.816
 109147564.285 8  85050158.11746  20770072.828                    20770079.078
 121335272.612 7  94547050.01144  23089344.891                    23089354.980
 11  7 27  1 20 30.0000000  0  9G04G12G09G10G17G05G28G02G27
 108371378.377 8  84445360.64846  20622366.656                    20622375.480
 117685801.538 7                  22394865.547
 119353129.200 7  93002467.46344  22712140.289                    22712149.625
 111921879.413 8  87211983.72545  21298024.953                    21298034.211
 118103190.182 7                  22474268.781
 123727784.060 7                  23544609.016
 126310135.765 6  98423566.50243  24036015.758                    24036025.859
 109120362.187 8  85028961.70446  20764896.383                    20764902.422
 121387326.929 7  94587611.79944  23099249.711                    23099260.508
 11  7 27  1 21  0.0000000  0  9G04G12G09G10G17G05G28G02G27
 108429037.762 8  84490290.04146  20633338.453                    20633347.695
 117602380.991 7                  22378990.930
 119412437.748 7  93048681.84944  22723426.211                    22723435.727
 111871641.058 8  87172836.99745  21288465.336                    21288474.043
 118148733.515 7                  22482935.484
 123622264.773 7                  23524529.180
 126409392.209 6  98500909.14543  24054904.211                    24054913.762
 109093521.126 8  85008046.62446  20759788.367                    20759794.887
 121439651.707 7  94628384.32444  23109207.539                    23109217.906
 11  7 27  1 21 30.0000000  0  9G04G12G09G10G17G05G28G02G27
 108487022.514 8  84535472.96346  20644372.828                    20644381.648
 117519216.231 7                  22363165.086
 119472156.086 7  93095215.55544  22734790.164                    22734799.711
 111821920.043 8  87134093.39145  21279003.359                    21279012.727
 118194394.762 7                  22491624.477
 123516813.252 6                  23504461.555
 126508864.639 6  98578420.11543  24073833.406                    24073842.746
 109067040.193 8  84987412.15846  20754749.305                    20754755.648
 121492244.073 7  94669365.34344  23119215.211                    23119226.242
 11  7 27  1 22  0.0000000  0  9G04G12G09G10G17G05G28G02G27
 108545330.668 8  84580907.88546  20655468.688                    20655477.266
 117436309.882 7                  22347388.797
 119532281.434 7  93142066.40344  22746231.680                    22746241.047
 111772719.036 8  87095754.98545  21269641.031                    21269649.961
 118240174.325 7                  22500335.414
 123411432.725 7                  23484408.820
 126608551.218 6  98656098.01343  24092803.281                    24092812.547
 109040919.005 8  84967058.01146  20749778.594                    20749784.945
 121545101.645 7  94710553.00444  23129273.813                    23129284.770
 11  7 27  1 22 30.0000000  0  9G04G12G09G10G17G05G28G02G27
 108603960.037 8  84626593.10446  20666625.250                    20666634.273
 117353664.301 7                  22331661.828
 119592810.641 7  93189231.97144  22757749.469                    22757758.762
 111724040.568 8  87057823.74845  21260377.719                    21260386.434
 118286073.221 7                  22509070.039
 123306126.171 7                  23464369.961
 126708450.156 6  98733941.35943  24111813.063                    24111822.715
 109015157.336 8  84946984.00846  20744876.625                    20744882.797
 121598221.948 7  94751945.42944  23139382.445                    23139392.363
 11  7 27  1 23  0.0000000  0  9G04G12G09G10G17G05G28G02G27
 108662908.431 8  84672526.91946  20677842.961                    20677851.500
 117271282.418 7                  22315984.859
 119653740.734 7  93236709.90944  22769344.016                    22769354.543
 111675887.125 8  87020301.63145  21251214.250                    21251223.219
 118332091.745 7                  22517827.008
 123200896.823 7                  23444345.008
 126808559.786 6  98811948.86343  24130863.180                    24130872.660
 108989755.082 8  84927190.05846  20740042.094                    20740048.680
 121651602.727 7  94793540.80744  23149540.508                    23149550.504
 11  7 27  1 23 30.0000000  0  9G04G12G09G10G17G05G28G02G27
 108722173.250 8  84718707.29646  20689120.406                    20689129.207
 117189166.528 7                  22300359.016
 119715068.294 7  93284497.55844  22781014.938                    22781025.410
 111628260.961 8  86983190.37645  21242151.523                    21242160.191
 118378230.329 7                  22526607.336
 123095747.185 7                  23424335.250
 126908877.849 6  98890118.77643  24149953.266                    24149962.688
 108964711.150 8  84907675.32746  20735276.375                    20735283.086
 121705240.988 7  94835336.81844  23159747.320                    23159757.477
 11  7 27  1 24  0.0000000  0  9G04G12G09G10G17G05G28G02G27
 108781752.218 8  84765132.45946  20700458.180                    20700466.594
 117107319.412 7                  22284784.086
 119776790.360 7  93332592.62945  22792760.641                    22792770.781
 111581164.624 7  86946491.97745  21233189.305                    21233198.207
 118424489.641 7                  22535410.094
 122990680.396 7                  23404342.000
 127009402.783 6  98968449.86843  24169082.180                    24169091.988
 108940025.338 8  84888439.64146  20730579.070                    20730585.211
 121759134.346 7  94877331.61944  23170002.695                    23170012.758
 11  7 27  1 24 30.0000000  0  9G04G12G09G10G17G05G28G02G27
 108841642.844 8  84811800.47446  20711855.055                    20711863.949
 117025743.254 7                  22269260.359
 119838903.411 7  93380992.36144  22804580.094                    22804590.297
 111534599.939 8  86910207.84846  21224328.102                    21224336.898
 118470870.119 7                  22544235.703
 122885699.399 7                  23384365.016
 127110132.314 6  99046940.38642  24188250.680                    24188260.289
 108915696.940 8  84869482.45746  20725949.477                    20725955.844
 121813280.065 7  94919523.06144  23180306.023                    23180316.367
 11  7 27  1 25  0.0000000  0  9G04G12G09G10G17G05G28G02G27
 108901842.583 8  84858709.35646  20723310.617                    20723319.160
 116944440.865 7                  22253788.938
 119901404.397 7  93429694.38344  22816473.438                    22816483.637
 111488568.744 8  86874339.42146  21215568.750                    21215577.699
 118517371.974 7                  22553084.945
 122780806.577 7                  23364404.078
 127211064.218 6  99125588.67843  24207457.898                    24207466.949
 108891725.161 8  84850803.15546  20721387.914                    20721393.941
 121867675.207 7  94961908.83044  23190658.125                    23190668.469
 11  7 27  1 25 30.0000000  0  9G04G12G09G10G17G05G28G02G27
 108962349.431 8  84905857.54846  20734824.609                    20734833.398
 116863414.877 7                  22238370.352
 119964290.259 7  93478696.34244  22828441.133                    22828451.164
 111443074.075 8  86838889.07245  21206911.359                    21206920.180
 118563996.025 7                  22561957.406
 122676005.228 7                  23344460.875
 127312196.554 6  99204393.14643  24226702.477                    24226711.527
 108868109.702 8  84832401.52046  20716893.883                    20716900.680
 121922317.693 7  95004487.34044  23201056.133                    23201066.766
 11  7 27  1 26  0.0000000  0  9G04G12G09G10G17G05G28G02G27
 109023161.153 8  84953243.30046  20746396.773                    20746405.539
 116782667.733 7                  22223004.578
 120027557.660 7  93527995.60144  22840480.047                    22840490.008
 111398118.431 8  86803858.74345  21198356.141                    21198365.504
 118610742.997 7                  22570853.078
 122571298.299 7                  23324535.477
 127413528.145 6  99283352.84243  24245984.242                    24245995.004
 108844850.228 8  84814277.26946  20712467.734                    20712474.195
 121977204.795 7  95047256.45344  23211500.461                    23211511.617
 11  7 27  1 26 30.0000000  0  9G04G12G09G10G17G05G28G02G27
 109084275.081 8  85000864.53746  20758026.422                    20758035.223
 116702202.151 7                  22207692.266
 120091203.338 7  93577589.61444  22852590.992                    22852601.531
 111353703.336 8  86769249.61945  21189904.734                    21189913.434
 118657613.277 7                  22579772.047
 122466688.602 7                  23304629.563
 127515056.377 6  99362465.73043  24265304.492                    24265315.066
 108821946.150 8  84796429.94946  20708109.281                    20708115.332
 122032333.907 7  95090214.15644  23221991.992                    23222002.000
 11  7 27  1 27  0.0000000  0  9G04G12G09G10G17G05G28G02G27
 109145689.311 8  85048719.77446  20769713.188                    20769721.672
 116622020.755 7                  22192434.406
 120155224.463 7  93627476.19544  22864773.453                    22864783.426
 111309831.255 7  86735063.62245  21181555.750                    21181564.918
 118704607.161 7                  22588714.586
 122362179.355 7                  23284741.883
 127616779.280 5  99441730.27142  24284661.367                    24284672.785
 108799396.929 8  84778859.14446  20703818.539                    20703825.035
 122087702.477 7  95133358.42344  23232527.117                    23232538.285
 11  7 27  1 27 30.0000000  0  9G04G12G09G10G17G05G28G02G27
 109207401.205 8  85096806.95146  20781456.508                    20781465.020
 116542126.064 7                  22177230.906
 120219617.546 7  93677652.61844  22877027.930                    22877036.789
 111266504.154 7  86701302.28945  21173311.070                    21173319.863
 118751725.282 7                  22597680.461
 122257773.345 7                  23264873.625
 127718695.341 6  99521145.31842  24304056.680                    24304066.129
 108777202.123 8  84761564.49846  20699594.570                    20699600.934
 122143307.833 7  95176687.20244  23243108.414                    23243119.215
 11  7 27  1 28  0.0000000  0  9G04G12G09G10G17G05G28G02G27
 109269408.263 8  85145124.12346  20793256.273                    20793264.949
 116462520.682 7                  22162082.234
 120284379.308 7  93728116.32944  22889351.211                    22889360.898
 111223724.508 8  86667967.54945  21165170.008                    21165178.871
 118798968.117 7                  22606670.898
 122153473.485 7                  23245025.703
 127820801.962 6  99600708.94742  24323486.828                    24323496.297
 108755360.433 8  84744545.01346  20695438.570                    20695444.629
 122199147.180 7  95220198.34844  23253734.820                    23253744.426
 11  7 27  1 28 30.0000000  0  8G04G12G09G10G17G05G02G27
 109331709.452 8  85193670.49346  20805111.852                    20805120.297
 116383207.970 7                  22146989.313
 120349507.571 7  93778865.60044  22901744.656                    22901755.078
 111181495.687 7  86635062.01945  21157134.219                    21157143.281
 118846337.332 7                  22615685.375
 122049283.807 7                  23225199.297
 108733872.782 8  84727801.40446  20691349.516                    20691356.027
 122255219.080 7  95263890.71043  23264405.258                    23264414.945
 11  7 27  1 29  0.0000000  0  8G04G12G09G10G17G05G02G27
 109394301.369 8  85242443.40846  20817022.500                    20817031.223
 116304189.645 7                  22131953.102
 120414998.011 7  93829897.08244  22914207.289                    22914217.391
 111139818.449 8  86602586.29445  21149203.375                    21149212.254
 118893832.119 7                  22624723.023
 121945206.214 7                  23205393.742
 108712737.232 8  84711332.15846  20687327.406                    20687333.402
 122311519.498 7  95307761.11744  23275118.852                    23275129.332
 11  7 27  1 29 30.0000000  0  8G04G12G09G10G17G05G02G27
 109457181.689 8  85291441.04846  20828988.195                    20828996.879
 116225468.230 7                  22116972.539
 120480847.620 7  93881208.43944  22926738.258                    22926747.895
 111098694.972 7  86570542.06945  21141377.922                    21141386.559
 118941453.501 7                  22633785.133
 121841243.543 7                  23185610.445
 108691953.705 8  84695137.21446  20683372.492                    20683378.848
 122368045.990 7  95351807.68844  23285875.117                    23285885.770
 11  7 27  1 30  0.0000000  0  8G04G12G09G10G17G05G02G27
 109520348.204 8  85340661.69846  20841008.203                    20841017.336
 116147046.333 7                  22102049.539
 120547052.782 7  93932796.85344  22939336.117                    22939346.813
 111058127.158 8  86538930.82845  21133658.180                    21133667.004
 118989201.790 7                  22642871.125
 121737398.865 7                  23165849.117
 108671521.396 8  84679215.95246  20679484.523                    20679490.750
 122424795.967 6  95396028.37844  23296674.484                    23296685.398
 11  7 27  1 30 30.0000000  0  8G04G12G09G10G17G05G02G27
 109583798.097 8  85390103.15846  20853082.680                    20853091.340
 116068926.325 7                  22087183.820
 120613610.140 7  93984659.68144  22952001.914                    22952012.445
 111018116.896 8  86507754.04346  21126044.422                    21126053.102
 119037077.385 7                  22651981.813
 121633674.876 7                  23146111.141
 108651439.220 8  84663567.52046  20675662.938                    20675668.992
 122481766.543 6  95440420.92644  23307515.508                    23307526.773
 11  7 27  1 31  0.0000000  0  8G04G12G09G10G17G05G02G27
 109647528.862 8  85439763.47846  20865209.992                    20865218.738
 115991110.694 7                  22072376.086
 120680516.331 7  94036794.31044  22964734.523                    22964744.828
 110978665.911 8  86477013.05545  21118536.852                    21118545.824
 119085080.579 7                  22661116.820
 121530074.305 7                  23126396.695
 108631706.263 8  84648191.19746  20671907.805                    20671913.973
 122538954.820 7  95484983.15044  23318397.695                    23318409.594
 11  7 27  1 31 30.0000000  0  8G04G12G09G10G17G05G02G27
 109711538.222 8  85489640.88646  20877390.500                    20877399.332
 115913602.559 7                  22057627.023
 120747767.718 7  94089197.94444  22977531.680                    22977541.637
 110939776.109 8  86446709.35946  21111136.609                    21111145.277
 119133211.824 7                  22670275.813
 121426600.119 7                  23106705.719
 108612321.958 8  84633086.56146  20668219.359                    20668225.391
 122596358.173 7  95529712.93444  23329321.242                    23329332.176
 11  7 27  1 32  0.0000000  0  8G04G12G09G10G17G05G02G27
 109775824.351 8  85539733.96546  20889624.047                    20889632.875
 115836403.954 7                  22042936.500
 120815361.768 7  94141868.59744  22990393.625                    22990403.617
 110901450.423 8  86416845.22546  21103843.281                    21103852.383
 119181472.075 7                  22679459.500
 121323255.851 7                  23087040.102
 108593286.120 8  84618253.45446  20664596.648                    20664602.852
 122653974.484 7  95574608.71244  23340286.273                    23340295.797
 11  7 27  1 32 30.0000000  0  8G04G12G09G10G17G05G02G27
 109840385.561 8  85590041.39246  20901909.281                    20901918.395
 115759518.033 7                  22028305.133
 120883295.504 7  94194803.92144  23003321.172                    23003331.516
 110863691.150 8  86387422.46446  21096657.883                    21096667.012
 119229862.371 7                  22688667.664
 121220044.900 7                  23067399.797
 108574598.834 8  84603691.94446  20661040.734                    20661046.660
 122711801.332 7  95619668.56544  23351290.688                    23351300.289
 11  7 27  1 33  0.0000000  0  8G04G12G09G10G17G05G02G27
 109905218.714 8  85640560.72046  20914247.047                    20914255.848
 115682947.166 7                  22013734.391
 120951564.895 7  94248000.81844  23016313.063                    23016322.961
 110826499.364 7  86358441.88245  21089580.781                    21089589.324
 119278382.639 7                  22697900.414
 121116969.658 7                  23047784.977
 108556258.533 8  84589400.81546  20657550.484                    20657556.574
 122769835.396 7  95664889.86544  23362333.453                    23362344.070
 11  7 27  1 33 30.0000000  0  8G04G12G09G10G17G05G02G27
 109970321.356 8  85691290.03746  20926635.453                    20926644.035
 115606693.617 8                  21999223.836
 121020166.887 7  94301456.87244  23029368.203                    23029376.848
 110789876.891 8  86329904.93046  21082611.406                    21082620.234
 119327033.482 7                  22707158.563
 121014032.832 7                  23028196.469
 108538264.440 8  84575379.45246  20654126.086                    20654132.387
 122828073.778 7  95710270.35544  23373416.477                    23373427.031
 11  7 27  1 34  0.0000000  0  8G04G12G09G10G17G05G02G27
 110035691.448 8  85742227.76246  20939075.258                    20939083.512
 115530759.872 8                  21984773.961
 121089098.129 7  94355169.49944  23042484.789                    23042494.086
 110753826.092 8  86301813.42646  21075751.383                    21075760.316
 119375815.599 7                  22716441.125
 120911237.654 7                  23008635.273
 108520615.969 8  84561627.40646  20650768.047                    20650774.113
 122886514.206 6  95755808.29544  23384537.102                    23384548.281
 11  7 27  1 34 30.0000000  0  8G04G12G09G10G17G05G02G27
 110101326.880 8  85793372.23646  20951564.664                    20951573.859
 115455148.902 7                  21970385.617
 121158355.228 7  94409136.03044  23055664.305                    23055673.660
 110718348.679 8  86274168.72346  21069000.188                    21069008.699
 119424729.454 7                  22725749.484
 120808587.137 7                  22989101.813
 108503312.620 8  84548144.29146  20647475.617                    20647481.449
 122945154.085 6  95801501.61244  23395696.211                    23395707.379
 11  7 27  1 35  0.0000000  0  8G04G12G09G10G17G05G02G27
 110167224.800 8  85844721.25946  20964104.859                    20964113.742
 115379863.099 8                  21956058.859
 121227934.750 7  94463353.79444  23068904.414                    23068915.023
 110683446.073 8  86246971.91946  21062358.078                    21062367.047
 119473775.282 7                  22735082.641
 120706084.153 7                  22969595.719
 108486353.245 8  84534929.19746  20644248.086                    20644253.988
 123003990.470 7  95847348.06544  23406892.508                    23406903.566
 11  7 27  1 35 30.0000000  0  8G04G12G09G10G17G05G02G27
 110233382.931 8  85896273.03646  20976694.375                    20976703.484
 115304904.873 8                  21941795.328
 121297833.182 7  94517820.05244  23082205.469                    23082216.176
 110649120.292 8  86220224.58246  21055826.234                    21055835.148
 119522953.637 7                  22744441.320
 120603731.365 7                  22950118.641
 108469736.775 8  84521981.29846  20641086.117                    20641092.148
 123063020.337 7  95893345.32144  23418125.211                    23418136.215
 11  7 27  1 36  0.0000000  0  8G04G12G09G10G17G05G02G27
 110299799.358 8  85948026.09246  20989332.961                    20989341.703
 115230277.151 7                  21927594.250
 121368047.391 7  94572532.37344  23095566.914                    23095577.242
 110615373.332 8  86193928.28346  21049404.383                    21049413.160
 119572265.309 7                  22753824.805
 120501532.179 7                  22930670.297
 108453463.122 8  84509300.54146  20637989.172                    20637995.391
 123122241.350 6  95939491.51144  23429394.547                    23429405.215
 11  7 27  1 36 30.0000000  0  8G04G12G09G10G17G05G02G27
 110366472.304 8  85999979.02046  21002020.953                    21002029.426
 115155982.867 7                  21913456.430
 121438574.714 7  94627488.69244  23108987.828                    23108998.152
 110582207.520 8  86168084.81845  21043092.828                    21043101.586
 119621711.069 7                  22763233.992
 120399490.012 7                  22911252.500
 108437532.340 8  84496886.95746  20634957.609                    20634963.801
 123181651.419 6  95985785.02044  23440700.648                    23440710.953
 11  7 27  1 37  0.0000000  0  8G04G12G09G10G17G05G02G27
 110433398.819 8  86052129.53846  21014756.422                    21014765.145
 115082023.687 7                  21899382.367
 121509411.140 7  94682685.87344  23122467.789                    23122477.504
 110549623.653 7  86142694.82446  21036892.570                    21036900.793
 119671291.116 7                  22772668.867
 120297607.196 7                  22891865.008
 108421942.582 8  84484739.10646  20631990.992                    20631997.242
 123241247.037 6  96032223.14844  23452040.688                    23452050.809
 11  7 27  1 37 30.0000000  0  8G04G12G09G10G17G05G02G27
 110500576.721 8  86104475.93746  21027540.000                    21027548.746
 115008402.247 7                  21885372.367
 121580553.224 7  94738121.23944  23136005.531                    23136015.152
 110517623.567 7  86117759.71646  21030803.258                    21030811.617
 119721006.192 7                  22782129.570
 120195886.720 7                  22872507.617
 108406693.284 8  84472856.55346  20629089.188                    20629095.230
 123301025.624 6  96078803.82543  23463415.367                    23463426.180
 11  7 27  1 38  0.0000000  0  8G04G12G09G10G17G05G02G27
 110568003.492 8  86157016.26146  21040370.789                    21040379.266
 114935121.392 7                  21871427.859
 121651997.652 7  94793792.17844  23149601.523                    23149611.301
 110486209.109 8  86093280.95146  21024825.469                    21024834.125
 119770856.533 7                  22791615.281
 120094331.735 7                  22853182.867
 108391783.497 8  84461238.55046  20626252.063                    20626258.273
 123360984.441 6  96125524.93544  23474825.906                    23474836.652
 11  7 27  1 38 30.0000000  0  8G04G12G09G10G17G05G02G27
 110635676.984 8  86209748.83646  21053248.672                    21053257.574
 114862183.564 7                  21857547.828
 121723741.071 7  94849696.12144  23163254.031                    23163263.063
 110455381.641 8  86069259.56846  21018959.070                    21018967.586
 119820842.846 7                  22801127.438
 119992945.041 7                  22833889.203
 108377212.604 8  84449884.61646  20623478.984                    20623485.293
 123421120.555 6  96172384.18244  23486269.789                    23486280.902
 11  7 27  1 39  0.0000000  0  8G04G12G09G10G17G05G02G27
 110703595.203 8  86262672.12346  21066173.188                    21066181.707
 114789591.659 7                  21843734.211
 121795780.269 7  94905830.56444  23176962.148                    23176971.691
 110425143.258 8  86045697.21345  21013204.758                    21013213.711
 119870965.746 7                  22810665.805
 119891730.218 7                  22814628.547
 108362980.211 8  84438794.45246  20620770.867                    20620777.035
 123481431.700 6  96219379.83644  23497746.695                    23497757.777
 11  7 27  1 39 30.0000000  0  8G04G12G09G10G17G05G02G27
 110771755.563 8  86315784.07146  21079143.430                    21079152.516
 114717347.825 7                  21829986.844
 121868111.628 7  94962192.61944  23190726.352                    23190736.164
 110395495.168 8  86022594.83346  21007562.883                    21007571.891
 119921225.607 7                  22820229.484
 119790689.680 7                  22795401.219
 108349085.080 8  84427967.07746  20618126.539                    20618132.820
 123541914.856 6  96266509.51744  23509256.289                    23509266.883
 11  7 27  1 40  0.0000000  0  8G04G12G09G10G17G05G02G27
 110840155.317 8  86369082.57646  21092159.352                    21092167.961
 114645454.364 7                  21816305.891
 121940731.400 7  95018779.37744  23204545.781                    23204556.219
 110366438.474 8  85999953.28046  21002033.508                    21002042.348
 119971622.578 7                  22829819.766
 119689826.001 7                  22776207.688
 108335525.502 8  84417401.18146  20615546.289                    20615552.848
 123602566.579 6  96313770.55244  23520797.523                    23520808.328
 11  7 27  1 40 30.0000000  0  8G04G12G09G10G17G05G02G27
 110908792.965 8  86422566.44946  21105220.898                    21105229.742
 114573913.863 7                  21802692.242
 122013636.693 7  95075588.64244  23218418.945                    23218429.672
 110337975.209 7  85977774.13246  20996617.047                    20996625.984
 120022157.885 7                  22839436.828
 119589142.587 7                  22757048.172
 108322301.838 8  84407097.03046  20613030.242                    20613036.449
 123663384.721 6  96361161.27143  23532371.242                    23532381.039
 11  7 27  1 41  0.0000000  0  8G04G12G09G10G17G05G02G27
 110977666.687 8  86476234.28046  21118326.977                    21118335.641
 114502729.643 7                  21789146.664
 122086824.503 7  95132618.05444  23232345.922                    23232355.934
 110310107.806 8  85956059.29745  20991314.289                    20991322.660
 120072832.054 7                  22849079.289
 119488643.251 7                  22737923.047
 108309413.779 8  84397054.38846  20610577.328                    20610583.441
 123724367.345 6  96408680.16343  23543976.148                    23543985.293
 11  7 27  1 41 30.0000000  0  8G04G12G09G10G17G05G02G27
 111046773.434 8  86530083.68146  21131477.539                    21131486.801
 114431903.853 7                  21775668.719
 122160290.861 7  95189864.49844  23246326.172                    23246336.293
 110282836.802 7  85934809.18645  20986124.734                    20986133.285
 120123645.328 7                  22858748.836
 119388330.361 7                  22718834.789
 108296859.792 8  84387272.07146  20608188.836                    20608195.051
 123785510.989 6  96456324.55543  23555611.336                    23555621.160
 11  7 27  1 42  0.0000000  0  8G04G12G09G10G17G05G02G27
 111116111.279 8  86584113.16746  21144672.406                    21144680.957
 114361438.968 8                  21762259.906
 122234032.266 7  95247325.27744  23260359.203                    23260369.289
 110256163.880 8  85914025.12045  20981048.758                    20981057.590
 120174598.414 7                  22868444.984
 119288206.477 7                  22699781.500
 108284639.116 8  84377749.47846  20605863.219                    20605869.258
 123846812.977 6  96504092.27244  23567276.859                    23567287.520
 11  7 27  1 42 30.0000000  0  8G04G12G09G10G17G05G02G27
 111185677.597 8  86638320.68346  21157910.000                    21157919.188
 114291337.081 8                  21748919.391
 122308045.617 7  95304997.97444  23274443.086                    23274454.051
 110230090.413 8  85893708.16046  20976087.148                    20976095.742
 120225691.651 7                  22878167.688
 119188274.865 7                  22680765.266
 108272750.456 8  84368485.60546  20603600.719                    20603606.711
 123908270.295 6  96551981.04244  23578971.414                    23578982.273
 11  7 27  1 43  0.0000000  0  8G04G12G09G10G17G05G02G27
 111255470.410 8  86692704.68246  21171191.352                    21171199.676
 114221601.087 8                  21735649.625
 122382327.481 7  95362879.88144  23288578.031                    23288588.211
 110204617.935 8  85873859.50846  20971239.898                    20971248.777
 120276925.594 7                  22887917.047
 119088538.498 7                  22661785.656
 108261193.326 8  84359480.06746  20601401.188                    20601407.738
 123969880.404 6  96599988.87243  23590695.117                    23590706.941
 11  7 27  1 43 30.0000000  0  8G04G12G09G10G17G05G02G27
 111325487.717 8  86747263.62746  21184515.406                    21184524.367
 114152233.503 7                  21722449.125
 122456874.481 7  95420968.41344  23302764.352                    23302774.500
 110179748.009 7  85854480.36846  20966507.617                    20966516.230
 120328300.915 7                  22897693.859
 118989000.619 7                  22642844.344
 108249967.102 8  84350732.37846  20599264.984                    20599271.207
 124031640.660 6  96648113.69944  23602447.773                    23602459.223
 11  7 27  1 44  0.0000000  0  9G04G12G09G10G17G05G25G02G27
 111395726.823 8  86801995.39146  21197881.266                    21197890.133
 114083236.381 7                  21709319.258
 122531682.758 7  95479260.55344  23317000.469                    23317010.246
 110155481.405 8  85835571.36246  20961889.414                    20961898.207
 120379818.111 7                  22907496.891
 118889663.812 7                  22623941.086
 129502789.57616                  24643561.602
 108239070.188 8  84342241.28946  20597191.500                    20597197.875
 124093547.873 6  96696353.02044  23614228.797                    23614239.430
 11  7 27  1 44 30.0000000  0  9G04G12G09G10G17G05G25G02G27
 111466185.947 8  86856898.60546  21211289.633                    21211298.387
 114014612.895 8                  21696260.789
 122606749.561 7  95537754.09844  23331284.445                    23331295.410
 110131820.014 8  85817133.94746  20957387.203                    20957395.434
 120431477.851 7                  22917327.523
 118790531.557 7                  22605077.094
 129399546.847 6                  24623915.000
 108228502.631 8  84334006.84346  20595180.563                    20595186.660
 124155599.712 6  96744705.06043  23626036.578                    23626047.852
 11  7 27  1 45  0.0000000  0  9G04G12G09G10G17G05G25G02G27
 111536862.702 8  86911971.40346  21224738.594                    21224747.258
 113946365.108 7                  21683273.367
 122682071.148 7  95596446.14844  23345618.422                    23345629.156
 110108764.942 8  85799168.98746  20952999.531                    20953008.617
 120483280.272 7                  22927185.250
 118691606.566 7                  22586252.039
 129296414.013 6                  24604290.414
 108218262.852 8  84326027.80846  20593231.930                    20593238.316
 124217793.256 6  96793167.51343  23637871.703                    23637882.297
 11  7 27  1 45 30.0000000  0  9G04G12G09G10G17G05G25G02G27
 111607754.887 8  86967212.06846  21238229.375                    21238237.723
 113878495.734 8                  21670358.531
 122757644.179 7  95655334.17544  23359999.188                    23360009.473
 110086317.305 8  85781677.34746  20948728.016                    20948736.320
 120535226.101 7                  22937070.570
 118592891.969 7                  22567467.438
 129193393.678 6                  24584685.180
 108208350.538 8  84318303.93246  20591345.594                    20591351.848
 124280125.924 7  96841738.40843  23649733.852                    23649743.207
 11  7 27  1 46  0.0000000  0  9G04G12G09G10G17G05G25G02G27
 111678860.389 8  87022618.95346  21251759.711                    21251768.270
 113811007.451 7                  21657515.883
 122833465.356 7  95714415.55544  23374427.719                    23374438.070
 110064478.680 8  85764660.26145  20944572.422                    20944580.785
 120587315.829 7                  22946982.570
 118494390.429 7                  22548723.070
 129090488.310 6                  24565103.852
 108198764.687 8  84310834.45546  20589521.398                    20589527.570
 124342594.992 6  96890415.59044  23661621.133                    23661631.461
 11  7 27  1 46 30.0000000  0  9G04G12G09G10G17G05G25G02G27
 111750176.692 8  87078190.10446  21265330.844                    21265340.078
 113743902.292 7                  21644746.234
 122909531.099 7  95773687.50044  23388902.438                    23388913.145
 110043249.723 8  85748118.24446  20940532.406                    20940540.973
 120639549.911 7                  22956922.406
 118396104.939 7                  22530020.102
 128987700.193 6                  24545543.789
 108189504.056 8  84303618.39146  20587759.320                    20587765.699
 124405197.449 6  96939196.67344  23673533.438                    23673544.750
 11  7 27  1 47  0.0000000  0  9G04G12G09G10G17G05G25G02G27
 111821701.573 8  87133923.77845  21278941.617                    21278950.316
 113677182.583 7                  21632049.625
 122985837.627 7  95833147.04344  23403423.711                    23403433.895
 110022632.017 8  85732052.52245  20936609.039                    20936617.797
 120691928.829 7                  22966889.695
 118298038.600 7                  22511358.063
 128885031.799 6                  24526005.969
 108180567.554 8  84296654.90346  20586058.680                    20586064.891
 124467930.577 6  96988079.61344  23685471.633                    23685482.824
 11  7 27  1 47 30.0000000  0  9G04G12G09G10G17G05G25G02G27
 111893433.047 8  87189818.43646  21292591.430                    21292600.449
 113610851.101 7                  21619427.000
 123062381.554 7  95892791.63344  23417989.492                    23417998.883
 110002626.454 8  85716463.79446  20932802.039                    20932811.008
 120744453.304 7                  22976884.758
 118200194.245 7                  22492739.156
 128782485.665 6                  24506491.836
 108171954.455 8  84289943.41046  20584419.648                    20584425.816
 124530791.497 6  97037062.08344  23697433.469                    23697445.262
 11  7 27  1 48  0.0000000  0  9G04G12G09G10G17G05G25G02G27
 111965368.842 8  87245872.31045  21306280.617                    21306289.398
 113544910.029 7                  21606879.273
 123139159.507 7  95952618.58544  23432598.734                    23432608.469
 109983234.399 8  85701353.12246  20929112.063                    20929120.555
 120797123.831 7                  22986907.852
 118102574.887 7                  22474162.508
 128680064.123 6                  24487002.000
 108163663.658 8  84283483.07246  20582841.797                    20582847.949
 124593777.284 6  97086141.89144  23709418.664                    23709430.672
 11  7 27  1 48 30.0000000  0  9G04G12G09G10G17G05G25G02G27
 112037507.099 8  87302083.93246  21320007.891                    21320016.688
 113479362.093 7                  21594405.672
 123216168.588 7  96012625.60844  23447254.031                    23447263.973
 109964457.372 8  85686721.69046  20925538.953                    20925547.492
 120849940.669 7                  22996958.453
 118005183.638 7                  22455629.758
 128577770.167 7                  24467535.813
 108155694.871 8  84277273.65146  20581325.445                    20581331.809
 124656885.789 6  97135317.31643  23721428.578                    23721440.063
 11  7 27  1 49  0.0000000  0  9G04G12G09G10G17G05G25G02G27
 112109845.494 8  87358451.51745  21333773.320                    21333782.297
 113414209.727 7                  21582007.641
 123293405.203 7  96072809.92744  23461951.281                    23461961.863
 109946296.184 8  85672570.13646  20922082.766                    20922091.363
 120902904.508 7                  23007037.000
 117908023.693 7                  22437140.945
 128475606.160 7                  24448095.234
 108148047.105 8  84271314.37846  20579870.234                    20579876.461
 124720114.080 6  97184586.10244  23733460.359                    23733471.574
 11  7 27  1 49 30.0000000  0  9G04G12G09G10G17G05G25G02G27
 112182381.505 8  87414973.08345  21347576.781                    21347586.008
 113349455.073 7                  21569685.313
 123370865.654 7  96133168.66743  23476691.242                    23476702.035
 109928751.437 8  85658898.92746  20918743.859                    20918752.832
 120956015.675 7                  23017143.953
 117811097.410 7                  22418696.641
 128373574.206 7                  24428679.328
 108140718.629 8  84265603.90046  20578475.609                    20578481.656
 124783458.934 6  97233945.67243  23745514.828                    23745525.551
 11  7 27  1 50  0.0000000  0  9G04G12G09G10G17G05G25G02G27
 112255113.190 8  87471647.12546  21361417.172                    21361425.914
 113285100.458 7                  21557438.641
 123448546.406 7  96193699.06744  23491473.852                    23491483.977
 109911824.365 8  85645709.02746  20915523.023                    20915531.887
 121009275.019 7                  23027278.852
 117714408.022 7                  22400296.914
 128271676.996 7                  24409288.633
 108133708.851 8  84260141.75146  20577141.719                    20577147.930
 124846917.722 6  97283394.06843  23757590.406                    23757601.637
 11  7 27  1 50 30.0000000  0  9G04G12G09G10G17G05G25G02G27
 112328038.356 8  87528471.92945  21375294.117                    21375303.180
 113221148.479 7                  21545269.047
 123526444.304 7  96254398.67944  23506297.664                    23506307.270
 109895516.040 8  85633001.25846  20912419.578                    20912428.102
 121062682.672 7                  23037442.609
 117617958.397 7                  22381943.258
 128169916.894 7                  24389923.914
 108127016.488 8  84254926.93046  20575868.156                    20575874.262
 124910487.619 6  97332929.02743  23769687.250                    23769698.379
 11  7 27  1 51  0.0000000  0  9G04G12G09G10G17G05G25G02G27
 112401155.103 8  87585446.02245  21389207.844                    21389217.121
 113157601.811 7                  21533176.789
 123604555.949 7  96315264.85944  23521161.719                    23521172.652
 109879827.514 8  85620776.45546  20909434.125                    20909442.809
 121116239.444 7                  23047633.852
 117521751.780 7                  22363635.695
 128068296.920 7                  24370586.375
 108120641.364 8  84249959.30646  20574655.117                    20574661.043
 124974166.061 6  97382548.55743  23781805.305                    23781816.113
 11  7 27  1 51 30.0000000  0  9G04G12G09G10G17G05G25G02G27
 112474461.294 8  87642567.73645  21403157.523                    21403166.375
 113094463.095 7                  21521161.852
 123682877.950 7  96376294.92744  23536065.547                    23536076.398
 109864759.787 8  85609035.39146  20906566.938                    20906575.371
 121169945.799 7                  23057853.641
 117425790.884 7                  22345374.617
 127966819.459 6                  24351276.039
 108114582.303 8  84245237.98246  20573502.078                    20573507.926
 125037950.373 6  97432250.58443  23793942.172                    23793954.293
 11  7 27  1 52  0.0000000  0  9G04G12G09G10G17G05G25G02G27
 112547954.671 8  87699835.29845  21417142.680                    21417151.512
 113031734.270 8                  21509224.969
 123761406.679 7  96437486.12144  23551009.344                    23551018.969
 109850313.763 8  85597778.76746  20903818.133                    20903826.414
 121223802.165 7                  23068102.000
 117330078.796 7                  22327161.523
 127865487.012 7                  24331992.656
 108108838.316 8  84240762.16946  20572409.117                    20572415.125
 125101837.626 6  97482032.80743  23806099.633                    23806111.520
 11  7 27  1 52 30.0000000  0  9G04G12G09G10G17G05G25G02G27
 112621633.160 8  87757247.11646  21431163.633                    21431172.410
 112969417.634 7                  21497366.352
 123840138.669 7  96498835.72043  23565991.648                    23566001.219
 109836490.267 8  85587007.23146  20901187.508                    20901195.434
 121277809.326 7                  23078379.750
 117234618.501 7                  22308995.938
 127764302.052 6                  24312737.617
 108103408.381 8  84236531.06846  20571375.891                    20571381.898
 125165825.107 6  97531893.08643  23818276.523                    23818288.336
 11  7 27  1 53  0.0000000  0  9G04G12G09G10G17G05G25G02G27
 112695494.353 8  87814801.28445  21445218.891                    21445227.602
 112907515.430 7                  21485586.414
 123919070.620 7  96560341.08944  23581011.734                    23581022.094
 109823289.810 8  85576721.17446  20898675.266                    20898683.973
 121331967.228 7                  23088685.406
 117139412.674 7                  22290878.578
 127663266.970 6                  24293511.211
 108098290.878 8  84232543.42246  20570401.961                    20570408.270
 125229909.743 6  97581829.10843  23830471.086                    23830482.473
 11  7 27  1 53 30.0000000  0  9G04G12G09G10G17G05G25G02G27
 112769536.661 8  87872496.60145  21459308.617                    21459317.117
 112846030.415 7                  21473886.461
 123998199.276 6  96621999.71644  23596069.383                    23596079.762
 109810713.668 8  85566921.60146  20896282.148                    20896290.969
 121386276.809 7                  23099020.227
 117044464.680 7                  22272810.648
 127562384.651 6                  24274314.070
 108093485.877 8  84228799.28246  20569487.734                    20569493.563
 125294089.022 6  97631838.88143  23842684.695                    23842695.387
 11  7 27  1 54  0.0000000  0  9G04G12G09G10G17G05G25G02G27
 112843757.614 8  87930331.11645  21473432.484                    21473441.102
 112784965.122 8                  21462266.297
 124077521.185 7  96683808.97144  23611163.953                    23611174.375
 109798762.437 8  85557608.97646  20894007.977                    20894016.590
 121440738.282 7                  23109383.664
 116949777.182 7                  22254792.008
 127461657.582 6                  24255145.961
 108088991.810 8  84225297.42546  20568632.352                    20568638.309
 125358360.207 6  97681920.28843  23854915.883                    23854926.051
 11  7 27  1 54 30.0000000  0  9G04G12G09G10G17G05G25G02G27
 112918155.304 8  87988303.35245  21487590.078                    21487598.633
 112724321.341 8                  21450725.953
 124157032.561 7  96745765.87444  23626294.266                    23626305.328
 109787436.774 8  85548783.80946  20891852.930                    20891861.281
 121495352.271 7                  23119776.359
 116855353.130 7                  22236823.867
 127361088.164 7                  24236008.602
 108084807.549 8  84222036.96646  20567835.992                    20567842.164
 125422720.475 6  97732071.10943  23867162.344                    23867173.398
 11  7 27  1 55  0.0000000  0  9G04G12G09G10G17G05G25G02G27
 112992727.369 8  88046411.46145  21501780.383                    21501789.168
 112664101.553 8                  21439266.578
 124236730.003 7  96807867.77344  23641460.281                    23641471.027
 109776737.468 8  85540446.70346  20889816.797                    20889825.266
 121550119.234 7                  23130198.391
 116761195.487 7                  22218906.195
 127260679.022 7                  24216901.930
 108080932.087 8  84219017.14146  20567098.492                    20567104.605
 125487166.970 6  97782289.08443  23879426.648                    23879437.879
 11  7 27  1 55 30.0000000  0  9G04G12G09G10G17G05G25G02G27
 113067472.022 8  88104654.05545  21516003.906                    21516012.660
 112604308.269 8                  21427887.977
 124316610.290 7  96870112.12844  23656661.898                    23656671.895
 109766665.184 8  85532598.18646  20887899.883                    20887908.359
 121605039.600 7                  23140649.398
 116667307.258 7                  22201039.883
 127160432.795 6                  24197825.180
 108077364.805 8  84216237.45046  20566419.703                    20566426.105
 125551697.034 6  97832572.16943  23891705.648                    23891716.941
 11  7 27  1 56  0.0000000  0  9G04G12G09G10G17G05G25G02G27
 113142386.968 8  88163029.33145  21530259.734                    21530268.438
 112544943.698 8                  21416591.477
 124396669.735 7  96932496.11244  23671895.836                    23671907.297
 109757220.416 8  85525238.65146  20886102.820                    20886111.320
 121660113.945 7                  23151129.797
 116573690.945 7                  22183225.414
 127060351.947 7                  24178780.969
 108074104.182 8  84213696.72346  20565799.297                    20565805.445
 125616307.889 6  97882918.19943  23904001.383                    23904012.016
 11  7 27  1 56 30.0000000  0  9G04G12G09G10G17G05G25G02G27
 113217470.107 8  88221535.67745  21544547.555                    21544556.371
 112486010.181 8                  21405376.813
 124476905.188 7  96995017.23344  23687164.016                    23687175.008
 109748403.986 8  85518368.72546  20884424.914                    20884433.594
 121715342.723 7                  23161639.242
 116480349.761 7                  22165462.523
 126960439.110 7                  24159767.578
 108071149.413 8  84211394.31946  20565236.859                    20565243.258
 125680996.565 6  97933324.89243  23916310.930                    23916322.344
 11  7 27  1 57  0.0000000  0  9G04G12G09G10G17G05G25G02G27
 113292719.632 8  88280171.66645  21558866.820                    21558875.602
 112427510.189 8                  21394244.805
 124557313.184 6  97057672.78944  23702464.898                    23702475.762
 109740216.883 8  85511989.18346  20882867.203                    20882875.359
 121770726.289 7                  23172178.813
 116387286.769 7                  22147753.547
 126860696.989 7                  24140787.367
 108068499.499 8  84209329.46446  20564732.563                    20564738.844
 125745760.605 6  97983790.32043  23928635.344                    23928646.824
 11  7 27  1 57 30.0000000  0  9G04G12G09G10G17G05G25G02G27
 113368133.384 8  88338935.62745  21573217.484                    21573226.711
 112369445.677 8                  21383195.516
 124637890.173 7  97120460.02944  23717799.078                    23717809.504
 109732659.405 8  85506100.25446  20881428.914                    20881437.656
 121826265.207 7                  23182747.125
 116294504.761 7                  22130097.547
 126761128.124 7                  24121839.719
 108066153.379 8  84207501.32946  20564285.867                    20564292.418
 125810597.200 6  98034312.23543  23940972.781                    23940984.379
 11  7 27  1 58  0.0000000  0  9G04G12G09G10G17G05G25G02G27
 113443709.257 8  88397825.92445  21587599.328                    21587608.051
 112311819.086 8                  21372229.539
 124718632.765 7  97183376.31944  23733163.828                    23733174.477
 109725732.020 8  85500702.30846  20880110.758                    20880119.031
 121881959.952 7                  23193345.555
 116202006.736 7                  22112495.602
 126661735.074 7                  24102926.133
 108064110.015 8  84205909.10646  20563897.273                    20563903.617
 125875503.352 6  98084888.41743  23953324.305                    23953335.434
 11  7 27  1 58 30.0000000  0  9G04G12G09G10G17G05G25G02G27
 113519445.153 8  88456840.90645  21602011.414                    21602019.730
 112254632.672 8                  21361347.234
 124799537.748 7  97246419.14944  23748559.133                    23748569.973
 109719435.138 8  85495795.66946  20878912.359                    20878920.844
 121937811.130 7                  23203973.953
 116109795.447 7                  22094948.727
 126562520.378 7                  24084045.781
 108062368.520 8  84204552.11246  20563565.938                    20563572.070
 125940476.417 6  98135516.74643  23965688.656                    23965699.887
 11  7 27  1 59  0.0000000  0  9G04G12G09G10G17G05G25G02G27
 113595339.354 7  88515979.23845  21616453.648                    21616462.910
 112197888.723 8                  21350549.336
 124880601.527 6  97309585.70544  23763985.297                    23763995.707
 109713769.629 8  85491381.00346  20877833.898                    20877842.473
 121993819.039 6                  23214631.609
 116017873.959 7                  22077456.484
 126463486.851 7                  24065201.219
 108060927.721 8  84203429.43646  20563291.750                    20563297.570
 126005513.770 6  98186195.15843  23978063.758                    23978075.797
 11  7 27  1 59 30.0000000  0  9G04G12G09G10G17G05G25G02G27
 113671389.563 8  88575239.13045  21630925.508                    21630934.859
 112141589.632 8                  21339836.039
 124961820.684 7  97372873.35744  23779441.422                    23779451.484
 109708735.825 7  85487458.57046  20876876.359                    20876884.680
 122049984.269 7                  23225319.836
 115926245.069 7                  22060019.992
 126364636.954 7                  24046389.820
 108059786.472 8  84202540.16946  20563074.633                    20563080.738
 126070612.536 6  98236921.41243  23990452.102                    23990464.617
 11  7 27  2  0  0.0000000  0  9G04G12G09G10G17G05G25G02G27
 113747593.925 7  88634619.14745  21645426.672                    21645435.512
 112085737.310 8                  21329207.656
 125043191.956 7  97436279.51244  23794924.977                    23794935.789
 109704334.039 8  85484028.62146  20876038.734                    20876047.215
 122106307.106 7                  23236037.578
 115834911.548 7                  22042639.820
 126265973.319 7                  24027614.891
 108058943.896 8  84201883.63646  20562914.352                    20562920.457
 126135769.933 6  98287693.34443  24002851.875                    24002863.129
 11  7 27  2  0 30.0000000  0  9G04G12G09G10G17G05G25G02G27
 113823950.409 8  88694117.71045  21659957.094                    21659965.664
 112030334.269 8                  21318664.469
 125124712.035 6  97499801.58044  23810437.086                    23810449.188
 109700564.833 8  85481091.59346  20875321.203                    20875329.957
 122162788.041 7                  23246785.547
 115743876.498 7                  22025316.148
 126167498.768 7                  24008875.539
 108058399.026 8  84201459.08346  20562810.453                    20562816.781
 126200983.377 6  98338508.94643  24015261.266                    24015273.422
 11  7 27  2  1  0.0000000  0  9G04G12G09G10G17G05G25G02G27
 113900457.249 7  88753733.42545  21674515.727                    21674524.496
 111975382.967 8                  21308207.695
 125206377.597 6  97563437.03643  23825978.453                    23825989.203
 109697428.631 8  85478647.81646  20874724.633                    20874733.223
 122219427.724 7                  23257563.211
 115653142.988 7                  22008050.273
 126069215.887 7                  23990173.031
 108058150.900 8  84201265.75746  20562763.141                    20562769.453
 126266250.201 6  98389366.15744  24027681.047                    24027693.219
 11  7 27  2  1 30.0000000  0  9G04G12G09G10G17G05G25G02G27
 113977112.020 7  88813464.41245  21689102.711                    21689111.484
 111920885.339 8                  21297837.320
 125288184.716 6  97627182.80943  23841545.891                    23841556.602
 109694925.803 7  85476697.58346  20874248.383                    20874256.816
 122276226.626 7                  23268371.828
 115562713.421 7                  21990842.203
 125971127.084 7                  23971507.133
 108058198.012 8  84201302.47946  20562772.422                    20562778.168
 126331567.375 6  98440262.58143  24040111.227                    24040122.777
 11  7 27  2  2  0.0000000  0  9G04G12G09G10G17G05G25G02G27
 114053912.991 7  88873309.31945  21703717.297                    21703726.488
 111866843.288 8                  21287553.242
 125370129.988 6  97691036.20743  23857138.852                    23857149.820
 109693056.330 8  85475240.87146  20873892.813                    20873901.367
 122333185.043 7                  23279210.602
 115472590.955 7                  21973692.500
 125873234.962 7                  23952879.758
 108058539.275 8  84201568.42146  20562837.375                    20562843.313
 126396932.127 6  98491196.11443  24052549.266                    24052561.207
 11  7 27  2  2 30.0000000  0  9G04G12G09G10G17G05G25G02G27
 114130858.350 7  88933266.74445  21718359.570                    21718367.871
 111813259.482 8                  21277356.875
 125452210.605 6  97754995.09343  23872758.859                    23872769.156
 109691821.091 8  85474278.36046  20873657.500                    20873665.539
 122390303.288 7                  23290080.094
 115382778.493 7                  21956601.688
 125775542.527 7                  23934289.117
 108059174.111 8  84202063.11546  20562958.055                    20562964.090
 126462341.991 6  98542164.74343  24064996.484                    24065008.078
 11  7 27  2  3  0.0000000  0  9G04G12G09G10G17G05G25G02G27
 114207945.877 7  88993334.94745  21733029.039                    21733037.707
 111760136.162 8                  21267247.563
 125534423.077 7  97819056.68943  23888403.211                    23888413.895
 109691219.923 7  85473809.93246  20873543.070                    20873551.805
 122447581.900 7                  23300979.727
 115293278.482 7                  21939570.133
 125678052.020 7                  23915736.305
 108060100.990 8  84202785.37746  20563134.570                    20563140.879
 126527793.819 6  98593166.10943  24077451.570                    24077462.559
 11  7 27  2  3 30.0000000  0  9G04G12G09G10G17G05G25G02G27
 114285173.597 7  89053512.40245  21747724.609                    21747733.402
 111707474.684 8                  21257226.484
 125616763.671 7  97883218.19143  23904072.039                    23904083.082
 109691253.144 7  85473835.84046  20873549.211                    20873557.883
 122505021.394 6                  23311910.023
 115204094.225 7                  21922599.273
 125580766.170 7                  23897223.516
 108061319.011 8  84203734.49946  20563365.969                    20563372.348
 126593285.125 6  98644198.23943  24089914.859                    24089925.656
 11  7 27  2  4  0.0000000  0  9G04G12G09G10G17G05G25G02G27
 114362539.706 7  89113797.67845  21762447.234                    21762455.629
 111655277.619 8                  21247293.766
 125699229.228 7  97947476.98243  23919764.672                    23919775.609
 109691920.754 7  85474356.08146  20873676.109                    20873684.602
 122562622.133 7                  23322871.469
 115115228.376 7                  21905688.359
 125483687.638 7                  23878750.422
 108062827.086 8  84204909.63746  20563653.016                    20563659.547
 126658813.218 6  98695259.07143  24102384.039                    24102394.730
 11  7 27  2  4 30.0000000  0  9G04G12G09G10G17G05G25G02G27
 114440042.037 7  89174189.11245  21777195.430                    21777203.664
 111603547.135 8                  21237449.805
 125781816.221 7  98011830.42543  23935480.836                    23935492.148
 109693222.797 8  85475370.67646  20873924.242                    20873932.871
 122620384.323 6                  23333863.094
 115026683.414 7                  21888838.758
 125386818.956 7                  23860317.727
 108064623.738 8  84206309.64046  20563994.961                    20564001.070
 126724375.251 6  98746346.26543  24114860.180                    24114871.555
 11  7 27  2  5  0.0000000  0  9G04G12G09G10G17G05G25G02G27
 114517678.706 7  89234685.22345  21791968.836                    21791977.773
 111552285.316 8                  21227694.938
 125864521.349 6  98076275.90943  23951218.984                    23951230.164
 109695159.729 7  85476880.00046  20874292.727                    20874300.844
 122678308.626 7                  23344884.961
 114938462.248 7                  21872050.680
 125290162.777 7                  23841924.563
 108066707.948 8  84207933.71746  20564391.656                    20564397.434
 126789968.371 6  98797457.68443  24127342.031                    24127353.707
 11  7 27  2  5 30.0000000  0  9G04G12G09G10G17G05G25G02G27
 114595448.074 7  89295284.73045  21806768.195                    21806776.621
 111501494.470 8                  21218029.805
 125947341.278 6  98140810.84143  23966979.016                    23966990.738
 109697731.671 8  85478884.12846  20874782.023                    20874790.238
 122736395.565 6                  23355938.883
 114850568.254 7                  21855325.094
 125193721.982 7                  23823571.539
 108069079.264 8  84209781.51546  20564842.836                    20564848.895
 126855590.258 6  98848591.53443  24139829.859                    24139840.891
 11  7 27  2  6  0.0000000  0  9G04G12G09G10G17G05G25G02G27
 114673348.241 7  89355986.17545  21821591.922                    21821600.547
 111451176.431 8                  21208454.359
 126030272.766 7  98205432.71743  23982760.414                    23982771.863
 109700938.747 8  85481383.16846  20875392.227                    20875400.906
 122794645.305 7                  23367023.328
 114763004.135 7                  21838662.008
 125097499.137 7                  23805261.008
 108071736.326 8  84211851.97546  20565348.445                    20565354.316
 126921238.080 6  98899745.58843  24152322.164                    24152333.766
 11  7 27  2  6 30.0000000  0  9G04G12G09G10G17G05G25G02G27
 114751377.048 7  89416787.85445  21836440.305                    21836449.063
 111401333.444 8                  21198969.617
 126113312.275 7  98270138.75843  23998562.891                    23998573.855
 109704780.728 8  85484376.93746  20876123.563                    20876131.898
 122853058.332 7                  23378139.508
 114675772.469 7                  21822062.234
 125001496.829 7                  23786992.992
 108074677.780 8  84214144.03946  20565908.289                    20565914.258
 126986908.979 6  98950917.65943  24164819.023                    24164830.379
 11  7 27  2  7  0.0000000  0  9G04G12G09G10G17G05G25G02G27
 114829532.734 7  89477688.39945  21851312.875                    21851321.488
 111351967.414 8                  21189575.695
 126196456.249 7  98334926.19444  24014384.898                    24014395.637
 109709257.646 8  85487865.46546  20876975.305                    20876983.988
 122911634.906 7                  23389286.219
 114588875.775 7                  21805526.219
 124905717.677 7                  23768767.125
 108077902.363 8  84216656.70546  20566521.734                    20566528.313
 127052600.177 6  99002105.50943  24177319.016                    24177330.488
 11  7 27  2  7 30.0000000  0  9G04G12G09G10G17G05G25G02G27
 114907813.199 8  89538686.16445  21866209.078                    21866217.559
 111303080.499 8                  21180272.586
 126279701.525 7  98399792.54943  24030226.945                    24030236.270
 109714369.692 8  85491848.89446  20877948.086                    20877956.582
 122970375.932 7                  23400464.273
 114502317.225 7                  21789055.398
 124810164.463 7                  23750583.195
 108081409.283 8  84219389.37546  20567188.820                    20567195.617
 127118308.839 6  99053306.96143  24189824.156                    24189834.824
 11  7 27  2  8  0.0000000  0  9G04G12G09G10G17G05G25G02G27
 114986216.669 8  89599779.78245  21881128.508                    21881137.387
 111254674.517 8                  21171061.156
 126363044.967 7  98464735.48243  24046085.766                    24046096.383
 109720116.578 8  85496327.00546  20879041.734                    20879050.270
 123029281.521 7                  23411673.891
 114416099.843 7                  21772647.914
 124714839.724 7                  23732443.539
 108085197.445 8  84222341.21246  20567910.195                    20567916.301
 127184032.335 6  99104520.00443  24202330.445                    24202341.848
 11  7 27  2  8 30.0000000  0  9G04G12G09G10G17G05G25G02G27
 115064741.411 8  89660967.89145  21896071.422                    21896079.895
 111206751.766 8                  21161941.727
 126446483.035 7  98529752.11343  24061963.352                    24061973.348
 109726498.562 7  85501299.99346  20880256.273                    20880264.727
 123088351.994 7                  23422914.508
 114330225.735 7                  21756306.938
 124619746.115 7                  23714347.688
 108089265.603 8  84225511.22046  20568683.898                    20568690.285
 127249768.226 6  99155742.70243  24214839.727                    24214851.133
 11  7 27  2  9  0.0000000  0  9G04G12G09G10G17G05G25G02G27
 115143385.647 7  89722249.13045  21911037.031                    21911045.797
 111159314.835 8                  21152915.156
 126530012.473 6  98594839.90943  24077858.211                    24077870.004
 109733515.591 8  85506767.82646  20881591.414                    20881599.707
 123147587.934 7                  23434186.438
 114244698.158 8                  21740031.469
 124524886.572 7                  23696296.992
 108093612.974 8  84228898.80546  20569511.359                    20569517.219
 127315513.755 6  99206972.88743  24227350.953                    24227361.703
 11  7 27  2  9 30.0000000  0  9G04G12G09G10G17G05G25G02G27
 115222147.370 7  89783621.89945  21926025.039                    21926033.898
 111112364.335 8                  21143980.352
 126613629.991 6  98659996.35743  24093770.375                    24093781.953
 109741167.376 7  85512730.26946  20883047.477                    20883055.945
 123206989.441 7                  23445490.727
 114159519.547 7                  21723822.922
 124430263.505 7                  23678290.961
 108098238.071 8  84232502.80546  20570391.180                    20570397.816
 127381265.875 6  99258208.26143  24239863.016                    24239874.602
 11  7 27  2 10  0.0000000  0  9G04G12G09G10G17G05G25G02G27
 115301024.615 8  89845084.68145  21941034.766                    21941043.777
 111065902.898 8                  21135138.922
 126697332.092 6  98725218.69143  24109698.398                    24109709.703
 109749453.517 8  85519187.01446  20884624.633                    20884633.457
 123266557.011 7                  23456825.727
 114074692.647 8                  21707680.492
 124335879.516 7                  23660329.852
 108103139.664 8  84236322.26246  20571323.938                    20571330.191
 127447022.237 6  99309446.89243  24252375.555                    24252388.105
 11  7 27  2 10 30.0000000  0  9G04G12G09G10G17G05G25G02G27
 115380015.719 7  89906636.19145  21956066.305                    21956074.746
 111019932.449 8                  21126391.344
 126781115.610 6  98790504.50743  24125641.961                    24125653.199
 109758373.938 8  85526138.01046  20886321.984                    20886330.402
 123326290.952 7                  23468192.781
 113990220.513 8                  21691605.945
 124241737.368 6                  23642413.766
 108108316.628 8  84240356.28346  20572309.094                    20572315.535
 127512779.940 6  99360686.57143  24264889.320                    24264900.438
 11  7 27  2 11  0.0000000  0  9G04G12G09G10G17G05G25G02G27
 115459119.103 7  89968275.18745  21971119.086                    21971128.234
 110974455.363 8                  21117737.039
 126864977.232 6  98855851.19943  24141600.695                    24141611.648
 109767928.825 8  85533583.39146  20888140.125                    20888148.652
 123386191.808 7                  23479591.641
 113906106.019 8                  21675599.367
 124147839.921 7                  23624546.273
 108113768.331 8  84244604.38346  20573346.531                    20573353.234
 127578536.369 6  99411925.27643  24277401.836                    24277413.863
 11  7 27  2 11 30.0000000  0  9G04G12G09G10G17G05G25G02G27
 115538332.771 7  90030000.12345  21986192.570                    21986201.785
 110929473.387 8                  21109177.633
 126948913.759 6  98921256.24343  24157572.891                    24157584.250
 109778117.619 8  85541522.72646  20890078.836                    20890087.176
 123446259.950 7                  23491021.820
 113822351.824 8                  21659661.383
 124054189.885 7                  23606726.672
 108119493.586 8  84249065.63946  20574435.695                    20574442.234
 127644288.887 6  99463160.88743  24289914.617                    24289926.906
 11  7 27  2 12  0.0000000  0  9G04G12G09G10G17G05G25G02G27
 115617654.694 7  90091809.41245  22001287.508                    22001295.973
 110884987.933 8                  21100712.156
 127032921.781 6  98986716.97243  24173559.297                    24173570.285
 109788939.795 8  85549955.61546  20892138.414                    20892146.465
 123506495.442 7                  23502483.898
 113738960.169 8                  21643792.648
 123960789.586 7                  23588952.828
 108125490.697 8  84253738.71446  20575577.234                    20575583.453
 127710034.594 6  99514391.24243  24302425.828                    24302437.855
 11  7 27  2 12 30.0000000  0  9G04G12G09G10G17G05G25G02G27
 115697083.160 7  90153701.72345  22016402.305                    22016410.688
 110841001.534 8                  21092341.586
 127116997.837 6  99052230.75043  24189558.289                    24189569.445
 109800395.462 8  85558882.12746  20894318.070                    20894326.414
 123566899.023 7                  23513978.984
 113655933.949 8                  21627992.930
 123867641.799 7                  23571227.055
 108131758.912 8  84258623.05746  20576770.063                    20576776.156
 127775771.137 6  99565614.43443  24314935.000                    24314947.035
 11  7 27  2 13  0.0000000  0  9G04G12G09G10G17G05G25G02G27
 115776616.599 7  90215675.83445  22031536.820                    22031546.078
 110797515.755 8                  21084066.570
 127201138.679 6  99117794.99143  24205569.719                    24205580.891
 109812484.005 8  85568301.78646  20896618.500                    20896626.629
 123627470.788 7                  23525505.406
 113573275.961 8                  21612263.898
 123774749.233 7                  23553549.898
 108138296.974 8  84263717.67146  20578014.352                    20578020.555
 127841495.619 6  99616828.30943  24327441.938                    24327453.773
 11  7 27  2 13 30.0000000  0  9G04G12G09G10G17G05G25G02G27
 115856253.032 7  90277730.19645  22046690.742                    22046700.355
 110754532.887 8                  21075887.281
 127285341.271 6  99183407.38143  24221592.695                    24221603.492
 109825205.180 8  85578214.40946  20899039.289                    20899047.578
 123688211.255 7                  23537062.789
 113490988.895 8                  21596604.891
 123682114.789 7                  23535922.836
 108145103.924 8  84269021.81546  20579309.477                    20579315.668
 127907205.599 6  99668030.83743  24339946.313                    24339956.918
 11  7 27  2 14  0.0000000  0  9G04G12G09G10G17G05G25G02G27
 115935990.744 7  90339863.48145  22061864.594                    22061873.449
 110712053.668 8                  21067803.727
 127369601.881 6  99249064.92143  24237627.508                    24237637.777
 109838558.205 8  85588619.38346  20901579.953                    20901588.633
 123749120.508 7                  23548654.477
 113409074.953 8                  21581017.313
 123589740.707 7                  23518345.195
 108152178.106 8  84274534.19046  20580655.570                    20580662.008
 127972897.912 6  99719219.61243  24352447.266                    24352458.973
 11  7 27  2 14 30.0000000  0  9G04G12G09G10G17G05G25G02G27
 116015827.942 7  90402074.28145  22077057.164                    22077065.996
 110670080.842 8                  21059816.352
 127453917.592 6  99314765.43943  24253672.086                    24253682.891
 109852543.373 8  85599516.93646  20904241.586                    20904250.203
 123810199.144 7                  23560276.945
 113327537.432 8                  21565501.016
 123497629.987 7                  23500816.531
 108159518.804 8  84280254.23446  20582052.578                    20582058.602
 128038570.387 6  99770392.89343  24364944.414                    24364956.059
 11  7 27  2 15  0.0000000  0  9G04G12G09G10G17G05G25G02G27
 116095763.008 7  90464361.34945  22092268.477                    22092277.430
 110628616.216 8                  21051926.133
 127538285.029 6  99380506.25643  24269726.828                    24269738.363
 109867159.728 8  85610906.31946  20907022.930                    20907031.539
 123871447.376 7                  23571932.438
 113246378.835 8                  21550057.125
 123405785.186 7                  23483338.766
 108167124.797 8  84286181.01846  20583499.906                    20583505.992
 128104220.307 5  99821548.56743  24377435.938                    24377448.742
 11  7 27  2 15 30.0000000  0  9G04G12G09G10G17G05G25G02G27
 116175794.013 7  90526723.17645  22107497.398                    22107506.590
 110587661.258 8                  21044132.297
 127622700.913 6  99446284.80443  24285790.609                    24285801.844
 109882406.941 8  85622787.28446  20909924.430                    20909932.813
 123932865.680 7                  23583619.688
 113165601.462 8                  21534685.695
 123314209.005 7                  23465912.242
 108174995.022 8  84292313.68646  20584997.766                    20585003.508
 128169844.949 6  99872684.59843  24389924.813                    24389936.941
 11  7 27  2 16  0.0000000  0  9G04G12G09G10G17G05G25G02G27
 116255919.594 7  90589158.69545  22122744.984                    22122753.660
 110547218.052 8                  21036436.313
 127707162.000 6  99512098.56743  24301863.195                    24301874.238
 109898284.631 8  85635159.53246  20912945.727                    20912953.711
 123994454.433 6                  23595340.227
 113085208.400 8                  21519387.344
 123222904.213 7                  23448537.586
 108183128.371 8  84298651.38646  20586545.000                    20586550.996
 128235441.555 6  99923798.77943  24402407.789                    24402419.797
 11  7 27  2 16 30.0000000  0  9G04G12G09G10G17G05G25G02G27
 116336137.655 7  90651666.27345  22138010.102                    22138018.816
 110507288.161 8                  21028838.117
 127791665.079 6  99577945.04043  24317943.523                    24317954.152
 109914792.146 8  85648022.54946  20916086.992                    20916095.344
 124056213.605 6                  23607092.484
 113005202.172 8                  21504162.477
 123131873.491 7                  23431215.586
 108191523.392 8  84305192.99246  20588142.766                    20588148.578
 128301007.624 6  99974889.16143  24414884.219                    24414896.488
 11  7 27  2 17  0.0000000  0  9G04G12G09G10G17G05G25G02G27
 116416446.885 7  90714244.90145  22153292.547                    22153301.020
 110467873.451 7                  21021337.227
 127876207.068 6  99643821.86843  24334031.727                    24334042.543
 109931928.965 8  85661375.93546  20919348.031                    20919356.016
 124118143.710 6                  23618877.414
 112925585.376 8                  21489012.055
 123041119.459 7                  23413945.125
 108200179.420 8  84311937.96446  20589789.961                    20589796.063
 128366540.473 6 100025953.62643  24427355.414                    24427367.012
 11  7 27  2 17 30.0000000  0  9G04G12G09G10G17G05G25G02G27
 116496845.405 7  90776893.09245  22168591.820                    22168600.016
 110428975.795 8                  21013935.500
 127960784.516 6  99709726.26743  24350125.586                    24350137.145
 109949694.571 8  85675219.28846  20922728.734                    20922737.109
 124180245.372 6                  23630694.672
 112846360.842 8                  21473936.414
 122950644.828 6                  23396726.992
 108209095.207 8  84318885.35546  20591486.453                    20591492.496
 128432037.526 6 100076990.22043  24439819.250                    24439830.395
 11  7 27  2 18  0.0000000  0  9G04G12G09G10G17G05G25G02G27
 116577331.548 7  90839609.56645  22183908.109                    22183916.676
 110390596.791 7                  21006631.844
 128045394.366 6  99775655.96543  24366226.977                    24366238.422
 109968088.218 7  85689552.02546  20926228.867                    20926237.000
 124242518.602 6                  23642544.820
 112767530.969 8                  21458935.086
 122860452.243 7                  23379564.930
 108218269.526 8  84326034.20446  20593232.273                    20593238.363
 128497496.083 6 100127996.81043  24452275.789                    24452287.277
 11  7 27  2 18 30.0000000  0  9G04G12G09G10G17G05G25G02G27
 116657903.461 7  90902392.86545  22199239.906                    22199248.902
 110352737.938 8                  20999427.680
 128130033.245 6  99841608.23043  24382333.484                    24382344.656
 109987109.162 8  85704373.55746  20929848.305                    20929856.590
 124304963.569 6                  23654427.516
 112689098.138 8                  21444010.055
 122770544.351 7                  23362456.758
 108227700.996 8  84333383.42846  20595026.867                    20595033.117
 128562913.657 6 100178971.44142  24464724.438                    24464736.184
 11  7 27  2 19  0.0000000  0  9G04G12G09G10G17G05G25G02G27
 116738559.621 7  90965241.79945  22214588.328                    22214597.176
 110315400.955 8                  20992322.859
 128214697.805 6  99907580.58843  24398444.039                    24398454.941
 110006756.642 8  85719683.31446  20933587.383                    20933595.652
 124367580.683 6                  23666343.250
 112611064.878 8                  21429160.047
 122680923.801 7                  23345402.188
 108237388.604 8  84340932.23546  20596870.578                    20596876.750
 128628287.609 6 100229912.09642  24477164.703                    24477176.391
 11  7 27  2 19 30.0000000  0  9G04G12G09G10G17G05G25G02G27
 116819298.183 7  91028154.95445  22229952.625                    22229961.438
 110278587.725 7                  20985317.648
 128299384.925 6  99973570.50543  24414559.906                    24414570.813
 110027029.954 8  85735480.72446  20937444.938                    20937453.352
 124430370.186 6                  23678292.039
 112533433.780 8                  21414387.758
 122591593.107 7                  23328402.461
 108247330.985 8  84348679.57646  20598762.188                    20598768.180
 128693615.288 6 100280816.75442  24489596.047                    24489607.953
 11  7 27  2 20  0.0000000  0  8G04G12G09G10G17G05G25G02
 116900118.355 7  91091131.69645  22245331.953                    22245341.016
 110242300.276 8                  20978412.422
 128384092.268 6 100039576.21743  24430679.164                    24430689.781
 110047928.825 7  85751765.58346  20941422.125                    20941430.285
 124493333.115 7                  23690273.781
 112456208.067 8                  21399692.188
 122502555.697 7                  23311459.328
 108257528.056 8  84356625.37246  20600702.617                    20600708.891
 11  7 27  2 20 30.0000000  0  8G04G12G09G10G17G05G25G02
 116981017.729 7  91154170.15445  22260726.805                    22260735.574
 110206539.711 7                  20971607.086
 128468815.863 6 100105594.49843  24446801.359                    24446813.152
 110069451.973 7  85768536.88646  20945517.922                    20945525.969
 124556468.874 7                  23702287.625
 112379389.812 8                  21385074.125
 122413813.615 7                  23294572.367
 108267977.637 8  84364767.92846  20602691.438                    20602697.328
 11  7 27  2 21  0.0000000  0  8G04G12G09G10G17G05G25G02
 117061994.822 7  91217269.16245  22276136.055                    22276145.488
 110171307.750 8                  20964902.711
 128553552.385 6 100171622.89543  24462926.484                    24462937.590
 110091598.981 8  85785794.31646  20949731.992                    20949740.289
 124619777.889 7                  23714334.695
 112302981.364 8                  21370534.250
 122325369.598 7                  23277742.133
 108278678.749 8  84373106.48446  20604727.781                    20604733.570
 11  7 27  2 21 30.0000000  0  8G04G12G09G10G17G05G25G02
 117143047.688 7  91280427.20545  22291559.914                    22291568.902
 110136605.609 8                  20958299.086
 128638298.766 6 100237658.96743  24479053.234                    24479063.945
 110114368.820 8  85803537.07146  20954065.211                    20954072.914
 124683260.331 7                  23726415.852
 112226985.061 8                  21356072.609
 122237226.068 7                  23260968.531
 108289629.950 8  84381639.91346  20606811.641                    20606817.570
 11  7 27  2 22  0.0000000  0  8G04G12G09G10G17G05G25G02
 117224175.104 7  91343643.35145  22306998.336                    22307006.852
 110102435.004 8                  20951796.875
 128723051.789 5 100303700.21043  24495181.445                    24495192.340
 110137761.017 7  85821764.78446  20958516.445                    20958524.949
 124746916.688 7                  23738528.602
 112151403.743 8                  21341689.531
 122149385.931 7                  23244252.797
 108300830.486 8  84390367.62346  20608942.898                    20608948.980
 11  7 27  2 22 30.0000000  0  8G04G12G09G10G17G05G25G02
 117305375.448 7  91406916.32045  22322450.109                    22322458.848
 110068797.599 8                  20945395.359
 128807808.46816 100369744.28253  24511309.086                    24511320.824
 110161774.309 8  85840476.46146  20963085.867                    20963094.555
 124810747.110 7                  23750675.398
 112076239.904 8                  21327386.461
 122061851.818 7                  23227596.125
 108312279.098 8  84399288.64346  20611121.547                    20611127.602
 11  7 27  2 23  0.0000000  0  8G04G12G09G10G17G05G25G02
 117386646.793 7  91470244.60745  22337915.508                    22337924.305
 110035694.612 8                  20939096.594
 128892565.475 6 100435788.66143  24527438.477                    24527449.703
 110186407.571 7  85859671.22646  20967773.492                    20967781.793
 124874751.616 7                  23762854.695
 112001495.692 8                  21313163.188
 121974626.233 7                  23210997.695
 108323974.370 8  84408401.85846  20613347.086                    20613353.254
 11  7 27  2 23 30.0000000  0  8G04G12G09G10G17G05G25G02
 117467987.617 7  91533627.04045  22353394.234                    22353403.004
 110003127.880 8                  20932899.484
 128977319.710 6 100501830.84443  24543566.563                    24543578.309
 110211659.895 7  85879348.38246  20972579.055                    20972587.012
 124938930.629 7                  23775067.320
 111927173.564 8                  21299019.984
 121887711.853 7                  23194458.125
 108335915.309 8  84417706.50546  20615619.375                    20615625.246
 11  7 27  2 24  0.0000000  0  8G04G12G09G10G17G05G25G02
 117549396.778 7  91597062.71345  22368885.938                    22368894.652
 109971099.619 8                  20926804.500
 129062068.044 6 100567868.48943  24559693.656                    24559705.617
 110237530.366 7  85899507.21546  20977501.906                    20977510.156
 125003284.385 7                  23787313.383
 111853275.942 8                  21284957.781
 121801111.479 7                  23177977.703
 108348100.995 8  84427201.86946  20617938.305                    20617944.473
 11  7 27  2 24 30.0000000  0  8G04G12G09G10G17G05G25G02
 117630872.604 7  91660550.34245  22384390.156                    22384399.398
 109939610.274 8                  20920811.898
 129146807.327 6 100633899.04843  24575819.117                    24575831.180
 110264018.437 7  85920147.29046  20982542.195                    20982550.813
 125067813.262 7                  23799593.242
 111779806.015 8                  21270977.180
 121714827.962 7                  23161559.328
 108360530.257 8  84436887.03046  20620303.617                    20620309.363
 11  7 27  2 25  0.0000000  0  8G04G12G09G10G17G05G25G02
 117712413.305 7  91724088.52645  22399907.063                    22399915.852
 109908661.294 8                  20914922.688
 129231534.583 6 100699920.23043  24591941.953                    24591953.441
 110291122.891 7  85941267.66246  20987700.070                    20987708.094
 125132517.291 7                  23811905.852
 111706765.669 8                  21257077.898
 121628863.651 7                  23145201.031
 108373201.666 8  84446760.86846  20622714.391                    20622720.566
 11  7 27  2 25 30.0000000  0  8G04G12G09G10G17G05G25G02
 117794017.452 7  91787676.15044  22415435.625                    22415444.656
 109878254.299 8                  20909136.297
 129316246.464 5 100765929.44143  24608062.469                    24608073.813
 110318842.338 7  85962867.25646  20992975.242                    20992983.004
 125197396.665 7                  23824252.258
 111634157.071 8                  21243260.852
 121543221.141 7                  23128904.070
 108386113.968 8  84456822.42246  20625171.719                    20625177.625
 11  7 27  2 26  0.0000000  0  8G04G12G09G10G17G05G25G02
 117875683.487 7  91851311.99844  22430976.156                    22430985.086
 109848390.741 7                  20903453.805
 129400939.839 6 100831924.20943  24624178.852                    24624190.938
 110347175.479 8  85984945.04746  20998366.617                    20998375.078
 125262451.577 7                  23836632.641
 111561982.453 8                  21229526.570
 121457903.011 7                  23112667.852
 108399266.095 8  84467070.83446  20627674.656                    20627680.457
 11  7 27  2 26 30.0000000  0  8G04G12G09G10G17G05G25G02
 117957409.967 7  91914994.95744  22446528.398                    22446537.055
 109819072.008 8                  20897874.250
 129485611.608 6 100897902.14143  24640292.313                    24640302.727
 110376121.909 8  86007500.72446  21003875.148                    21003883.180
 125327682.544 7                  23849045.469
 111490244.537 8                  21215874.891
 121372912.060 7                  23096494.242
 108412657.006 8  84477505.32246  20630222.602                    20630228.645
 11  7 27  2 27  0.0000000  0  8G04G12G09G10G17G05G25G02
 118039195.283 7  91978723.76345  22462091.453                    22462100.242
 109790299.382 7                  20892399.430
 129570259.129 6 100963861.17743  24656399.367                    24656410.785
 110405680.337 8  86030533.28846  21009499.641                    21009507.516
 125393089.677 7                  23861490.891
 111418945.948 8                  21202307.359
 121288250.908 7                  23080384.148
 108426285.913 8  84488125.26946  20632816.336                    20632822.141
 11  7 27  2 27 30.0000000  0  8G04G12G09G10G17G05G25G02
 118121038.226 7  92042497.48044  22477665.828                    22477674.730
 109762074.634 8                  20887028.109
 129654879.292 6 101029798.92243  24672502.266                    24672514.738
 110435849.899 7  86054042.05646  21015240.734                    21015248.609
 125458672.863 7                  23873971.359
 111348089.042 8                  21188823.602
 121203922.452 7                  23064337.156
 108440151.458 8  84498929.59746  20635454.844                    20635460.387
 11  7 27  2 28  0.0000000  0  8G04G12G09G10G17G05G25G02
 118202936.986 7  92106314.69144  22493250.578                    22493259.309
 109734398.613 8                  20881761.359
 129739468.623 6 101095712.59543  24688600.352                    24688611.156
 110466628.924 7  86078025.73546  21021097.984                    21021105.816
 125524432.545 6                  23886485.063
 111277675.678 8                  21175424.258
 121119929.001 7                  23048353.938
 108454252.313 8  84509917.28546  20638138.031                    20638144.336
 11  7 27  2 28 30.0000000  0  8G04G12G09G10G17G05G25G02
 118284890.349 7  92170174.44544  22508846.320                    22508854.633
 109707273.154 7                  20876599.867
 129824024.037 6 101161599.87743  24704690.180                    24704701.918
 110498016.303 7  86102483.43946  21027070.609                    21027078.836
 125590368.992 6                  23899032.352
 111207708.366 8                  21162110.297
 121036273.241 7                  23032434.234
 108468587.288 8  84521087.40246  20640865.789                    20640871.969
 11  7 27  2 29  0.0000000  0  8G04G12G09G10G17G05G25G02
 118366896.618 7  92234075.43444  22524450.945                    22524459.559
 109680698.852 8                  20871542.617
 129908542.604 6 101227458.45943  24720773.680                    24720784.945
 110530010.793 7  86127414.23345  21033158.859                    21033166.938
 125656482.135 6                  23911612.773
 111138189.349 8                  21148881.039
 120952957.735 7                  23016579.766
 108483155.170 8  84532439.00646  20643638.148                    20643644.066
 11  7 27  2 29 30.0000000  0  8G04G12G09G10G17G05G25G02
 118448954.376 7  92298016.56044  22540066.258                    22540074.754
 109654677.467 8                  20866591.063
 129993021.433 6 101293286.04343  24736849.742                    24736860.426
 110562611.495 7  86152817.39145  21039362.602                    21039370.398
 125722772.257 6                  23924227.617
 111069121.080 8                  21135737.625
 120869985.266 7                  23000791.336
 108497955.012 8  84543971.35846  20646454.750                    20646460.465
 11  7 27  2 30  0.0000000  0  8G04G12G09G10G17G05G25G02
 118531062.121 7  92361996.62244  22555691.047                    22555699.445
 109629209.758 7                  20861744.836
 130077457.437 6 101359080.26143  24752917.234                    24752928.297
 110595816.625 7  86178691.53246  21045681.500                    21045689.359
 125789239.395 6                  23936875.648
 111000505.338 8                  21122680.898
 120787358.195 7                  22985067.719
 108512985.511 8  84555683.45246  20649314.508                    20649320.832
 11  7 27  2 30 30.0000000  0  8G04G12G09G10G17G05G25G02
 118613218.515 7  92426014.59244  22571324.938                    22571333.500
 109604297.059 8                  20857004.047
 130161847.570 6 101424838.74143  24768975.945                    24768986.910
 110629625.006 7  86205035.74246  21052114.992                    21052123.207
 125855883.810 6                  23949558.547
 110932344.977 8                  21109710.000
 120705079.241 7                  22969410.344
 108528245.666 8  84567574.49946  20652218.438                    20652224.375
 11  7 27  2 31  0.0000000  0  8G04G12G09G10G17G05G25G02
 118695422.233 7  92490069.43044  22586967.609                    22586976.113
 109579940.901 8                  20852368.789
 130246188.697 6 101490559.02042  24785025.328                    24785036.684
 110664035.367 7  86231849.03046  21058662.609                    21058671.074
 125922705.749 6                  23962273.148
 110864642.078 8                  21096826.453
 120623151.136 7                  22953819.750
 108543734.492 8  84579643.72946  20655166.055                    20655171.859
 11  7 27  2 31 30.0000000  0  8G04G12G09G10G17G05G25G02
 118777671.786 7  92554160.00344  22602618.906                    22602627.766
 109556142.381 8                  20847840.367
 130330477.740 6 101556238.74342  24801065.563                    24801076.563
 110699046.708 8  86259130.59546  21065325.367                    21065333.434
 125989705.394 6                  23975023.281
 110797398.882 8                  21084030.586
 120541576.444 7                  22938296.977
 108559450.412 8  84591889.90646  20658156.484                    20658162.441
 11  7 27  2 32  0.0000000  0  8G04G12G09G10G17G05G25G02
 118859965.732 7  92618285.17644  22618278.773                    22618287.410
 109532902.822 8                  20843418.172
 130414711.856 6 101621875.64942  24817094.250                    24817105.738
 110734657.435 7  86286879.23245  21072101.617                    21072109.813
 126056882.898 6                  23987806.578
 110730617.588 8                  21071322.500
 120460357.820 7                  22922841.633
 108575392.893 8  84604312.64146  20661190.328                    20661195.910
 11  7 27  2 32 30.0000000  0  8G04G12G09G10G17G05G25G02
 118942302.783 7  92682443.93144  22633947.047                    22633956.266
 109510222.915 8                  20839102.469
 130498887.993 6 101687467.38042  24833112.250                    24833123.137
 110770865.715 8  86315093.49646  21078992.148                    21078999.938
 126124238.064 6                  24000624.695
 110664300.251 8                  21058702.711
 120379497.545 7                  22907454.305
 108591560.062 8  84616910.45446  20664266.844                    20664272.668
 11  7 27  2 33  0.0000000  0  8G04G12G09G10G17G05G25G02
 119024681.404 7  92746635.07044  22649623.328                    22649632.336
 109488103.875 8                  20834892.938
 130583003.246 6 101753011.66543  24849119.164                    24849130.449
 110807670.467 7  86343772.53546  21085995.445                    21086003.605
 126191771.297 6                  24013474.984
 110598449.068 8                  21046171.445
 120298998.451 7                  22892135.516
 108607951.167 8  84629682.76146  20667385.883                    20667391.766
 11  7 27  2 33 30.0000000  0  7G04G12G10G17G05G25G02
 119107102.221 7  92810859.09344  22665307.531                    22665316.297
 109466548.912 8                  20830791.555
 110845072.324 7  86372916.85546  21093113.047                    21093121.531
 126259484.631 6                  24026361.250
 110533068.124 8                  21033730.273
 120218865.059 7                  22876886.297
 108624567.110 8  84642630.26746  20670547.586                    20670553.867
 11  7 27  2 34  0.0000000  0  7G04G12G10G17G05G25G02
 119189561.723 7  92875113.25044  22680998.547                    22681007.871
 109445556.687 8                  20826796.289
 110883067.325 8  86402523.37046  21100343.289                    21100351.313
 126327375.768 6                  24039280.563
 110468157.331 8                  21021377.773
 120139097.634 7                  22861707.711
 108641404.176 8  84655750.07446  20673751.648                    20673757.469
 11  7 27  2 34 30.0000000  0  7G04G12G10G17G05G25G02
 119272058.490 7  92939396.44244  22696697.766                    22696706.648
 109425128.546 8                  20822909.328
 110921653.975 8  86432590.90545  21107686.273                    21107693.934
 126395444.900 6                  24052233.859
 110403718.971 8                  21009115.414
 120059698.775 7                  22846598.492
 108658461.659 8  84669041.65046  20676997.398                    20677003.531
 11  7 27  2 35  0.0000000  0  7G04G12G10G17G05G25G02
 119354591.216 7  93003707.67144  22712402.914                    22712412.207
 109405265.072 8                  20819129.359
 110960830.780 7  86463118.29346  21115141.086                    21115149.309
 126463692.273 6                  24065220.133
 110339755.038 8                  20996943.766
 119980671.026 7                  22831559.633
 108675738.346 8  84682504.03346  20680285.125                    20680291.066
 11  7 27  2 35 30.0000000  0  7G04G12G10G17G05G25G02
 119437158.725 7  93068045.98244  22728115.320                    22728123.996
 109385967.700 8                  20815457.164
 111000596.597 8  86494104.65545  21122708.172                    21122716.316
 126532118.024 6                  24078241.797
 110276268.044 8                  20984862.711
 119902017.257 7                  22816591.859
 108693233.336 8  84696136.51646  20683614.445                    20683620.168
 11  7 27  2 36  0.0000000  0  7G04G12G10G17G05G25G02
 119519759.465 7  93132410.21344  22743833.344                    22743842.410
 109367236.897 8                  20811892.766
 111040949.263 8  86525548.31345  21130387.141                    21130395.355
 126600722.124 6                  24091296.047
 110213259.393 8                  20972872.266
 119823739.456 7                  22801697.016
 108710944.800 8  84709937.68346  20686984.781                    20686990.773
 11  7 27  2 36 30.0000000  0  7G04G12G10G17G05G25G02
 119602392.362 7  93196799.50144  22759558.117                    22759566.832
 109349074.330 8                  20808436.758
 111081887.726 7  86557448.42645  21138177.195                    21138185.352
 126669504.839 6                  24104385.477
 110150731.403 8                  20960973.172
 119745840.648 7                  22786873.055
 108728872.334 8  84723907.21346  20690396.320                    20690402.137
 11  7 27  2 37  0.0000000  0  7G04G12G10G17G05G25G02
 119685055.931 7  93261212.67144  22775288.969                    22775297.297
 109331480.316 8                  20805088.680
 111123410.140 8  86589803.57145  21146078.711                    21146086.816
 126738466.264 6                  24117508.273
 110088686.292 8                  20949166.570
 119668323.170 7                  22772122.047
 108747014.532 8  84738044.01346  20693848.742                    20693854.309
 11  7 27  2 37 30.0000000  0  7G04G12G10G17G05G25G02
 119767749.242 7  93325649.01144  22791024.398                    22791033.516
 109314456.453 8                  20801849.102
 111165515.171 8  86622612.70645  21154091.055                    21154099.328
 126807606.308 6                  24130664.664
 110027126.284 8                  20937452.313
 119591189.814 7                  22757443.695
 108765370.639 8  84752347.49346  20697341.703                    20697347.551
 11  7 27  2 38  0.0000000  0  7G04G12G10G17G05G25G02
 119850470.907 7  93390107.44644  22806765.875                    22806774.773
 109298003.117 8                  20798717.625
 111208200.838 8  86655874.27745  21162213.852                    21162221.789
 126876925.090 6                  24143856.000
 109966053.483 8                  20925830.391
 119514443.037 7                  22742839.750
 108783939.281 8  84766816.58546  20700875.141                    20700881.199
 11  7 27  2 38 30.0000000  0  7G04G12G10G17G05G25G02
 119933219.448 7  93454586.81444  22822512.195                    22822521.262
 109282121.106 8                  20795695.508
 111251465.654 8  86689587.13645  21170446.867                    21170454.746
 126946422.702 6                  24157080.523
 109905469.203 8                  20914301.547
 119438085.143 7                  22728308.992
 108802719.131 8  84781450.26046  20704448.813                    20704454.160
 11  7 27  2 39  0.0000000  0  7G04G12G10G17G05G25G02
 120015993.923 7  93519086.40944  22838264.094                    22838272.602
 109266811.808 8                  20792782.555
 111295308.194 8  86723750.17445  21178789.781                    21178797.949
 127016099.370 6                  24170339.852
 109845376.194 8                  20902865.938
 119362119.024 8                  22713853.109
 108821709.782 8  84796248.19046  20708062.758                    20708068.418
 11  7 27  2 39 30.0000000  0  7G04G12G10G17G05G25G02
 120098792.806 7  93583605.02244  22854019.758                    22854028.348
 109252075.560 8                  20789978.289
 111339726.132 8  86758361.57245  21187242.438                    21187250.301
 127085954.929 6                  24183633.305
 109785775.553 8                  20891524.703
 119286546.754 7                  22699472.148
 108840909.478 8  84811209.01946  20711716.406                    20711721.898
 11  7 27  2 40  0.0000000  0  7G04G12G10G17G05G25G02
 120181614.722 7  93648141.53444  22869780.602                    22869789.492
 109237912.946 8                  20787282.992
 111384717.823 8  86793420.05545  21195804.094                    21195811.832
 127155989.308 6                  24196959.844
 109726669.451 8                  20880276.891
 119211370.802 7                  22685166.578
 108860316.791 8  84826331.62146  20715409.055                    20715415.027
 11  7 27  2 40 30.0000000  0  7G04G12G10G17G05G25G02
 120264458.947 7  93712695.46244  22885545.164                    22885553.953
 109224325.294 8                  20784697.391
 111430281.873 8  86828924.53145  21204474.828                    21204483.051
 127226202.780 6                  24210320.430
 109668060.585 8                  20869124.227
 119136594.082 7                  22670936.953
 108879931.594 8  84841615.90346  20719141.695                    20719147.121
 11  7 27  2 41  0.0000000  0  7G04G12G10G17G05G25G02
 120347324.361 7  93777265.86344  22901313.945                    22901322.504
 109211313.328 8                  20782221.500
 111476416.686 8  86864873.76145  21213253.758                    21213261.965
 127296595.335 6                  24223716.414
 109609950.548 8                  20858066.141
 119062219.076 7                  22656783.383
 108899752.648 8  84857060.89246  20722913.719                    20722919.301
 11  7 27  2 41 30.0000000  0  7G04G12G10G17G05G25G02
 120430209.285 7  93841851.48744  22917086.336                    22917095.652
 109198877.310 8                  20779854.688
 111523119.688 8  86901265.72045  21222140.797                    21222149.074
 127367166.842 6                  24237145.023
 109552340.740 8                  20847103.375
 118988247.762 7                  22642707.617
 108919778.210 8  84872665.24746  20726724.234                    20726729.754
 11  7 27  2 42  0.0000000  0  7G04G12G10G17G05G25G02
 120513112.652 7  93906451.49644  22932862.539                    22932871.043
 109187018.404 8                  20777598.070
 111570389.536 7  86938099.39145  21231135.922                    21231144.133
 127437917.358 6                  24250608.555
 109495233.261 8                  20836236.023
 118914682.980 7                  22628708.195
 108940007.823 8  84888428.59246  20730574.063                    20730579.973
 11  7 27  2 42 30.0000000  0  8G04G12G29G10G17G05G25G02
 120596033.421 7  93971065.05044  22948641.219                    22948650.684
 109175736.932 8                  20775451.523
 129530312.19316                  24648808.766
 111618224.219 7  86975373.18546  21240238.656                    21240246.832
 127508846.833 6                  24264106.930
 109438629.962 8                  20825464.836
 118841527.076 7                  22614787.078
 108960440.122 8  84904349.89146  20734461.828                    20734467.797
 11  7 27  2 43  0.0000000  0  8G04G12G29G10G17G05G25G02
 120678970.315 7  94035691.17944  22964424.336                    22964432.945
 109165033.993 8                  20773414.594
 129450155.296 6                  24633555.992
 111666622.102 7  87013085.84245  21249448.359                    21249456.473
 127579955.336 6                  24277638.000
 109382532.568 8                  20814790.055
 118768782.457 7                  22600944.375
 108981074.014 8  84920428.25746  20738388.258                    20738394.273
 11  7 27  2 43 30.0000000  0  8G04G12G29G10G17G05G25G02
 120761922.026 7  94100328.84844  22980209.875                    22980218.707
 109154909.545 8                  20771487.859
 129369929.806 6                  24618288.813
 111715580.405 7  87051235.18846  21258765.047                    21258772.918
 127651242.758 6                  24291204.008
 109326942.641 8                  20804211.578
 118696451.310 7                  22587180.328
 109001908.296 8  84936662.77846  20742353.359                    20742359.051
 11  7 27  2 44  0.0000000  0  8G04G12G29G10G17G05G25G02
 120844887.340 7  94164977.13244  22995997.344                    22996006.594
 109145364.050 8                  20769671.578
 129289636.452 6                  24603009.508
 111765097.760 7  87089820.15545  21268187.898                    21268195.910
 127722708.968 6                  24304803.430
 109271862.093 7                  20793729.578
 118624536.193 7                  22573495.109
 109022941.841 8  84953052.56346  20746355.922                    20746361.574
 11  7 27  2 44 30.0000000  0  8G04G12G29G10G17G05G25G02
 120927865.220 7  94229635.20344  23011788.102                    23011796.656
 109136398.362 8                  20767965.602
 129209275.299 6                  24587716.844
 111815172.148 7  87128839.16545  21277716.492                    21277725.012
 127794354.077 6                  24318436.391
 109217292.920 8                  20783345.570
 118553039.445 7                  22559889.500
 109044173.360 8  84969596.61346  20750395.914                    20750401.711
 11  7 27  2 45  0.0000000  0  8G04G12G29G10G17G05G25G02
 121010854.682 7  94294302.30444  23027579.539                    23027588.965
 109128013.064 8                  20766369.523
 129128847.250 6                  24572411.906
 111865801.651 7  87168290.73045  21287351.063                    21287359.145
 127866178.096 6                  24332103.719
 109163236.754 8                  20773059.195
 118481963.581 7                  22546364.242
 109065602.211 8  84986294.43446  20754473.586                    20754479.434
 11  7 27  2 45 30.0000000  0  8G04G12G29G10G17G05G25G02
 121093854.567 7  94358977.53244  23043374.289                    23043382.941
 109120208.747 8                  20764884.281
 129048353.061 6                  24557094.336
 111916984.709 7  87208173.64045  21297090.789                    21297099.363
 127938180.933 6                  24345806.625
 109109695.474 7                  20762870.336
 118411311.117 7                  22532919.859
 109087227.540 8  85003145.35646  20758588.695                    20758594.340
 11  7 27  2 46  0.0000000  0  8G04G12G29G10G17G05G25G02
 121176863.659 7  94423659.92544  23059170.094                    23059179.566
 109112986.043 8                  20763510.008
 128967792.970 6                  24541764.875
 111968718.729 7  87248485.86345  21306935.453                    21306943.637
 128010362.386 6                  24359542.359
 109056670.608 7                  20752780.383
 118341084.251 7                  22519556.477
 109109047.821 8  85020148.17946  20762740.984                    20762746.582
 11  7 27  2 46 30.0000000  0  8G04G12G29G10G17G05G25G02
 121259880.857 7  94488348.64644  23074967.742                    23074976.605
 109106345.030 8                  20762246.367
 128887167.525 6                  24526422.172
 112021001.819 7  87289225.93745  21316884.445                    21316892.734
 128082722.568 6                  24373311.875
 109004163.546 8                  20742788.328
 118271285.381 7                  22506273.992
 109131062.162 8  85037302.22846  20766930.266                    20766936.383
 11  7 27  2 47  0.0000000  0  8G04G12G29G10G17G05G25G02
 121342905.325 7  94553043.02944  23090766.508                    23090775.758
 109100286.766 8                  20761093.336
 128806477.049 6                  24511067.164
 112073832.068 7  87330392.36945  21326937.648                    21326945.930
 128155261.551 6                  24387114.797
 108952176.469 8                  20732895.648
 118201917.049 7                  22493073.242
 109153269.831 8  85054606.91846  20771156.078                    20771161.949
 11  7 27  2 47 30.0000000  0  8G04G12G29G10G17G05G25G02
 121425935.702 6  94617742.03044  23106567.313                    23106576.070
 109094811.143 8                  20760051.469
 128725722.529 7                  24495699.617
 112127207.247 7  87371983.42445  21337094.484                    21337103.031
 128227978.865 6                  24400952.914
 108900710.612 8                  20723102.008
 118132981.175 7                  22479954.984
 109175669.278 8  85072061.04146  20775418.453                    20775424.211
 11  7 27  2 48  0.0000000  0  8G04G12G29G10G17G05G25G02
 121508970.654 6  94682444.58344  23122367.852                    23122377.016
 109089918.387 7                  20759120.336
 128644904.546 6                  24480320.336
 112181125.367 7  87413997.54145  21347355.133                    21347362.969
 128300874.479 6                  24414824.164
 108849767.592 8                  20713408.008
 118064480.198 7                  22466919.539
 109198259.393 7  85089663.75146  20779717.148                    20779723.395
 11  7 27  2 48 30.0000000  0  8G04G12G29G10G17G05G25G02
 121592009.594 7  94747150.25744  23138170.016                    23138178.867
 109085609.082 7                  20758300.727
 128564023.663 6                  24464929.750
 112235584.798 7  87456433.46445  21357718.430                    21357726.355
 128373948.451 6                  24428730.133
 108799349.433 8                  20703813.453
 117996416.719 7                  22453967.773
 109221039.487 8  85107414.48846  20784052.211                    20784057.898
 11  7 27  2 49  0.0000000  0  8G04G12G29G10G17G05G25G02
 121675051.521 7  94811858.25144  23153972.914                    23153981.223
 109081883.569 8                  20757591.516
 128483080.381 6                  24449526.484
 112290583.039 7  87499289.23845  21368184.039                    21368192.617
 128447200.711 6                  24442669.297
 108749457.308 8                  20694319.508
 117928792.919 7                  22441099.602
 109244008.491 8  85125312.43346  20788423.133                    20788428.891
 11  7 27  2 49 30.0000000  0  8G04G12G29G10G17G05G25G02
 121758095.061 7  94876567.52244  23169774.578                    23169783.535
 109078742.233 8                  20756993.969
 128402075.171 6                  24434111.039
 112346117.559 7  87542562.88645  21378752.234                    21378760.199
 128520631.081 6                  24456642.906
 108700092.708 8                  20684925.656
 117861611.034 7                  22428314.914
 109267165.220 8  85143356.65346  20792829.984                    20792835.777
 11  7 27  2 50  0.0000000  0  8G04G12G29G10G17G05G25G02
 121841139.281 7  94941277.30544  23185577.750                    23185586.352
 109076185.167 8                  20756507.219
 128321008.930 6                  24418685.063
 112402186.413 7  87586252.91145  21389421.672                    21389429.875
 128594239.294 6                  24470650.320
 108651257.341 8                  20675632.383
 117794873.332 7                  22415615.117
 109290508.627 8  85161546.33446  20797271.578                    20797277.285
 11  7 27  2 50 30.0000000  0  8G04G12G29G10G17G05G25G02
 121924183.083 7  95005986.76744  23201380.406                    23201389.352
 109074212.667 8                  20756132.016
 128239882.289 6                  24403247.500
 112458787.643 7  87630357.78045  21400192.484                    21400200.703
 128668025.245 6                  24484690.078
 108602952.590 8                  20666440.125
 117728582.095 7                  22403000.008
 109314037.659 8  85179880.65646  20801749.250                    20801754.531
 11  7 27  2 51  0.0000000  0  8G04G12G29G10G17G05G25G02
 122007225.721 7  95070695.33744  23217183.156                    23217191.391
 109072825.611 8                  20755867.734
 128158695.716 6                  24387797.656
 112515919.306 7  87674875.96645  21411064.203                    21411072.887
 128741989.028 6                  24498765.539
 108555180.415 8                  20657349.836
 117662739.743 7                  22390471.070
 109337751.449 8  85198358.94546  20806262.070                    20806267.734
 11  7 27  2 51 30.0000000  0  8G04G12G29G10G17G05G25G02
 122090266.119 7  95135402.15443  23232985.031                    23232993.125
 109072023.432 8                  20755715.109
 128077450.156 6                  24372337.320
 112573579.172 7  87719805.74045  21422036.633                    21422044.273
 128816130.490 6                  24512874.570
 108507941.939 8                  20648360.406
 117597348.616 7                  22378027.445
 109361649.090 8  85216980.50246  20810809.352                    20810814.977
 11  7 27  2 52  0.0000000  0  7G04G12G29G10G05G25G02
 122173303.268 7  95200106.43744  23248785.922                    23248795.355
 109071806.548 8                  20755673.938
 127996146.032 6                  24356864.867
 112631764.771 7  87765145.18245  21433108.867                    21433116.844
 108461238.707 8                  20639473.039
 117532410.916 7                  22365670.359
 109385729.412 8  85235744.41046  20815391.867                    20815397.141
 11  7 27  2 52 30.0000000  0  7G04G12G29G10G05G25G02
 122256336.345 7  95264807.52443  23264587.188                    23264595.738
 109072175.418 8                  20755743.852
 127914784.305 6                  24341382.922
 112690473.881 7  87810892.54245  21444281.109                    21444288.949
 108415072.209 8                  20630687.820
 117467928.909 7                  22353399.500
 109409991.777 8  85254650.15346  20820008.570                    20820014.188
 11  7 27  2 53  0.0000000  0  7G04G12G29G10G05G25G02
 122339363.966 7  95329504.39244  23280386.930                    23280395.582
 109073129.651 8                  20755925.805
 127833364.963 6                  24325889.117
 112749703.817 7  87857045.75145  21455552.188                    21455560.180
 108369443.416 7                  20622004.852
 117403904.347 7                  22341216.344
 109434434.306 8  85273696.29646  20824659.672                    20824665.398
 11  7 27  2 53 30.0000000  0  7G04G12G29G10G05G25G02
 122422385.011 7  95394196.14944  23296185.539                    23296193.785
 109074669.349 8                  20756218.664
 127751888.882 6                  24310384.641
 112809452.432 7  87903603.12945  21466921.984                    21466929.785
 108324353.508 8                  20613424.766
 117340339.419 7                  22329120.461
 109459055.939 8  85292882.00246  20829345.109                    20829351.207
 11  7 27  2 54  0.0000000  0  7G04G12G29G10G05G25G02
 122505398.987 7  95458882.38944  23311982.250                    23311990.680
 109076795.011 8                  20756623.250
 127670357.141 6                  24294869.883
 112869717.830 7  87950563.19345  21478389.898                    21478397.453
 108279804.390 8                  20604947.180
 117277236.777 7                  22317112.492
 109483856.525 8  85312207.14146  20834064.703                    20834070.363
 11  7 27  2 54 30.0000000  0  7G04G12G29G10G05G25G02
 122588404.721 7  95523562.20344  23327777.266                    23327785.938
 109079506.261 8                  20757138.898
 127588770.107 6                  24279343.586
 112930497.507 7  87997923.98745  21489956.094                    21489963.930
 108235797.170 8                  20596572.836
 117214598.263 7                  22305192.180
 109508834.586 8  85331670.58246  20838817.539                    20838823.594
 11  7 27  2 55  0.0000000  0  7G04G12G29G10G05G25G02
 122671401.770 7  95588235.23343  23343571.375                    23343580.078
 109082803.715 8                  20757766.586
 127507128.643 6                  24263808.023
 112991789.592 7  88045684.07445  21501619.102                    21501627.309
 108192333.555 8                  20588301.938
 117152426.604 7                  22293360.859
 109533989.773 8  85351272.03646  20843604.805                    20843610.207
 11  7 27  2 55 30.0000000  0  7G04G12G29G10G05G25G02
 122754388.328 7  95652900.11244  23359363.102                    23359372.121
 109086686.347 8                  20758505.516
 127425433.275 6                  24248262.156
 113053590.737 7  88093840.82345  21513379.633                    21513387.953
 108149414.099 8                  20580134.977
 117090722.954 7                  22281619.344
 109559319.979 8  85371009.86946  20848424.773                    20848430.375
 11  7 27  2 56  0.0000000  0  7G04G12G29G10G05G25G02
 122837363.821 6  95717556.35344  23375152.625                    23375161.320
 109091154.664 7                  20759355.805
 127343684.660 6                  24232705.195
 113115899.105 7  88142392.81245  21525236.438                    21525244.605
 108107040.352 8                  20572071.336
 117029489.879 7                  22269967.297
 109584824.586 8  85390883.60746  20853278.031                    20853283.668
 11  7 27  2 56 30.0000000  0  7G04G12G29G10G05G25G02
 122920327.413 7  95782203.31744  23390940.109                    23390949.055
 109096208.362 8                  20760317.406
 127261883.695 6                  24217138.969
 113178712.291 7  88191338.17545  21537189.406                    21537197.402
 108065213.541 8                  20564111.398
 116968729.486 8                  22258404.906
 109610502.720 8  85410892.56046  20858164.523                    20858170.223
 11  7 27  2 57  0.0000000  0  7G04G12G29G10G05G25G02
 123003278.392 6  95846840.48144  23406725.609                    23406734.340
 109101848.171 8                  20761390.531
 127180031.442 6                  24201563.039
 113242028.274 7  88240675.31845  21549237.727                    21549245.875
 108023935.090 8                  20556256.773
 116908444.130 8                  22246933.258
 109636353.862 8  85431036.31646  20863083.703                    20863089.141
 11  7 27  2 57 30.0000000  0  7G04G12G29G10G05G25G02
 123086215.720 6  95911466.97444  23422507.500                    23422516.328
 109108073.435 8                  20762575.094
 127098128.530 7                  24185977.813
 113305844.402 7  88290402.18845  21561382.094                    21561389.887
 107983206.077 8                  20548506.141
 116848635.824 8                  22235551.789
 109662376.712 8  85451313.87846  20868035.930                    20868041.457
 11  7 27  2 58  0.0000000  0  7G04G12G29G10G05G25G02
 123169138.362 6  95976082.02943  23438286.992                    23438296.035
 109114883.861 8                  20763871.117
 127016175.383 7                  24170383.164
 113370157.985 7  88340516.68145  21573620.328                    21573628.102
 107943027.679 8                  20540860.758
 116789306.393 8                  22224261.586
 109688570.124 8  85471724.34346  20873020.344                    20873025.746
 11  7 27  2 58 30.0000000  0  7G04G12G29G10G05G25G02
 123252045.249 6  96040684.80644  23454063.930                    23454072.914
 109122279.011 8                  20765278.469
 126934172.507 7                  24154777.555
 113434966.225 7  88391016.61645  21585952.992                    21585961.066
 107903400.605 8                  20533320.047
 116730457.582 8                  22213062.633
 109714932.584 8  85492266.53546  20878036.828                    20878042.531
 11  7 27  2 59  0.0000000  0  7G04G12G29G10G05G25G02
 123334936.223 6  96105275.19343  23469837.648                    23469846.758
 109130259.571 8                  20766797.320
 126852121.532 6                  24139164.227
 113500267.587 7  88441900.80145  21598379.273                    21598387.645
 107864326.456 8                  20525884.078
 116672092.097 8                  22201956.359
 109741464.331 8  85512940.63546  20883085.805                    20883091.402
 11  7 27  2 59 30.0000000  0  7G04G12G29G10G05G25G02
 123417810.302 6  96169852.40844  23485607.945                    23485617.039
 109138825.046 8                  20768426.984
 126770023.147 6                  24123541.148
 113566059.809 7  88493167.48845  21610899.242                    21610907.012
 107825806.610 8                  20518554.156
 116614212.054 8                  22190942.344
 109768164.372 8  85533745.87846  20888166.500                    20888172.016
 11  7 27  3  0  0.0000000  0  7G04G12G29G10G05G25G02
 123500666.197 6  96234415.42944  23501374.656                    23501383.863
 109147975.119 8                  20770168.164
 126687877.525 6                  24107909.945
 113632339.636 7  88544814.11645  21623511.953                    21623520.145
 107787841.431 8                  20511329.008
 116556818.897 8                  22180020.781
 109795030.818 8  85554680.78146  20893278.781                    20893284.484
 11  7 27  3  0 30.0000000  0  7G04G12G29G10G05G25G02
 123583503.385 7  96298963.88644  23517138.508                    23517147.461
 109157709.271 8                  20772020.625
 126605686.046 6                  24092269.031
 113699104.816 7  88596838.92745  21636216.891                    21636224.734
 107750432.341 8                  20504210.945
 116499914.943 8                  22169192.406
 109822063.315 8  85575745.07746  20898423.414                    20898428.863
 11  7 27  3  1  0.0000000  0  7G04G12G29G10G05G25G02
 123666321.147 7  96363497.22443  23532898.023                    23532906.543
 109168027.590 8                  20773983.836
 126523449.482 6                  24076620.039
 113766353.362 7  88649240.40145  21649014.102                    21649022.113
 107713580.589 8                  20497198.203
 116443502.320 8                  22158457.078
 109849261.097 8  85596938.16546  20903598.695                    20903604.352
 11  7 27  3  1 30.0000000  0  7G04G12G29G10G05G25G02
 123749118.173 6  96428014.38243  23548653.406                    23548662.758
 109178929.495 8                  20776058.789
 126441168.201 6                  24060962.336
 113834081.850 7  88702015.84845  21661901.742                    21661910.172
 107677286.504 8                  20490291.688
 116387582.383 8                  22147815.836
 109876622.427 8  85618258.69346  20908805.367                    20908810.824
 11  7 27  3  2  0.0000000  0  7G04G12G29G10G05G25G02
 123831893.885 6  96492514.92943  23564404.750                    23564414.262
 109190414.473 8                  20778244.117
 126358843.134 6                  24045296.352
 113902288.023 7  88755163.51645  21674881.328                    21674889.648
 107641551.285 8                  20483491.648
 116332157.220 8                  22137268.969
 109904146.633 8  85639706.13346  20914043.172                    20914048.695
 11  7 27  3  2 30.0000000  0  7G04G12G29G10G05G25G02
 123914647.718 6  96556998.44044  23580152.859                    23580161.660
 109202482.221 8                  20780540.594
 126276475.371 6                  24029621.961
 113970969.640 7  88808681.66645  21687951.031                    21687958.820
 107606376.097 8                  20476797.617
 116277228.909 8                  22126816.148
 109931833.155 8  85661280.06346  20919311.492                    20919317.211
 11  7 27  3  3  0.0000000  0  7G04G12G29G10G05G25G02
 123997378.726 7  96621464.16743  23595895.945                    23595905.223
 109215132.989 8                  20782947.789
 126194066.218 6                  24013940.484
 114040124.104 7  88862568.26645  21701110.836                    21701118.648
 107571761.764 8                  20470210.750
 116222799.596 8                  22116458.883
 109959681.229 8  85682979.87646  20924611.141                    20924616.484
 11  7 27  3  3 30.0000000  0  7G04G12G29G10G05G25G02
 124080086.133 7  96685911.50143  23611634.594                    23611643.398
 109228365.669 8                  20785466.297
 126111616.291 6                  23998250.258
 114109748.721 7  88916821.21945  21714359.398                    21714367.863
 107537709.094 8                  20463730.711
 116168871.047 8                  22106196.406
 109987689.705 8  85704804.66546  20929940.719                    20929946.395
 11  7 27  3  4  0.0000000  0  7G04G12G29G10G05G25G02
 124162769.120 7  96750339.78943  23627369.063                    23627377.699
 109242179.928 8                  20788094.844
 126029126.104 6                  23982552.859
 114179840.902 7  88971438.51445  21727697.945                    21727705.715
 107504219.101 8                  20457357.734
 116115444.942 8                  22096029.945
 110015857.491 8  85726753.59846  20935301.063                    20935306.609
 11  7 27  3  4 30.0000000  0  7G04G12G29G10G05G25G02
 124245427.035 7  96814748.56143  23643098.227                    23643106.699
 109256575.153 8                  20790834.320
 125946596.453 6                  23966848.016
 114250398.186 7  89026418.21945  21741124.602                    21741132.348
 107471292.775 8                  20451091.711
 116062523.216 8                  22085958.945
 110044183.698 8  85748825.98546  20940691.078                    20940696.922
 11  7 27  3  5  0.0000000  0  7G04G12G29G10G05G25G02
 124328058.807 7  96879136.95543  23658823.180                    23658830.984
 109271550.839 8                  20793684.258
 125864028.416 7                  23951136.000
 114321417.872 7  89081758.24245  21754639.258                    21754647.355
 107438930.696 8                  20444933.961
 116010107.537 8                  22075984.250
 110072667.352 8  85771021.04946  20946111.469                    20946116.742
 11  7 27  3  5 30.0000000  0  7G04G12G29G10G05G25G02
 124410664.477 7  96943505.02543  23674541.992                    23674550.031
 109287107.658 8                  20796644.148
 125781423.382 6                  23935416.648
 114392897.927 7  89137456.98545  21768241.273                    21768249.184
 107407134.008 8                  20438883.141
 115958200.431 8                  22066107.117
 110101308.440 8  85793338.78946  20951561.516                    20951567.266
 11  7 27  3  6  0.0000000  0  7G04G12G29G10G05G25G02
 124493242.766 7  97007851.76843  23690255.992                    23690264.133
 109303243.592 8                  20799714.703
 125698782.054 6                  23919690.539
 114464835.242 7  89193512.04345  21781930.258                    21781938.297
 107375903.190 8                  20432939.813
 115906803.123 8                  22056326.625
 110130105.363 8  85815777.95546  20957041.523                    20957047.074
 11  7 27  3  6 30.0000000  0  7G04G12G29G10G05G25G02
 124575793.249 7  97072176.84143  23705965.016                    23705973.527
 109319958.792 8                  20802895.789
 125616105.173 6                  23903957.406
 114537227.452 7  89249921.56345  21795706.031                    21795713.781
 107345239.256 8                  20427104.883
 115855917.749 8                  22046643.375
 110159057.532 8  85838338.10046  20962550.789                    20962556.469
 11  7 27  3  7  0.0000000  0  7G04G12G29G10G05G25G02
 124658315.079 6  97136479.57443  23721667.656                    23721676.355
 109337252.232 8                  20806186.664
 125533393.519 6                  23888218.063
 114610071.578 7  89306683.22845  21809568.211                    21809575.699
 107315142.877 8                  20421377.719
 115805545.738 8                  22037057.961
 110188163.808 8  85861018.33146  20968089.438                    20968095.180
 11  7 27  3  7 30.0000000  0  7G04G12G29G10G05G25G02
 124740807.185 6  97200759.15343  23737365.844                    23737374.590
 109355123.183 8                  20809587.266
 125450648.233 7                  23872471.563
 114683364.777 7  89363794.82645  21823515.391                    21823522.926
 107285614.383 8                  20415758.758
 115755688.719 8                  22027570.383
 110217423.070 8  85883817.76546  20973657.305                    20973662.902
 11  7 27  3  8  0.0000000  0  7G04G12G29G10G05G25G02
 124823269.329 6  97265015.38343  23753057.961                    23753066.570
 109373571.477 8                  20813097.750
 125367870.262 7                  23856720.227
 114757104.387 7  89421254.27545  21837547.789                    21837555.215
 107256654.695 8                  20410247.836
 115706348.662 8                  22018181.180
 110246834.850 8  85906736.04646  20979254.266                    20979260.043
 11  7 27  3  8 30.0000000  0  7G04G12G29G10G05G25G02
 124905700.727 6  97329247.65143  23768743.805                    23768752.266
 109392596.229 8                  20816718.250
 125285060.665 7                  23840962.070
 114831288.137 7  89479059.80445  21851664.469                    21851672.445
 107228264.478 8                  20404845.219
 115657527.302 8                  22008890.625
 110276398.243 8  85929772.47646  20984880.211                    20984885.949
 11  7 27  3  9  0.0000000  0  7G04G12G29G10G05G25G02
 124988100.692 6  97393455.40443  23784424.188                    23784433.008
 109412196.966 8                  20820448.242
 125202220.437 7                  23825198.000
 114905913.244 7  89537209.24745  21865865.023                    21865872.762
 107200444.531 8                  20399551.156
 115609226.359 8                  21999699.539
 110306112.535 8  85952926.48946  20990534.414                    20990540.203
 11  7 27  3  9 30.0000000  0  7G04G12G29G10G05G25G02
 125070468.528 6  97457638.14743  23800098.414                    23800107.375
 109432372.860 8                  20824287.500
 125119350.846 7                  23809428.234
 114980977.116 7  89595700.58745  21880149.086                    21880156.949
 107173195.496 8                  20394365.836
 115561447.648 8                  21990607.320
 110335976.951 8  85976197.47646  20996217.281                    20996222.875
 11  7 27  3 10  0.0000000  0  7G04G12G29G10G05G25G02
 125152803.107 6  97521794.98643  23815765.945                    23815774.938
 109453123.012 7                  20828236.289
 125036451.998 7                  23793652.922
 115056476.074 7  89654530.96345  21894516.148                    21894523.949
 107146516.799 8                  20389289.031
 115514191.948 8                  21981614.953
 110365989.663 8  85999584.02146  21001928.727                    21001934.469
 11  7 27  3 10 30.0000000  0  7G04G12G29G10G05G25G02
 125235104.485 6  97585925.91543  23831427.633                    23831436.363
 109474446.217 8                  20832293.438
 124953525.503 6                  23777872.047
 115132408.667 7  89713699.22745  21908965.289                    21908973.285
 107120410.291 8                  20384320.992
 115467461.692 8                  21972722.117
 110396150.734 8  86023086.16846  21007668.266                    21007674.152
 11  7 27  3 11  0.0000000  0  7G04G12G29G10G05G25G02
 125317372.094 6  97650030.55143  23847082.258                    23847091.125
 109496342.193 8                  20836460.570
 124870572.743 6                  23762087.531
 115208772.317 7  89773203.38945  21923496.641                    21923505.113
 107094876.169 8                  20379462.070
 115421258.688 8                  21963930.102
 110426459.584 8  86046703.46146  21013435.133                    21013441.211
 11  7 27  3 11 30.0000000  0  7G04G12G29G10G05G25G02
 125399604.818 6  97714108.01043  23862731.000                    23862740.105
 109518810.077 8                  20840735.828
 124787594.123 7                  23746296.797
 115285563.645 7  89833040.80245  21938109.828                    21938118.004
 107069915.205 8                  20374712.266
 115375584.135 8                  21955238.656
 110456914.927 8  86070434.91546  21019231.055                    21019236.621
 11  7 27  3 12  0.0000000  0  7G04G12G29G10G05G25G02
 125481802.491 6  97778158.12343  23878372.547                    23878381.910
 109541848.762 8                  20845119.945
 124704590.830 6                  23730501.211
 115362779.792 7  89893209.23745  21952803.344                    21952811.656
 107045527.526 8                  20370071.102
 115330439.722 8                  21946647.656
 110487515.989 8  86094279.91246  21025054.227                    21025059.820
 11  7 27  3 12 30.0000000  0  7G04G12G29G10G05G25G02
 125563964.233 6  97842180.28243  23894007.539                    23894016.297
 109565457.719 8                  20849612.570
 124621563.777 7                  23714701.609
 115440418.331 7  89953706.80645  21967577.367                    21967585.848
 107021713.478 8                  20365539.773
 115285826.989 8                  21938158.391
 110518262.020 8  86118237.87046  21030904.992                    21030910.602
 11  7 27  3 13  0.0000000  0  7G04G12G29G10G05G25G02
 125646089.632 6  97906174.07943  23909635.758                    23909644.230
 109589636.045 8                  20854213.719
 124538514.533 7                  23698898.406
 115518476.721 7  90014531.52045  21982432.008                    21982439.418
 106998474.149 8                  20361117.758
 115241747.599 8                  21929770.602
 110549152.594 8  86142308.45446  21036783.391                    21036788.602
 11  7 27  3 13 30.0000000  0  7G04G12G29G10G05G25G02
 125728177.896 6  97970138.94743  23925256.594                    23925264.844
 109614382.343 8                  20858922.758
 124455443.958 7                  23683089.531
 115596951.998 7  90075681.09745  21997364.844                    21997373.082
 106975809.418 8                  20356804.609
 115198202.870 8                  21921484.063
 110580186.453 8  86166490.69446  21042688.992                    21042694.551
 11  7 27  3 14  0.0000000  0  7G04G12G29G10G05G25G02
 125810228.665 6  98034074.60943  23940870.148                    23940878.922
 109639695.952 8                  20863740.055
 124372353.199 6                  23667277.977
 115675841.322 7  90137153.30245  22012377.234                    22012385.172
 106953719.836 8                  20352601.141
 115155194.609 8                  21913299.797
 110611363.089 8  86190784.18546  21048621.367                    21048627.066
 11  7 27  3 14 30.0000000  0  7G04G12G29G10G05G25G02
 125892241.102 6  98097980.37643  23956476.883                    23956485.965
 109665576.066 8                  20868664.320
 124289242.620 6                  23651462.891
 115755141.731 7  90198945.84145  22027467.688                    22027475.559
 106932205.527 8                  20348506.906
 115112723.873 8                  21905217.742
 110642681.353 8  86215188.02746  21054581.438                    21054586.949
 11  7 27  3 15  0.0000000  0  7G04G12G29G10G05G25G02
 125974214.910 6  98161856.05843  23972075.984                    23972084.617
 109692021.633 8                  20873696.914
 124206114.581 7                  23635644.813
 115834851.378 7  90261057.26845  22042635.867                    22042643.906
 106911267.335 8                  20344522.398
 115070792.614 8                  21897238.516
 110674141.104 8  86239702.12346  21060567.781                    21060573.465
 11  7 27  3 15 30.0000000  0  7G04G12G29G10G05G25G02
 126056149.185 6  98225700.91643  23987667.078                    23987676.445
 109719031.189 8                  20878836.703
 124122969.141 7                  23619822.219
 115914966.534 7  90323484.67145  22057881.336                    22057888.781
 106890904.873 8                  20340647.703
 115029401.608 8                  21889362.266
 110705740.741 8  86264325.22446  21066580.945                    21066586.535
 11  7 27  3 16  0.0000000  0  7G04G12G29G10G05G25G02
 126138043.872 6  98289514.95643  24003251.664                    24003260.117
 109746604.161 8                  20884083.586
 124039807.867 7                  23603996.734
 115995484.938 7  90386226.29945  22073203.195                    22073211.035
 106871118.734 8                  20336882.414
 114988552.851 8                  21881589.125
 110737480.251 8  86289057.31346  21072621.055                    21072626.426
 11  7 27  3 16 30.0000000  0  7G04G12G29G10G05G25G02
 126219898.317 6  98353297.62243  24018827.445                    24018836.316
 109774739.486 8                  20889437.703
 123956632.371 6                  23588168.078
 116076403.988 7  90449280.10445  22088602.234                    22088609.504
 106851909.760 8                  20333227.180
 114948247.933 8                  21873919.375
 110769359.005 8  86313897.90946  21078686.906                    21078692.496
 11  7 27  3 17  0.0000000  0  7G04G12G29G10G05G25G02
 126301711.551 6  98417048.17743  24034396.141                    24034405.020
 109803435.310 8                  20894898.453
 123873443.007 7                  23572338.594
 116157719.536 7  90512642.89045  22104075.383                    22104083.117
 106833277.013 8                  20329681.203
 114908487.206 8                  21866352.656
 110801375.229 8  86338845.62746  21084779.453                    21084785.262
 11  7 27  3 17 30.0000000  0  7G04G12G29G10G05G25G02
 126383483.140 6  98480766.27943  24049956.008                    24049965.531
 109832690.984 8                  20900465.523
 123790240.838 7                  23556506.086
 116239429.422 7  90576312.93545  22119624.500                    22119632.629
 106815221.089 8                  20326245.352
 114869272.487 8                  21858890.508
 110833528.506 8  86363900.13846  21090898.094                    21090903.809
 11  7 27  3 18  0.0000000  0  7G04G12G29G10G05G25G02
 126465213.060 6  98544451.93043  24065509.375                    24065518.109
 109862505.567 7                  20906138.984
 123707027.301 7                  23540670.602
 116321531.507 7  90640288.59945  22135247.859                    22135256.066
 106797742.776 8                  20322919.258
 114830605.538 8                  21851532.531
 110865818.550 7  86389061.22346  21097042.922                    21097048.473
 11  7 27  3 18 30.0000000  0  7G04G12G29G10G05G25G02
 126546900.619 6  98608104.54142  24081054.188                    24081062.953
 109892877.734 8                  20911918.516
 123623803.813 6                  23524833.352
 116404022.880 7  90704567.59445  22150945.430                    22150953.195
 106780841.919 8                  20319702.945
 114792487.488 8                  21844278.969
 110898244.677 8  86414328.34746  21103213.328                    21103218.738
 11  7 27  3 19  0.0000000  0  7G04G12G29G10G05G25G02
 126628544.99816  98671723.55752  24096590.297                    24096598.504
 109923806.041 8                  20917804.008
 123540571.488 6                  23508994.094
 116486900.215 7  90769147.34445  22166717.023                    22166724.484
 106764518.367 8                  20316596.734
 114754919.295 8                  21837129.508
 110930805.762 8  86439700.63746  21109409.359                    21109415.141
 11  7 27  3 19 30.0000000  0  7G04G12G29G10G05G25G02
 126710145.751 6  98735308.54742  24112118.688                    24112126.660
 109955289.520 8                  20923795.023
 123457331.191 7                  23493154.563
 116570160.411 7  90834025.41044  22182560.781                    22182568.367
 106748772.169 8                  20313600.445
 114717902.206 8                  21830085.609
 110963500.906 8  86465177.38546  21115630.906                    21115636.438
 11  7 27  3 20  0.0000000  0  7G04G12G29G10G05G25G02
 126791702.753 6  98798859.46243  24127638.063                    24127646.984
 109987326.867 8                  20929891.773
 123374084.458 7                  23477313.883
 116653801.085 7  90899199.97145  22198475.938                    22198484.164
 106733603.623 8                  20310713.727
 114681437.840 8                  21823146.930
 110996329.908 8  86490758.42946  21121878.367                    21121883.797
 11  7 27  3 20 30.0000000  0  7G04G12G29G10G05G25G02
 126873215.805 6  98862376.12343  24143150.414                    24143158.688
 110019917.037 8                  20936093.359
 123290832.703 7                  23461471.609
 116737820.173 7  90964669.38244  22214464.680                    22214472.633
 106719013.313 8                  20307937.719
 114645527.827 8                  21816313.469
 111029292.564 8  86516443.62046  21128150.859                    21128156.391
 11  7 27  3 21  0.0000000  0  7G04G12G29G10G05G25G02
 126954683.632 6  98925857.52743  24158652.297                    24158661.102
 110053058.354 8                  20942399.719
 123207576.392 6                  23445627.398
 116822213.580 7  91030430.47645  22230524.852                    22230532.324
 106705000.190 8                  20305270.750
 114610172.201 8                  21809585.336
 111062387.017 8  86542231.50946  21134448.609                    21134453.957
 11  7 27  3 21 30.0000000  0  7G04G12G29G10G05G25G02
 127036106.433 6  98989303.85843  24174147.281                    24174155.172
 110086749.688 8                  20948811.406
 123124317.337 6                  23429783.469
 116906978.996 7  91096481.44045  22246654.805                    22246662.301
 106691565.265 8                  20302714.266
 114575372.977 8                  21802963.148
 111095613.281 8  86568122.11646  21140771.375                    21140776.621
 11  7 27  3 22  0.0000000  0  7G04G12G29G10G05G25G02
 127117483.663 6  99052714.67643  24189632.172                    24189640.852
 110120989.564 8                  20955326.844
 123041056.875 7                  23413940.109
 116992113.779 7  91162820.22345  22262855.242                    22262863.492
 106678708.199 8                  20300267.547
 114541131.355 8                  21796447.336
 111128970.683 8  86594114.89946  21147118.875                    21147124.203
 11  7 27  3 22 30.0000000  0  7G04G12G29G10G05G25G02
 127198814.701 6  99116089.51343  24205109.172                    24205118.340
 110155776.693 8                  20961946.266
 122957795.810 7                  23398096.602
 117077614.519 7  91229444.17445  22279125.383                    22279133.398
 106666428.793 8                  20297930.953
 114507447.963 8                  21790037.469
 111162458.263 8  86620209.12446  21153491.648                    21153496.918
 11  7 27  3 23  0.0000000  0  7G04G12G29G10G05G25G02
 127280099.369 6  99179428.19643  24220576.773                    24220586.523
 110191109.787 8                  20968670.203
 122874535.935 6                  23382252.109
 117163479.063 7  91296351.61944  22295465.648                    22295473.246
 106654727.188 8                  20295704.367
 114474324.448 8                  21783734.305
 111196075.827 8  86646404.63146  21159888.750                    21159894.285
 11  7 27  3 23 30.0000000  0  7G04G12G29G10G05G25G02
 127361336.474 6  99242729.84443  24236036.047                    24236044.785
 110226987.084 7                  20975497.344
 122791277.657 6                  23366407.680
 117249703.711 7  91363539.66044  22311873.391                    22311881.246
 106643602.330 8                  20293587.375
 114441760.988 8                  21777537.578
 111229821.607 7  86672700.04646  21166310.414                    21166315.789
 11  7 27  3 24  0.0000000  0  7G04G12G29G10G05G25G02
 127442526.611 6  99305994.84343  24251486.844                    24251494.809
 110263407.628 8                  20982427.852
 122708023.347 7                  23350565.523
 117336286.359 7  91431006.66744  22328349.195                    22328357.367
 106633055.678 8                  20291580.148
 114409759.775 8                  21771448.250
 111263696.346 8  86699095.95746  21172756.563                    21172762.023
 11  7 27  3 24 30.0000000  0  7G04G12G29G10G05G25G02
 127523668.985 6  99369222.65543  24266927.094                    24266935.352
 110300369.619 8                  20989461.883
 122624773.484 7                  23334724.039
 117423223.525 7  91498749.90945  22344893.203                    22344900.926
 106623086.273 8                  20289683.344
 114378321.148 8                  21765465.609
 111297698.539 8  86725591.17946  21179226.461                    21179232.195
 11  7 27  3 25  0.0000000  0  7G04G12G29G10G05G25G02
 127604763.005 6  99432412.80043  24282358.625                    24282367.793
 110337871.513 8                  20996598.148
 122541529.728 7                  23318883.461
 117510512.744 7  91566767.50044  22361503.195                    22361511.230
 106613693.743 8                  20287895.508
 114347446.200 8                  21759590.016
 111331827.615 8  86752185.26746  21185721.352                    21185726.758
 11  7 27  3 25 30.0000000  0  7G04G12G29G10G05G25G02
 127685808.306 6  99495564.97143  24297781.242                    24297790.461
 110375911.786 8                  21003836.727
 122458293.415 6                  23303043.969
 117598151.109 7  91635057.13644  22378180.203                    22378188.238
 106604877.939 8                  20286218.219
 114317136.007 8                  21753822.273
 111366082.984 8  86778877.77046  21192239.453                    21192245.445
 11  7 27  3 26  0.0000000  0  7G04G12G29G10G05G25G02
 127766805.262 6  99558679.43343  24313194.047                    24313203.547
 110414489.541 8                  21011177.977
 122375065.938 7                  23287205.906
 117686136.096 7  91703616.86544  22394923.492                    22394930.938
 106596639.471 8                  20284650.383
 114287391.987 8                  21748162.320
 111400464.931 8  86805668.90246  21198782.508                    21198788.473
 11  7 27  3 26 30.0000000  0  7G04G12G29G10G05G25G02
 127847752.214 6  99621755.00643  24328597.930                    24328606.988
 110453602.310 8                  21018621.055
 122291847.765 7                  23271370.430
 117774463.758 7  91772443.62244  22411731.711                    22411739.695
 106588976.482 8                  20283192.188
 114258213.882 8                  21742609.656
 111434971.081 8  86832556.82046  21205348.766                    21205354.422
 11  7 27  3 27  0.0000000  0  7G04G12G29G10G05G25G02
 127928649.666 6  99684791.95543  24343992.469                    24344000.555
 110493248.761 8                  21026165.305
 122208641.171 7                  23255536.898
 117863131.829 7  91841535.63944  22428604.820                    22428612.613
 106581889.764 8                  20281843.570
 114229603.402 8                  21737165.156
 111469601.760 8  86859541.77646  21211939.000                    21211944.488
 11  7 27  3 27 30.0000000  0  8G04G12G29G10G26G05G25G02
 128009497.463 6  99747790.25643  24359377.211                    24359385.613
 110533427.934 8                  21033811.203
 122125447.853 7                  23239705.320
 117952137.950 7  91910891.06644  22445542.164                    22445549.727
 130239433.11716 101485343.13652  24783748.078                    24783757.820
 106575379.552 8                  20280604.820
 114201561.937 8                  21731829.305
 111504357.045 8  86886623.82546  21218552.844                    21218558.234
 11  7 27  3 28  0.0000000  0  8G04G12G29G10G26G05G25G02
 128090295.246 6  99810749.55943  24374752.484                    24374761.090
 110574138.366 8                  21041558.164
 122042268.950 7                  23223876.742
 118041479.172 7  91980507.60044  22462543.578                    22462550.914
 130144284.824 6 101411201.61342  24765642.781                    24765651.688
 106569445.195 8                  20279475.414
 114174090.103 8                  21726601.383
 111539235.785 8  86913802.06946  21225189.914                    21225195.473
 11  7 27  3 28 30.0000000  0  8G04G12G29G10G26G05G25G02
 128171042.291 6  99873669.34043  24390117.961                    24390126.672
 110615377.503 8                  21049405.875
 121959105.426 7                  23208051.234
 118131152.203 7  92050382.69844  22479607.016                    22479615.137
 130049020.78116 101336969.92953  24747513.828                    24747523.938
 106564085.899 8                  20278455.695
 114147188.397 8                  21721481.953
 111574237.188 8  86941075.90446  21231850.141                    21231855.676
 11  7 27  3 29  0.0000000  0  8G04G12G29G10G26G05G25G02
 128251738.315 6  99936549.35143  24405474.313                    24405482.816
 110657144.209 8                  21057353.938
 121875958.709 7                  23192229.641
 118221154.120 7  92120514.05944  22496734.164                    22496741.656
 129953643.69316 101262650.20453  24729364.734                    24729374.027
 106559301.551 8                  20277545.086
 114120857.738 8                  21716471.813
 111609360.789 8  86968444.95046  21238533.914                    21238539.691
 11  7 27  3 29 30.0000000  0  8G04G12G29G10G26G05G25G02
 128332382.660 6  99999389.10342  24420819.117                    24420829.484
 110699435.849 8                  21065401.578
 121792830.195 7                  23176409.742
 118311481.668 7  92190899.17444  22513922.859                    22513930.285
 129858156.599 6 101188244.71843  24711193.992                    24711203.828
 106555091.169 8                  20276743.703
 114095098.467 8                  21711569.813
 111644605.645 8  86995908.48746  21245240.805                    21245246.391
 11  7 27  3 30  0.0000000  0  8G04G12G29G10G26G05G25G02
 128412975.226 6 100062188.49542  24436156.156                    24436164.930
 110742251.593 8                  21073548.930
 121709721.298 6                  23160593.945
 118402132.236 7  92261535.97644  22531173.031                    22531180.703
 129762562.513 6 101113755.81543  24693003.344                    24693012.207
 106551454.900 8                  20276051.914
 114069911.713 8                  21706776.766
 111679971.470 8  87023466.28746  21251970.773                    21251975.977
 11  7 27  3 30 30.0000000  0  8G04G12G29G10G26G05G25G02
 128493515.960 6 100124947.50943  24451482.914                    24451491.652
 110785589.609 8                  21081796.094
 121626633.381 7                  23144783.875
 118493103.146 7  92332422.39144  22548483.859                    22548492.133
 129666864.557 6 101039186.06043  24674792.977                    24674801.375
 106548392.380 8                  20275469.430
 114045298.456 8                  21702093.250
 111715457.899 8  87051118.06346  21258723.898                    21258729.375
 11  7 27  3 31  0.0000000  0  8G04G12G29G10G26G05G25G02
 128574004.172 6 100187665.66142  24466798.805                    24466808.191
 110829447.604 8                  21090141.867
 121543567.552 7                  23128977.344
 118584391.065 7  92403555.85744  22565855.727                    22565863.672
 129571065.342 6 100964537.34643  24656561.906                    24656570.883
 106545902.478 8                  20274995.578
 114021259.030 8                  21697518.563
 111751063.950 8  87078863.03546  21265499.164                    21265504.820
 11  7 27  3 31 30.0000000  0  8G04G12G29G10G26G05G25G02
 128654439.938 6 100250342.88342  24482105.492                    24482114.199
 110873824.443 8                  21098586.648
 121460525.746 7                  23113174.352
 118675993.543 7  92474934.41644  22583286.820                    22583295.105
 129475168.027 6 100889812.21843  24638313.914                    24638322.773
 106543985.370 8                  20274630.453
 113997794.300 8                  21693053.289
 111786789.191 8  87106700.89146  21272297.250                    21272303.031
 11  7 27  3 32  0.0000000  0  8G04G12G29G10G26G05G25G02
 128734822.895 6 100312978.93342  24497402.188                    24497410.625
 110918718.271 8                  21107129.664
 121377509.466 7                  23097376.359
 118767907.697 7  92546555.83444  22600777.570                    22600785.922
 129379175.658 6 100815013.04343  24620047.477                    24620056.148
 106542640.653 8                  20274374.906
 113974905.095 8                  21688697.773
 111822633.365 7  87134631.41846  21279118.500                    21279123.922
 11  7 27  3 32 30.0000000  0  8G04G12G29G10G26G05G25G02
 128815152.613 6 100375573.58243  24512688.172                    24512696.168
 110964127.405 8                  21115770.820
 121294519.963 7                  23081584.672
 118860130.223 7  92618417.54344  22618326.805                    22618335.523
 129283091.181 6 100740142.16843  24601761.297                    24601771.668
 106541867.234 8                  20274227.203
 113952591.804 8                  21684451.828
 111858595.812 8  87162654.11746  21285962.125                    21285967.270
 11  7 27  3 33  0.0000000  0  8G04G12G29G10G26G05G25G02
 128895428.951 6 100438126.59142  24527964.523                    24527972.352
 111010049.309 8                  21124509.313
 121211558.420 7                  23065797.508
 118952658.429 7  92690517.43844  22635934.391                    22635942.480
 129186917.488 6 100665201.69443  24583460.992                    24583470.273
 106541664.438 8                  20274188.711
 113930855.029 8                  21680315.070
 111894675.717 8  87190768.33346  21292827.438                    21292833.160
 11  7 27  3 33 30.0000000  0  8G04G12G29G10G26G05G25G02
 128975651.526 6 100500637.71043  24543230.000                    24543238.711
 111056482.726 8                  21133345.594
 121128626.699 7                  23050015.180
 119045489.801 7  92762853.56544  22653599.859                    22653608.086
 129090657.898 6 100590194.25843  24565143.648                    24565152.480
 106542032.254 8                  20274258.742
 113909695.636 8                  21676288.773
 111930872.874 8  87218973.91846  21299716.016                    21299721.215
 11  7 27  3 34  0.0000000  0  8G04G12G29G10G26G05G25G02
 129055820.177 6 100563106.78142  24558485.586                    24558493.910
 111103425.577 8                  21142278.078
 121045726.274 7                  23034240.578
 119138620.855 7  92835423.21544  22671322.250                    22671329.754
 128994315.115 6 100515122.04343  24546809.938                    24546819.414
 106542969.794 8                  20274437.406
 113889114.033 8                  21672372.039
 111967186.693 8  87247270.40646  21306626.078                    21306631.230
 11  7 27  3 34 30.0000000  0  8G04G12G29G10G26G05G25G02
 129135934.809 6 100625533.74042  24573731.078                    24573739.074
 111150876.173 8                  21151307.781
 120962858.685 7                  23018471.586
 119232048.867 7  92908224.24544  22689100.820                    22689109.168
 128897892.461 6 100439987.58943  24528461.203                    24528470.105
 106544476.735 8                  20274723.852
 113869110.969 8                  21668565.539
 112003616.894 8  87275657.58246  21313558.641                    21313563.984
 11  7 27  3 35  0.0000000  0  8G04G12G29G10G26G05G25G02
 129215994.845 6 100687918.17243  24588966.180                    24588974.520
 111198832.561 8                  21160433.539
 120880025.208 7                  23002708.734
 119325771.021 7  92981254.49044  22706935.313                    22706943.445
 128801392.966 6 100364793.21043  24510098.484                    24510107.762
 106546552.104 8                  20275118.906
 113849686.684 8                  21664869.539
 112040162.559 8  87304134.73746  21320512.930                    21320518.504
 11  7 27  3 35 30.0000000  0  8G04G12G29G10G26G05G25G02
 129296000.385 6 100750260.17943  24604190.031                    24604199.316
 111247292.603 8                  21169655.227
 120797227.571 7                  22986952.953
 119419784.550 7  93054511.78344  22724825.555                    22724833.574
 128704819.439 6 100289541.13943  24491720.930                    24491729.227
 106549195.313 8                  20275621.984
 113830841.921 8                  21661283.164
 112076823.597 8  87332701.78846  21327489.031                    21327494.730
 11  7 27  3 36  0.0000000  0  8G04G12G29G10G26G05G25G02
 129375951.144 6 100812559.48243  24619404.789                    24619413.004
 111296254.612 8                  21178972.359
 120714467.168 7                  22971204.055
 119514086.577 7  93127993.87144  22742770.930                    22742778.910
 128608174.872 6 100214233.75843  24473328.781                    24473338.891
 106552405.438 8                  20276232.773
 113812576.972 8                  21657807.688
 112113599.406 8  87361358.26646  21334487.570                    21334493.016
 11  7 27  3 36 30.0000000  0  8G04G12G29G10G26G05G25G02
 129455846.518 7 100874815.58343  24634608.094                    24634616.844
 111345716.322 8                  21188384.820
 120631745.710 7                  22955462.875
 119608674.018 7  93201698.36144  22760770.297                    22760778.211
 128511462.986 6 100138873.92743  24454924.773                    24454935.258
 106556182.058 8                  20276951.234
 113794892.323 8                  21654442.195
 112150489.365 8  87390103.69546  21341507.336                    21341512.785
 11  7 27  3 37  0.0000000  0  8G04G12G29G10G26G05G25G02
 129535686.826 6 100937028.81343  24649801.414                    24649810.207
 111395675.849 8                  21197891.422
 120549064.499 7                  22939729.234
 119703544.157 7  93275623.14944  22778823.102                    22778830.891
 128414686.377 6 100063463.64343  24436509.742                    24436518.945
 106560524.332 8                  20277777.531
 113777788.447 8                  21651187.516
 112187493.024 8  87418937.71546  21348549.180                    21348554.367
 11  7 27  3 37 30.0000000  0  8G04G12G29G10G26G05G25G02
 129615471.726 6 100999198.85343  24664983.688                    24664992.656
 111446131.052 8                  21207492.438
 120466424.997 7                  22924002.563
 119798693.986 7  93349765.85644  22796929.906                    22796937.973
 128317848.382 6  99988005.53543  24418082.266                    24418091.645
 106565431.342 8                  20278711.422
 113761265.622 8                  21648043.227
 112224609.929 8  87447859.97846  21355611.977                    21355616.891
 11  7 27  3 38  0.0000000  0  8G04G12G29G10G26G05G25G02
 129695201.025 6 101061325.56543  24680155.992                    24680164.992
 111497080.262 8                  21217188.305
 120383829.123 7                  22908285.305
 119894120.688 7  93424124.31244  22815088.883                    22815097.219
 128220951.889 6  99912501.82843  24399643.258                    24399652.734
 106570902.626 8                  20279752.734
 113745324.360 8                  21645009.977
 112261839.591 8  87476870.10846  21362696.734                    21362701.738
 11  7 27  3 38 30.0000000  0  7G12G29G10G26G05G25G02
 111548521.388 8                  21226977.188
 120301278.703 7                  22892576.555
 119989821.676 7  93498696.50044  22833300.297                    22833308.352
 128124000.573 6  99836955.33943  24381194.648                    24381203.281
 106576937.366 8                  20280900.805
 113729965.245 8                  21642086.938
 112299182.059 8  87505968.13846  21369802.398                    21369807.918
 11  7 27  3 39  0.0000000  0  7G12G29G10G26G05G25G02
 111600452.503 8                  21236859.273
 120218774.945 7                  22876876.555
 120085794.157 7  93573480.24644  22851563.258                    22851571.160
 128026997.187 6  99761368.37143  24362734.727                    24362744.566
 106583534.658 8                  20282156.336
 113715188.358 8                  21639275.211
 112336636.489 8  87535153.41546  21376929.742                    21376935.563
 11  7 27  3 39 30.0000000  0  7G12G29G10G26G05G25G02
 111652871.023 8                  21246834.602
 120136319.442 7                  22861185.555
 120182034.939 7  93648473.09144  22869877.391                    22869885.121
 127929944.946 6  99685743.30843  24344266.273                    24344275.199
 106590693.718 8                  20283518.555
 113700994.022 8                  21636574.000
 112374202.749 8  87564425.83246  21384078.711                    21384084.078
 11  7 27  3 40  0.0000000  0  7G12G29G10G26G05G25G02
 111705774.823 8                  21256901.641
 120053913.580 7                  22845504.680
 120278540.896 7  93723672.52744  22888242.133                    22888249.500
 127832846.625 6  99610082.34943  24325788.953                    24325798.414
 106598412.908 8                  20284987.750
 113687382.129 8                  21633983.820
 112411879.736 8  87593784.52946  21391248.195                    21391253.625
 11  7 27  3 40 30.0000000  0  7G12G29G10G26G05G25G02
 111759161.853 8                  21267060.523
 119971559.129 7                  22829832.719
 120375309.274 7  93799076.47144  22906656.047                    22906664.395
 127735705.658 6  99534388.12143  24307303.844                    24307312.918
 106606691.807 8                  20286562.969
 113674353.064 8                  21631504.703
 112449667.087 8  87623229.22146  21398438.813                    21398444.609
 11  7 27  3 41  0.0000000  0  7G12G29G10G26G05G25G02
 111813029.933 8                  21277311.773
 119889257.648 7                  22814171.227
 120472336.731 6  93874682.28344  22925119.766                    22925128.063
 127638525.031 6  99458663.04443  24288811.289                    24288819.988
 106615529.141 8                  20288244.695
 113661907.052 8                  21629135.914
 112487564.369 8  87652759.56646  21405650.648                    21405655.988
 11  7 27  3 41 30.0000000  0  7G12G29G10G26G05G25G02
 111867377.213 8                  21287653.461
 119807010.881 7                  22798520.211
 120569621.168 7  93950488.32844  22943632.602                    22943640.500
 127541308.532 6  99382910.00343  24270311.070                    24270320.645
 106624924.804 8                  20290032.195
 113650044.500 8                  21626878.523
 112525571.595 8  87682375.59446  21412882.828                    21412888.691
 11  7 27  3 42  0.0000000  0  7G12G29G10G26G05G25G02
 111922201.721 8                  21298086.344
 119724820.536 7                  22782880.555
 120667159.539 7  94026492.26944  22962193.516                    22962201.508
 127444058.741 6  99307131.01143  24251804.992                    24251815.074
 106634877.245 8                  20291926.469
 113638765.439 8                  21624732.188
 112563688.357 8  87712076.96446  21420136.086                    21420141.813
 11  7 27  3 42 30.0000000  0  7G12G29G10G26G05G25G02
 111977500.699 8                  21308609.453
 119642687.946 7                  22767250.750
 120764948.537 7  94102691.49944  22980801.797                    22980809.941
 127346778.973 6  99231328.66143  24233292.648                    24233302.609
 106645384.976 8                  20293926.063
 113628069.856 8                  21622696.773
 112601914.174 8  87741863.31646  21427410.547                    21427416.035
 11  7 27  3 43  0.0000000  0  7G12G29G10G26G05G25G02
 112033271.682 8                  21319222.203
 119560614.831 7                  22751632.688
 120862985.407 7  94179083.86644  22999457.891                    22999465.789
 127249472.481 6  99155505.48143  24214776.555                    24214785.875
 106656447.248 8                  20296031.156
 113617957.749 8                  21620772.703
 112640248.304 8  87771734.07546  21434705.398                    21434711.102
 11  7 27  3 43 30.0000000  0  7G12G29G10G26G05G25G02
 112089513.147 8                  21329924.430
 119478603.215 7                  22736026.719
 120961267.900 7  94255667.63244  23018161.047                    23018168.117
 127152142.841 6  99079664.27243  24196255.422                    24196265.090
 106668063.865 8                  20298241.609
 113608429.766 8                  21618959.648
 112678691.040 8  87801689.45646  21442020.328                    21442026.379
 11  7 27  3 44  0.0000000  0  7G12G29G10G26G05G25G02
 112146222.493 7                  21340716.125
 119396654.847 7                  22720432.250
 121059792.949 7  94332440.39444  23036908.859                    23036916.938
 127054792.978 6  99003807.25543  24177729.719                    24177738.887
 106680233.531 8                  20300557.531
 113599485.781 8                  21617257.648
 112717241.652 8  87831728.90046  21449356.703                    21449362.074
 11  7 27  3 44 30.0000000  0  7G12G29G10G26G05G25G02
 112203397.573 7                  21351596.188
 119314770.842 7                  22704849.977
 121158557.521 7  94409399.80544  23055703.078                    23055711.637
 126957426.220 6  98927937.05643  24159201.766                    24159211.242
 106692954.450 8                  20302978.016
 113591125.527 8                  21615666.570
 112755899.605 8  87861851.97846  21456713.148                    21456718.785
 11  7 27  3 45  0.0000000  0  7G12G29G10G26G05G25G02
 112261035.974 8                  21362564.539
 119232952.974 7                  22689280.641
 121257558.555 7  94486543.46544  23074542.008                    23074550.691
 126860045.525 6  98852056.05343  24140670.531                    24140679.777
 106706225.415 8                  20305503.313
 113583348.908 8                  21614186.883
 112794664.342 8  87892058.26546  21464089.883                    21464095.582
 11  7 27  3 45 30.0000000  0  7G12G29G10G26G05G25G02
 112319135.598 8                  21373620.227
 119151203.298 7                  22673723.719
 121356793.424 7  94563869.34343  23093425.977                    23093434.148
 126762654.509 6  98776167.01343  24122137.477                    24122147.547
 106720045.786 8                  20308133.234
 113576156.175 8                  21612818.125
 112833535.978 8  87922347.84746  21471486.430                    21471492.035
 11  7 27  3 46  0.0000000  0  7G12G29G10G26G05G25G02
 112377694.510 8                  21384763.719
 119069523.548 7                  22658180.547
 121456259.430 6  94641375.29843  23112354.000                    23112361.996
 126665256.353 6  98700272.46943  24103603.352                    24103613.266
 106734414.526 8                  20310867.797
 113569547.358 8                  21611560.148
 112872514.174 8  87952720.47446  21478904.000                    21478909.449
 11  7 27  3 46 30.0000000  0  7G12G29G10G26G05G25G02
 112436709.492 8                  21395993.773
 118987915.186 7                  22642651.367
 121555953.748 7  94719059.20144  23131325.688                    23131332.691
 126567854.512 7  98624374.95843  24085069.070                    24085078.270
 106749330.264 8                  20313706.008
 113563522.292 8                  21610413.836
 112911598.514 8  87983175.80646  21486341.414                    21486346.895
 11  7 27  3 47  0.0000000  0  7G12G29G10G26G05G25G02
 112496178.480 8                  21407310.438
 118906380.116 7                  22627135.453
 121655873.172 7  94796918.48743  23150339.063                    23150347.465
 126470452.142 6  98548477.04443  24066533.961                    24066543.234
 106764791.851 8                  20316648.117
 113558080.821 8                  21609378.742
 112950788.511 8  88013713.46246  21493798.930                    21493804.570
 11  7 27  3 47 30.0000000  0  7G12G29G10G26G05G25G02
 112556099.368 7                  21418713.148
 118824919.973 7                  22611633.938
 121756015.210 7  94874951.24744  23169395.414                    23169403.273
 126373052.831 6  98472581.52843  24047999.328                    24048008.477
 106780798.304 8                  20319693.992
 113553222.999 8                  21608454.203
 112990084.236 8  88044333.50746  21501276.734                    21501282.512
 11  7 27  3 48  0.0000000  0  7G12G29G10G26G05G25G02
 112616469.335 7                  21430200.961
 118743536.607 7                  22596147.055
 121856376.827 7  94953155.09844  23188493.891                    23188501.703
 126275659.377 6  98396690.58243  24029465.391                    24029474.617
 106797347.827 8                  20322843.430
 113548948.313 8                  21607640.727
 113029484.924 8  88075035.34346  21508774.414                    21508779.859
 11  7 27  3 48 30.0000000  0  7G12G29G10G26G05G25G02
 112677286.365 8                  21441774.172
 118662231.787 7                  22580675.969
 121956955.414 7  95031528.03843  23207633.508                    23207641.641
 126178275.347 6  98320806.94443  24010934.445                    24010942.512
 106814439.512 8                  20326095.711
 113545256.790 8                  21606938.359
 113068990.453 8  88105818.87046  21516291.820                    21516297.922
 11  7 27  3 49  0.0000000  0  7G12G29G10G26G05G25G02
 112738548.390 7                  21453431.953
 118581007.439 7                  22565218.883
 122057748.217 7  95110067.88544  23226813.531                    23226821.824
 126080904.361 6  98244933.49043  23992404.766                    23992414.051
 106832072.578 8                  20329451.273
 113542148.449 8                  21606346.648
 113108600.694 8  88136683.99346  21523829.984                    21523835.031
 11  7 27  3 49 30.0000000  0  7G12G29G10G26G05G25G02
 112800252.509 8                  21465173.383
 118499864.978 7                  22549778.430
 122158752.105 6  95188772.21644  23246033.898                    23246041.742
 125983549.274 6  98169072.46344  23973878.883                    23973888.109
 106850244.748 8                  20332909.547
 113539622.610 8                  21605865.898
 113148314.912 8  88167630.13146  21531387.539                    21531392.840
 11  7 27  3 50  0.0000000  0  7G12G29G10G26G05G25G02
 112862396.177 7                  21476999.320
 118418806.197 7                  22534353.281
 122259964.401 7  95267638.94344  23265294.156                    23265302.332
 125886213.751 7  98093226.67444  23955356.500                    23955365.742
 106868955.022 8                  20336469.555
 113537679.080 8                  21605496.445
 113188132.931 8  88198657.16346  21538964.500                    21538969.598
 11  7 27  3 50 30.0000000  0  7G12G29G10G26G05G25G02
 112924977.055 7                  21488908.484
 118337833.155 7                  22518944.656
 122361382.475 6  95346666.01443  23284592.703                    23284601.367
 125788900.968 7  98017398.58043  23936838.766                    23936847.602
 106888202.254 8                  20340132.367
 113536317.717 8                  21605236.930
 113228054.753 8  88229765.06846  21546561.063                    21546566.895
 11  7 27  3 51  0.0000000  0  7G12G29G10G26G05G25G02
 112987992.607 8                  21500899.414
 118256947.512 7                  22503552.203
 122463003.437 6  95425851.15844  23303930.844                    23303939.031
 125691614.294 6  97941590.83643  23918325.375                    23918334.387
 106907984.915 8                  20343897.031
 113535538.105 8                  21605088.438
 113268079.746 8  88260953.38246  21554177.531                    21554183.043
 11  7 27  3 51 30.0000000  0  7G12G29G10G26G05G25G02
 113051440.226 7                  21512972.984
 118176150.934 7                  22488177.031
 122564824.104 6  95505191.91743  23323306.727                    23323315.102
 125594357.154 6  97865806.11443  23899817.445                    23899826.816
 106928301.223 8                  20347762.875
 113535339.651 8                  21605050.938
 113308207.647 8  88292221.88046  21561813.711                    21561819.426
 11  7 27  3 52  0.0000000  0  7G12G29G10G26G05G25G02
 113115317.867 8                  21525128.773
 118095445.735 7                  22472819.531
 122666842.168 6  95584686.51944  23342720.156                    23342728.480
 125497133.198 6  97790047.22543  23881316.711                    23881325.691
 106949150.773 8                  20351730.414
 113535722.596 8                  21605123.984
 113348438.758 8  88323570.81146  21569469.594                    21569474.684
 11  7 27  3 52 30.0000000  0  7G12G29G10G26G05G25G02
 113179623.258 8                  21537365.305
 118014833.410 7                  22457479.398
 122769054.837 6  95664332.73443  23362170.602                    23362179.016
 125399945.844 6  97714316.86743  23862822.773                    23862831.145
 106970531.892 8                  20355799.172
 113536686.348 8                  21605307.359
 113388772.506 8  88354999.70446  21577144.930                    21577149.926
 11  7 27  3 53  0.0000000  0  7G12G29G10G26G05G25G02
 113244353.221 8                  21549683.586
 117934315.915 7                  22442157.531
 122871459.319 6  95744128.40244  23381657.445                    23381665.578
 125302798.114 7  97638617.34543  23844336.109                    23844344.762
 106992442.806 8                  20359968.680
 113538230.277 8                  21605600.695
 113429208.551 8  88386508.32246  21584839.250                    21584844.547
 11  7 27  3 53 30.0000000  0  7G12G29G10G26G05G25G02
 113309505.281 8                  21562081.227
 117853895.197 7                  22426853.906
 122974052.558 6  95824071.16143  23401180.500                    23401188.645
 125205693.556 7  97562951.47344  23825857.906                    23825866.766
 107014882.130 8                  20364238.750
 113540354.017 8                  21606005.391
 113469746.669 8  88418096.47946  21592553.695                    21592559.215
 11  7 27  3 54  0.0000000  0  7G12G29G10G26G05G25G02
 113375076.986 7                  21574558.867
 117773572.903 7                  22411569.422
 123076831.925 6  95904158.97543  23420739.070                    23420746.883
 125108635.597 7  97487321.96744  23807388.164                    23807397.395
 107037848.334 8                  20368608.969
 113543056.994 8                  21606519.367
 113510386.466 8  88449763.84546  21600287.164                    21600292.746
 11  7 27  3 54 30.0000000  0  7G12G29G10G26G05G25G02
 113441066.311 7                  21587116.453
 117693350.990 7                  22396303.031
 123179794.882 6  95984389.83243  23440332.039                    23440339.961
 125011627.921 6  97411731.65243  23788927.680                    23788937.098
 107061340.393 8                  20373079.398
 113546339.201 8                  21607143.945
 113551128.296 8  88481510.73346  21608039.656                    21608045.492
 11  7 27  3 55  0.0000000  0  7G12G29G10G26G05G25G02
 113507470.103 8                  21599752.820
 117613231.283 7                  22381057.195
 123282938.411 7  96064761.40243  23459959.883                    23459967.355
 124914673.717 6  97336182.97743  23770477.789                    23770486.984
 107085356.235 8                  20377649.352
 113550199.640 8                  21607878.828
 113591971.597 8  88513336.69146  21615812.094                    21615817.703
 11  7 27  3 55 30.0000000  0  7G12G29G10G26G05G25G02
 113574285.612 8                  21612467.180
 117533215.456 7                  22365830.586
 123386259.867 7  96145271.63443  23479620.938                    23479628.793
 124817776.601 6  97260678.77343  23752039.375                    23752048.141
 107109894.514 8                  20382318.891
 113554637.762 8                  21608723.492
 113632915.850 8  88545241.31246  21623603.602                    21623609.379
 11  7 27  3 56  0.0000000  0  7G12G29G10G26G05G25G02
 113641510.120 7                  21625259.656
 117453305.509 7                  22350624.023
 123489756.140 6  96225918.07043  23499315.945                    23499323.250
 124720939.567 6  97185221.34443  23733611.516                    23733620.121
 107134953.056 8                  20387087.523
 113559652.788 8                  21609677.672
 113673960.958 8  88577224.51646  21631414.195                    21631419.563
 11  7 27  3 56 30.0000000  0  7G12G29G10G26G05G25G02
 113709141.682 7                  21638129.602
 117373503.694 7                  22335437.953
 123593425.028 7  96306699.03143  23519043.500                    23519051.379
 124624166.541 6  97109813.82044  23715196.727                    23715204.859
 107160531.405 8                  20391954.742
 113565244.603 8                  21610741.273
 113715106.821 8  88609286.23545  21639243.633                    21639249.211
 11  7 27  3 57  0.0000000  0  7G12G29G10G26G05G25G02
 113777177.534 8                  21651076.500
 117293811.792 7                  22320273.133
 123697263.674 7  96387612.27443  23538803.078                    23538810.637
 124527461.044 6  97034458.93243  23696793.766                    23696802.715
 107186627.711 8                  20396920.672
 113571412.423 8                  21611915.336
 113756353.189 8  88641426.26045  21647092.703                    21647098.297
 11  7 27  3 57 30.0000000  0  7G12G29G10G26G05G25G02
 113845614.816 8                  21664099.469
 117214231.714 7                  22305129.414
 123801269.297 7  96468655.61143  23558594.680                    23558602.148
 124430826.130 6  96959159.08443  23678404.164                    23678413.949
 107213239.969 8                  20401984.641
 113578155.471 8                  21613198.766
 113797700.212 8  88673644.72645  21654960.930                    21654966.695
 11  7 27  3 58  0.0000000  0  7G12G29G10G26G05G25G02
 113914450.749 7                  21677198.469
 117134765.209 7                  22290007.922
 123905439.205 7  96549826.98243  23578417.711                    23578425.270
 124334265.695 7  96883917.27444  23660029.469                    23660039.332
 107240366.765 7                  20407147.063
 113585473.096 8                  21614591.125
 113839147.582 8  88705941.37446  21662848.055                    21662853.523
 11  7 27  3 58 30.0000000  0  8G15G12G29G10G26G05G25G02
 129386461.04816                  24621434.086
 113983682.734 7                  21690372.922
 117055414.238 7                  22274907.781
 124009770.920 6  96631124.41643  23598271.688                    23598278.672
 124237783.008 7  96808736.00344  23641669.891                    23641678.848
 107268006.431 8                  20412406.313
 113593364.625 8                  21616092.883
 113880695.024 7  88738315.99946  21670754.484                    21670760.078
 11  7 27  3 59  0.0000000  0  8G15G12G29G10G26G05G25G02
 129291264.858 6                  24603318.203
 114053308.303 8                  21703621.953
 116976180.979 7                  22259830.242
 124114261.649 6  96712545.76243  23618155.117                    23618163.145
 124141381.683 7  96733618.09344  23623325.688                    23623333.777
 107296157.570 8                  20417763.383
 113601829.334 8                  21617703.297
 113922342.466 7  88770768.54845  21678679.664                    21678684.520
 11  7 27  3 59 30.0000000  0  8G15G12G29G10G26G05G25G02
 129195951.299 6                  24585180.422
 114123324.517 7                  21716946.125
 116897067.382 7                  22244775.672
 124218908.562 6  96794088.80543  23638068.406                    23638076.855
 124045065.258 7  96658566.34843  23604996.789                    23605005.445
 107324818.377 7                  20423217.172
 113610866.458 8                  21619423.266
 113964089.554 7  88803298.75046  21686623.969                    21686629.336
 11  7 27  4  0  0.0000000  0  8G15G12G29G10G26G05G25G02
 129100522.722 6                  24567020.977
 114193728.854 8                  21730343.445
 116818075.171 7                  22229743.453
 124323708.952 6  96875751.44043  23658011.617                    23658019.953
 123948837.059 6  96583583.39743  23586684.828                    23586694.379
 107353986.770 8                  20428768.094
 113620474.948 8                  21621251.867
 114005935.902 7  88835906.29045  21694586.984                    21694592.273
 11  7 27  4  0 30.0000000  0  8G15G12G29G10G26G05G25G02
 129004981.744 7                  24548841.180
 114264518.350 8                  21743814.398
 116739206.119 7                  22214735.375
 124428660.223 6  96957531.63743  23677983.328                    23677991.145
 123852700.569 7  96508671.92044  23568391.000                    23568399.754
 107383661.274 8                  20434414.938
 113630654.166 8                  21623188.703
 114047881.685 8  88868591.31846  21702569.344                    21702574.469
 11  7 27  4  1  0.0000000  0  8G15G12G29G10G26G05G25G02
 128909330.837 7                  24530638.758
 114335690.296 8                  21757357.680
 116660462.445 8                  22199751.500
 124533759.358 6  97039427.04243  23697983.133                    23697991.043
 123756659.424 7  96433834.71744  23550115.063                    23550124.125
 107413840.090 8                  20440157.859
 113641403.182 8                  21625234.398
 114089926.748 8  88901353.70245  21710570.023                    21710575.516
 11  7 27  4  1 30.0000000  0  8G15G12G29G10G26G05G25G02
 128813572.837 6                  24512416.320
 114407242.390 8                  21770973.695
 116581846.474 7                  22184790.500
 124639003.978 6  97121435.82143  23718010.188                    23718018.469
 123660717.390 7  96359074.73144  23531858.328                    23531867.012
 107444521.875 8                  20445996.461
 113652721.496 8                  21627388.148
 114132071.349 8  88934193.64346  21718589.828                    21718595.289
 11  7 27  4  2  0.0000000  0  8G15G12G29G10G26G05G25G02
 128717709.970 6                  24494174.383
 114479171.445 8                  21784661.492
 116503359.829 8                  22169855.328
 124744391.372 6  97203555.85143  23738064.992                    23738072.926
 123564877.703 7  96284394.50844  23513620.742                    23513629.363
 107475704.364 8                  20451930.461
 113664607.768 8                  21629649.727
 114174314.504 8  88967110.39046  21726628.328                    21726633.848
 11  7 27  4  2 30.0000000  0  8G15G12G29G10G26G05G25G02
 128621744.913 5                  24475911.555
 114551475.062 8                  21798420.406
 116425004.454 7                  22154944.352
 124849918.926 6  97285785.10344  23758146.289                    23758154.215
 123469144.013 7  96209796.84843  23495402.586                    23495410.922
 107507385.992 8                  20457959.016
 113677061.207 8                  21632019.500
 114216656.608 8  89000104.22745  21734685.930                    21734691.453
 11  7 27  4  3  0.0000000  0  8G15G12G29G10G26G05G25G02
 128525680.565 6                  24457631.477
 114624150.357 8                  21812249.891
 116346782.577 7                  22140059.602
 124955584.153 6  97368121.62743  23778253.602                    23778261.578
 123373519.962 7  96135284.64143  23477205.609                    23477213.715
 107539565.185 8                  20464082.266
 113690081.093 8                  21634497.289
 114259097.697 8  89033175.20845  21742761.711                    21742767.898
 11  7 27  4  3 30.0000000  0  8G15G12G29G10G26G05G25G02
 128429519.305 6                  24439332.484
 114697194.286 8                  21826149.641
 116268696.187 7                  22125200.086
 125061384.394 6  97450563.36743  23798386.938                    23798394.813
 123278008.947 7  96060860.49743  23459030.602                    23459039.469
 107572240.105 8                  20470300.484
 113703666.219 8                  21637082.109
 114301637.349 8  89066322.98145  21750857.039                    21750862.574
 11  7 27  4  4  0.0000000  0  8G15G12G29G10G26G05G25G02
 128333263.670 6                  24421015.516
 114770604.429 7                  21840119.391
 116190747.114 7                  22110367.000
 125167316.729 6  97533108.03943  23818545.117                    23818553.000
 123182614.656 7  95986527.31444  23440877.914                    23440886.469
 107605408.582 8                  20476611.906
 113717815.601 8                  21639774.820
 114344275.512 8  89099547.52646  21758970.484                    21758975.957
 11  7 27  4  4 30.0000000  0  8G15G12G29G10G26G05G25G02
 128236916.378 6                  24402682.070
 114844378.150 7                  21854157.773
 116112937.427 7                  22095559.766
 125273378.964 6  97615753.92843  23838727.719                    23838735.887
 123087340.931 7  95912288.06744  23422747.656                    23422756.324
 107639069.338 8                  20483017.570
 113732528.438 8                  21642574.664
 114387012.535 8  89132849.11145  21767103.547                    21767109.270
 11  7 27  4  5  0.0000000  0  8G15G12G29G10G26G05G25G02
 128140479.946 7                  24384330.531
 114918511.906 7                  21868265.031
 116035269.379 7                  22080780.586
 125379568.035 6  97698498.66743  23858934.945                    23858943.137
 122992190.867 6  95838145.21944  23404641.531                    23404650.230
 107673220.043 8                  20489515.648
 113747803.460 8                  21645481.461
 114429847.764 7  89166227.20145  21775254.758                    21775260.223
 11  7 27  4  5 30.0000000  0  8G15G12G29G10G26G05G25G02
 128043956.872 6                  24365961.969
 114993003.481 7                  21882440.453
 115957745.167 7                  22066028.023
 125485881.490 6  97781340.32643  23879165.992                    23879173.703
 122897168.213 7  95764101.64743  23386558.477                    23386567.820
 107707859.045 8                  20496107.570
 113763639.740 8                  21648495.063
 114472781.416 7  89199681.99945  21783424.836                    21783430.250
 11  7 27  4  6  0.0000000  0  8G15G12G29G10G26G05G25G02
 127947350.326 6                  24347578.516
 115067849.899 7                  21896683.211
 115880366.552 7                  22051303.141
 125592316.820 6  97864276.95543  23899419.242                    23899427.098
 122802276.703 6  95690160.21043  23368501.414                    23368509.676
 107742984.620 8                  20502791.836
 113780036.117 8                  21651614.898
 114515813.272 8  89233213.30845  21791613.250                    21791618.867
 11  7 27  4  6 30.0000000  0  8G15G12G29G10G26G05G25G02
 127850662.561 6                  24329179.477
 115143048.164 7                  21910993.133
 115803135.679 7                  22036606.977
 125698871.243 6  97947306.38443  23919696.391                    23919704.340
 122707519.739 7  95616323.60544  23350469.984                    23350478.090
 107778594.611 8                  20509568.359
 113796991.385 8                  21654841.578
 114558943.122 8  89266820.98445  21799821.016                    21799826.375
 11  7 27  4  7  0.0000000  0  8G15G12G29G10G26G05G25G02
 127753896.140 6                  24310765.750
 115218595.455 7                  21925368.961
 115726054.190 7                  22021938.430
 125805542.581 6  98030426.90943  23939995.688                    23940002.949
 122612901.070 7  95542594.78843  23332465.477                    23332473.512
 107814687.061 8                  20516436.469
 113814504.297 8                  21658174.133
 114602170.982 8  89300505.05145  21808046.781                    21808052.246
 11  7 27  4  7 30.0000000  0  8G15G12G29G10G26G05G25G02
 127657053.973 7                  24292337.906
 115294489.134 7                  21939811.133
 115649124.494 7                  22007299.313
 125912327.860 6  98113636.20442  23960316.023                    23960323.918
 122518424.043 7  95468976.34943  23314486.195                    23314495.582
 107851260.104 8                  20523396.359
 113832573.784 8                  21661612.688
 114645496.904 8  89334265.51745  21816291.305                    21816297.367
 11  7 27  4  8  0.0000000  0  8G15G12G29G10G26G05G25G02
 127560138.832 7                  24273895.438
 115370726.177 7                  21954318.906
 115572348.712 8                  21992689.539
 126019224.664 6  98196932.43143  23980657.133                    23980665.746
 122424092.568 7  95395471.37744  23296535.469                    23296544.375
 107888311.978 8                  20530446.961
 113851198.805 8                  21665157.008
 114688920.781 8  89368102.31745  21824554.758                    21824559.793
 11  7 27  4  8 30.0000000  0  8G15G12G29G10G26G05G25G02
 127463152.936 6                  24255439.320
 115447303.668 7                  21968890.648
 115495728.820 7                  21978109.250
 126126230.462 6  98280313.52342  24001020.242                    24001027.965
 122329910.002 7  95322082.40144  23278613.188                    23278621.766
 107925840.421 8                  20537587.891
 113870377.925 8                  21668806.586
 114732442.564 8  89402015.39745  21832836.789                    21832842.031
 11  7 27  4  9  0.0000000  0  8G15G12G29G10G26G05G25G02
 127366099.022 6                  24236970.625
 115524218.770 7                  21983527.219
 115419266.981 7                  21963558.766
 126233342.539 6  98363777.52243  24021403.422                    24021411.211
 122235880.072 7  95248812.34044  23260720.445                    23260728.758
 107963843.382 8                  20544819.633
 113890109.885 8                  21672561.648
 114776062.122 8  89436004.66145  21841137.109                    21841142.891
 11  7 27  4  9 30.0000000  0  8G15G12G29G10G26G05G25G02
 127268980.319 6                  24218489.109
 115601468.966 7                  21998227.594
 115342965.504 8                  21949039.367
 126340558.729 6  98447322.58543  24041806.180                    24041813.590
 122142006.720 7  95175664.30144  23242856.734                    23242865.254
 108002319.859 8                  20552141.742
 113910393.817 8                  21676421.414
 114819779.818 8  89470070.41845  21849456.430                    21849461.570
 11  7 27  4 10  0.0000000  0  8G15G12G29G10G26G05G25G02
 127171799.554 6                  24199995.508
 115679051.271 7                  22012990.750
 115266826.272 7                  21934550.250
 126447876.258 6  98530946.63243  24062227.633                    24062235.613
 122048293.621 7  95102641.12744  23225023.078                    23225031.953
 108041267.238 8                  20559553.133
 113931228.197 8                  21680385.703
 114863595.308 8  89504212.36045  21857793.781                    21857799.551
 11  7 27  4 10 30.0000000  0  8G15G12G29G10G26G05G25G02
 127074559.036 6                  24181491.484
 115756962.379 7                  22027817.008
 115190851.588 8                  21920092.633
 126555292.504 6  98614647.58643  24082668.586                    24082675.938
 121954743.973 7  95029745.36944  23207221.578                    23207230.328
 108080683.499 8                  20567053.641
 113952611.667 8                  21684454.992
 114907508.724 8  89538430.61545  21866150.477                    21866155.945
 11  7 27  4 11  0.0000000  0  8G15G12G29G10G26G05G25G02
 126977261.685 6                  24162976.523
 115835199.873 7                  22042704.758
 115115043.421 8                  21905667.047
 126662805.093 6  98698423.62643  24103127.102                    24103135.078
 121861361.728 7  94956980.04544  23189451.781                    23189460.563
 108120566.792 8                  20574643.172
 113974543.011 8                  21688628.414
 114951519.893 8  89572725.04045  21874525.758                    21874530.691
 11  7 27  4 11 30.0000000  0  8G15G12G29G10G26G05G25G02
 126879910.265 7                  24144451.320
 115913760.581 7                  22057654.836
 115039404.103 7                  21891273.602
 126770411.488 6  98782272.76343  24123603.734                    24123612.352
 121768150.256 7  94884347.74644  23171714.039                    23171722.164
 108160915.077 8                  20582321.461
 113997020.771 8                  21692906.008
 114995628.874 8  89607095.67045  21882919.633                    21882924.320
 11  7 27  4 12  0.0000000  0  8G15G12G29G10G26G05G25G02
 126782507.030 6                  24125915.430
 115992641.300 8                  22072664.945
 114963935.320 8                  21876912.133
 126878109.049 6  98866192.93543  24144098.570                    24144106.105
 121675113.208 7  94811851.39944  23154009.344                    23154018.063
 108201725.670 8                  20590087.078
 114020043.238 8                  21697286.742
 115039835.628 8  89641542.49745  21891331.406                    21891337.098
 11  7 27  4 12 30.0000000  0  8G15G12G29G10G26G05G25G02
 126685055.213 6                  24107371.570
 116071839.599 8                  22087735.930
 114888639.495 7                  21862583.359
 126985895.667 6  98950182.48843  24164608.914                    24164617.328
 121582254.474 7  94739493.97144  23136339.000                    23136347.238
 108242997.342 7                  20597940.914
 114043609.423 8                  21701771.633
 115084140.410 7  89676065.70645  21899762.047                    21899767.977
 11  7 27  4 13  0.0000000  0  8G15G12G29G10G26G05G25G02
 126587557.280 6                  24088818.563
 116151352.087 8                  22102866.883
 114813518.549 7                  21848288.727
 127093768.655 6  99034239.33043  24185136.750                    24185144.789
 121489577.278 7  94667278.01244  23118702.898                    23118711.816
 108284727.423 8                  20605882.008
 114067717.495 8                  21706359.305
 115128542.638 8  89710664.84845  21908211.422                    21908217.246
 11  7 27  4 13 30.0000000  0  8G15G12G29G10G26G05G25G02
 126490016.160 6                  24070257.125
 116231175.960 8                  22118056.922
 114738574.920 8                  21834027.359
 127201725.389 6  99118361.46543  24205680.328                    24205688.457
 121397085.556 7  94595206.59444  23101102.258                    23101111.027
 108326914.101 8                  20613909.836
 114092366.283 8                  21711049.570
 115173042.627 7  89745340.16345  21916679.750                    21916685.195
 11  7 27  4 14  0.0000000  0  9G15G12G29G10G26G05G25G02G21
 126392434.761 6                  24051686.914
 116311308.099 8                  22133305.297
 114663810.834 7                  21819800.094
 127309763.330 6  99202546.85643  24226239.320                    24226247.195
 121304783.216 6  94523282.72544  23083537.383                    23083546.449
 108369555.282 8                  20622024.258
 114117554.219 8                  21715842.586
 115217640.254 8  89780091.55945  21925166.641                    21925171.973
 132259922.26116 103059729.86852  25168233.273                    25168240.715
 11  7 27  4 14 30.0000000  0  9G15G12G29G10G26G05G25G02G21
 126294815.531 6                  24033111.406
 116391745.587 8                  22148612.141
 114589227.881 7                  21805607.523
 127417880.425 5  99286793.94143  24246812.344                    24246821.004
 121212673.385 7  94451508.85044  23066009.492                    23066018.703
 108412648.932 8                  20630224.766
 114143279.680 8                  21720738.094
 115262335.887 7  89814919.32145  21933672.008                    21933677.387
 132200831.292 5 103013685.13342  25156988.945                    25156996.801
